<?xml version="1.0" encoding="UTF-8" standalone="no" ?>
<gpx xmlns="http://www.topografix.com/GPX/1/1" xmlns:xsi="http://www.w3.org/2001/XMLSchema-instance" xsi:schemaLocation="http://www.topografix.com/GPX/1/1 http://www.topografix.com/GPX/1/1/gpx.xsd" version="1.1" creator="VisuGPX - https://www.visugpx.com">
  <metadata>
    <name>pic de Gabiet par le col des Espécières et St André </name>
    <desc><![CDATA[[url]https://picasaweb.google.com/105108571230570121986/GabietParEspecieres#[/url]
[img]https://lh4.googleusercontent.com/-n8q1EwQefek/U3i-YMBfjRI/AAAAAAAARgY/l-j5JkOudF8/s800/2014.05.17%2520Gabiet%2520St%2520Andr%25C3%25A9%2520053.JPG[/img]]]></desc>
  </metadata>
  <trk>
    <name><![CDATA[gabiet st andre]]></name>
    <trkseg>
      <trkpt lat="42.72733" lon="-0.04117">
        <ele>1891</ele>
        <time>2014-05-17T04:31:23Z</time>
      </trkpt>
      <trkpt lat="42.72735" lon="-0.0412">
        <ele>1892</ele>
        <time>2014-05-17T04:31:58Z</time>
      </trkpt>
      <trkpt lat="42.72734" lon="-0.04121">
        <ele>1892</ele>
        <time>2014-05-17T04:32:22Z</time>
      </trkpt>
      <trkpt lat="42.72735" lon="-0.04121">
        <ele>1892</ele>
        <time>2014-05-17T04:32:45Z</time>
      </trkpt>
      <trkpt lat="42.72733" lon="-0.0412">
        <ele>1893</ele>
        <time>2014-05-17T04:33:15Z</time>
      </trkpt>
      <trkpt lat="42.72735" lon="-0.0412">
        <ele>1893</ele>
        <time>2014-05-17T04:33:40Z</time>
      </trkpt>
      <trkpt lat="42.72735" lon="-0.04119">
        <ele>1893</ele>
        <time>2014-05-17T04:34:06Z</time>
      </trkpt>
      <trkpt lat="42.72734" lon="-0.04119">
        <ele>1894</ele>
        <time>2014-05-17T04:34:34Z</time>
      </trkpt>
      <trkpt lat="42.72735" lon="-0.04119">
        <ele>1895</ele>
        <time>2014-05-17T04:35:10Z</time>
      </trkpt>
      <trkpt lat="42.72735" lon="-0.04121">
        <ele>1896</ele>
        <time>2014-05-17T04:35:50Z</time>
      </trkpt>
      <trkpt lat="42.72735" lon="-0.04118">
        <ele>1896</ele>
        <time>2014-05-17T04:36:36Z</time>
      </trkpt>
      <trkpt lat="42.72735" lon="-0.0412">
        <ele>1897</ele>
        <time>2014-05-17T04:37:23Z</time>
      </trkpt>
      <trkpt lat="42.72734" lon="-0.04121">
        <ele>1898</ele>
        <time>2014-05-17T04:38:04Z</time>
      </trkpt>
      <trkpt lat="42.72735" lon="-0.0412">
        <ele>1898</ele>
        <time>2014-05-17T04:38:40Z</time>
      </trkpt>
      <trkpt lat="42.72734" lon="-0.04121">
        <ele>1900</ele>
        <time>2014-05-17T04:38:50Z</time>
      </trkpt>
      <trkpt lat="42.72733" lon="-0.04119">
        <ele>1897</ele>
        <time>2014-05-17T04:38:55Z</time>
      </trkpt>
      <trkpt lat="42.72735" lon="-0.04122">
        <ele>1898</ele>
        <time>2014-05-17T04:39:10Z</time>
      </trkpt>
      <trkpt lat="42.72736" lon="-0.04122">
        <ele>1898</ele>
        <time>2014-05-17T04:39:23Z</time>
      </trkpt>
      <trkpt lat="42.72737" lon="-0.04122">
        <ele>1899</ele>
        <time>2014-05-17T04:39:42Z</time>
      </trkpt>
      <trkpt lat="42.72734" lon="-0.04121">
        <ele>1900</ele>
        <time>2014-05-17T04:39:59Z</time>
      </trkpt>
      <trkpt lat="42.72735" lon="-0.04121">
        <ele>1899</ele>
        <time>2014-05-17T04:40:13Z</time>
      </trkpt>
      <trkpt lat="42.72736" lon="-0.04119">
        <ele>1901</ele>
        <time>2014-05-17T04:40:29Z</time>
      </trkpt>
      <trkpt lat="42.72733" lon="-0.0412">
        <ele>1901</ele>
        <time>2014-05-17T04:40:47Z</time>
      </trkpt>
      <trkpt lat="42.72732" lon="-0.04119">
        <ele>1902</ele>
        <time>2014-05-17T04:41:02Z</time>
      </trkpt>
      <trkpt lat="42.72733" lon="-0.0412">
        <ele>1901</ele>
        <time>2014-05-17T04:41:16Z</time>
      </trkpt>
      <trkpt lat="42.72734" lon="-0.04119">
        <ele>1902</ele>
        <time>2014-05-17T04:41:31Z</time>
      </trkpt>
      <trkpt lat="42.72733" lon="-0.04117">
        <ele>1902</ele>
        <time>2014-05-17T04:41:34Z</time>
      </trkpt>
      <trkpt lat="42.72728" lon="-0.04113">
        <ele>1901</ele>
        <time>2014-05-17T04:41:38Z</time>
      </trkpt>
      <trkpt lat="42.72713" lon="-0.04107">
        <ele>1902</ele>
        <time>2014-05-17T04:41:49Z</time>
      </trkpt>
      <trkpt lat="42.72708" lon="-0.04111">
        <ele>1903</ele>
        <time>2014-05-17T04:41:54Z</time>
      </trkpt>
      <trkpt lat="42.72701" lon="-0.04114">
        <ele>1904</ele>
        <time>2014-05-17T04:42:01Z</time>
      </trkpt>
      <trkpt lat="42.72691" lon="-0.04117">
        <ele>1907</ele>
        <time>2014-05-17T04:42:12Z</time>
      </trkpt>
      <trkpt lat="42.72691" lon="-0.04117">
        <ele>1907</ele>
        <time>2014-05-17T04:42:13Z</time>
      </trkpt>
      <trkpt lat="42.72687" lon="-0.0412">
        <ele>1908</ele>
        <time>2014-05-17T04:42:17Z</time>
      </trkpt>
      <trkpt lat="42.72683" lon="-0.0412">
        <ele>1909</ele>
        <time>2014-05-17T04:42:21Z</time>
      </trkpt>
      <trkpt lat="42.72682" lon="-0.0412">
        <ele>1909</ele>
        <time>2014-05-17T04:42:23Z</time>
      </trkpt>
      <trkpt lat="42.7268" lon="-0.0412">
        <ele>1910</ele>
        <time>2014-05-17T04:42:25Z</time>
      </trkpt>
      <trkpt lat="42.72672" lon="-0.04119">
        <ele>1911</ele>
        <time>2014-05-17T04:42:32Z</time>
      </trkpt>
      <trkpt lat="42.72666" lon="-0.04124">
        <ele>1913</ele>
        <time>2014-05-17T04:42:39Z</time>
      </trkpt>
      <trkpt lat="42.72652" lon="-0.04132">
        <ele>1914</ele>
        <time>2014-05-17T04:42:54Z</time>
      </trkpt>
      <trkpt lat="42.72638" lon="-0.04142">
        <ele>1917</ele>
        <time>2014-05-17T04:43:08Z</time>
      </trkpt>
      <trkpt lat="42.72634" lon="-0.04144">
        <ele>1917</ele>
        <time>2014-05-17T04:43:12Z</time>
      </trkpt>
      <trkpt lat="42.72629" lon="-0.04145">
        <ele>1917</ele>
        <time>2014-05-17T04:43:16Z</time>
      </trkpt>
      <trkpt lat="42.72618" lon="-0.04144">
        <ele>1918</ele>
        <time>2014-05-17T04:43:25Z</time>
      </trkpt>
      <trkpt lat="42.72607" lon="-0.04151">
        <ele>1920</ele>
        <time>2014-05-17T04:43:37Z</time>
      </trkpt>
      <trkpt lat="42.72595" lon="-0.04151">
        <ele>1923</ele>
        <time>2014-05-17T04:43:50Z</time>
      </trkpt>
      <trkpt lat="42.72588" lon="-0.04155">
        <ele>1925</ele>
        <time>2014-05-17T04:43:59Z</time>
      </trkpt>
      <trkpt lat="42.72584" lon="-0.04154">
        <ele>1925</ele>
        <time>2014-05-17T04:44:05Z</time>
      </trkpt>
      <trkpt lat="42.7258" lon="-0.04159">
        <ele>1926</ele>
        <time>2014-05-17T04:44:10Z</time>
      </trkpt>
      <trkpt lat="42.72578" lon="-0.04159">
        <ele>1927</ele>
        <time>2014-05-17T04:44:20Z</time>
      </trkpt>
      <trkpt lat="42.72576" lon="-0.0416">
        <ele>1927</ele>
        <time>2014-05-17T04:44:22Z</time>
      </trkpt>
      <trkpt lat="42.72565" lon="-0.04175">
        <ele>1929</ele>
        <time>2014-05-17T04:44:37Z</time>
      </trkpt>
      <trkpt lat="42.72555" lon="-0.04192">
        <ele>1930</ele>
        <time>2014-05-17T04:44:53Z</time>
      </trkpt>
      <trkpt lat="42.72547" lon="-0.04204">
        <ele>1933</ele>
        <time>2014-05-17T04:45:09Z</time>
      </trkpt>
      <trkpt lat="42.72539" lon="-0.04214">
        <ele>1934</ele>
        <time>2014-05-17T04:45:18Z</time>
      </trkpt>
      <trkpt lat="42.72525" lon="-0.04232">
        <ele>1936</ele>
        <time>2014-05-17T04:45:32Z</time>
      </trkpt>
      <trkpt lat="42.72513" lon="-0.04243">
        <ele>1937</ele>
        <time>2014-05-17T04:45:45Z</time>
      </trkpt>
      <trkpt lat="42.72498" lon="-0.04258">
        <ele>1939</ele>
        <time>2014-05-17T04:46:01Z</time>
      </trkpt>
      <trkpt lat="42.72496" lon="-0.04259">
        <ele>1939</ele>
        <time>2014-05-17T04:46:03Z</time>
      </trkpt>
      <trkpt lat="42.72479" lon="-0.04271">
        <ele>1942</ele>
        <time>2014-05-17T04:46:20Z</time>
      </trkpt>
      <trkpt lat="42.72462" lon="-0.04288">
        <ele>1943</ele>
        <time>2014-05-17T04:46:38Z</time>
      </trkpt>
      <trkpt lat="42.72448" lon="-0.04304">
        <ele>1945</ele>
        <time>2014-05-17T04:46:54Z</time>
      </trkpt>
      <trkpt lat="42.7244" lon="-0.04316">
        <ele>1947</ele>
        <time>2014-05-17T04:47:03Z</time>
      </trkpt>
      <trkpt lat="42.72434" lon="-0.0432">
        <ele>1947</ele>
        <time>2014-05-17T04:47:07Z</time>
      </trkpt>
      <trkpt lat="42.72418" lon="-0.0434">
        <ele>1950</ele>
        <time>2014-05-17T04:47:25Z</time>
      </trkpt>
      <trkpt lat="42.72403" lon="-0.04358">
        <ele>1952</ele>
        <time>2014-05-17T04:47:41Z</time>
      </trkpt>
      <trkpt lat="42.72388" lon="-0.04377">
        <ele>1954</ele>
        <time>2014-05-17T04:47:57Z</time>
      </trkpt>
      <trkpt lat="42.72373" lon="-0.04395">
        <ele>1956</ele>
        <time>2014-05-17T04:48:14Z</time>
      </trkpt>
      <trkpt lat="42.72361" lon="-0.04413">
        <ele>1960</ele>
        <time>2014-05-17T04:48:28Z</time>
      </trkpt>
      <trkpt lat="42.72361" lon="-0.04415">
        <ele>1960</ele>
        <time>2014-05-17T04:48:29Z</time>
      </trkpt>
      <trkpt lat="42.7235" lon="-0.04436">
        <ele>1961</ele>
        <time>2014-05-17T04:48:44Z</time>
      </trkpt>
      <trkpt lat="42.7234" lon="-0.04462">
        <ele>1963</ele>
        <time>2014-05-17T04:49:00Z</time>
      </trkpt>
      <trkpt lat="42.72332" lon="-0.04484">
        <ele>1965</ele>
        <time>2014-05-17T04:49:18Z</time>
      </trkpt>
      <trkpt lat="42.72321" lon="-0.04511">
        <ele>1968</ele>
        <time>2014-05-17T04:49:36Z</time>
      </trkpt>
      <trkpt lat="42.72313" lon="-0.04534">
        <ele>1969</ele>
        <time>2014-05-17T04:49:51Z</time>
      </trkpt>
      <trkpt lat="42.7231" lon="-0.04538">
        <ele>1970</ele>
        <time>2014-05-17T04:49:56Z</time>
      </trkpt>
      <trkpt lat="42.723" lon="-0.04555">
        <ele>1972</ele>
        <time>2014-05-17T04:50:11Z</time>
      </trkpt>
      <trkpt lat="42.72295" lon="-0.04585">
        <ele>1974</ele>
        <time>2014-05-17T04:50:26Z</time>
      </trkpt>
      <trkpt lat="42.72292" lon="-0.0459">
        <ele>1973</ele>
        <time>2014-05-17T04:50:30Z</time>
      </trkpt>
      <trkpt lat="42.72284" lon="-0.04611">
        <ele>1976</ele>
        <time>2014-05-17T04:50:44Z</time>
      </trkpt>
      <trkpt lat="42.72283" lon="-0.04614">
        <ele>1977</ele>
        <time>2014-05-17T04:50:46Z</time>
      </trkpt>
      <trkpt lat="42.72279" lon="-0.04621">
        <ele>1978</ele>
        <time>2014-05-17T04:50:51Z</time>
      </trkpt>
      <trkpt lat="42.72276" lon="-0.04625">
        <ele>1978</ele>
        <time>2014-05-17T04:50:55Z</time>
      </trkpt>
      <trkpt lat="42.72268" lon="-0.04638">
        <ele>1982</ele>
        <time>2014-05-17T04:51:09Z</time>
      </trkpt>
      <trkpt lat="42.72259" lon="-0.04651">
        <ele>1984</ele>
        <time>2014-05-17T04:51:23Z</time>
      </trkpt>
      <trkpt lat="42.72253" lon="-0.04656">
        <ele>1986</ele>
        <time>2014-05-17T04:51:31Z</time>
      </trkpt>
      <trkpt lat="42.72239" lon="-0.0466">
        <ele>1989</ele>
        <time>2014-05-17T04:51:44Z</time>
      </trkpt>
      <trkpt lat="42.72223" lon="-0.04677">
        <ele>1990</ele>
        <time>2014-05-17T04:52:00Z</time>
      </trkpt>
      <trkpt lat="42.72212" lon="-0.047">
        <ele>1993</ele>
        <time>2014-05-17T04:52:17Z</time>
      </trkpt>
      <trkpt lat="42.72206" lon="-0.04717">
        <ele>1996</ele>
        <time>2014-05-17T04:52:30Z</time>
      </trkpt>
      <trkpt lat="42.72205" lon="-0.04721">
        <ele>1995</ele>
        <time>2014-05-17T04:52:33Z</time>
      </trkpt>
      <trkpt lat="42.72198" lon="-0.04742">
        <ele>1997</ele>
        <time>2014-05-17T04:52:49Z</time>
      </trkpt>
      <trkpt lat="42.72192" lon="-0.04769">
        <ele>1999</ele>
        <time>2014-05-17T04:53:07Z</time>
      </trkpt>
      <trkpt lat="42.72188" lon="-0.04802">
        <ele>2002</ele>
        <time>2014-05-17T04:53:27Z</time>
      </trkpt>
      <trkpt lat="42.72175" lon="-0.04824">
        <ele>2004</ele>
        <time>2014-05-17T04:53:44Z</time>
      </trkpt>
      <trkpt lat="42.72163" lon="-0.04847">
        <ele>2007</ele>
        <time>2014-05-17T04:54:02Z</time>
      </trkpt>
      <trkpt lat="42.72151" lon="-0.04867">
        <ele>2010</ele>
        <time>2014-05-17T04:54:18Z</time>
      </trkpt>
      <trkpt lat="42.7214" lon="-0.04892">
        <ele>2012</ele>
        <time>2014-05-17T04:54:35Z</time>
      </trkpt>
      <trkpt lat="42.72133" lon="-0.04917">
        <ele>2014</ele>
        <time>2014-05-17T04:54:51Z</time>
      </trkpt>
      <trkpt lat="42.72132" lon="-0.04939">
        <ele>2016</ele>
        <time>2014-05-17T04:55:07Z</time>
      </trkpt>
      <trkpt lat="42.7214" lon="-0.04955">
        <ele>2018</ele>
        <time>2014-05-17T04:55:21Z</time>
      </trkpt>
      <trkpt lat="42.72141" lon="-0.04964">
        <ele>2018</ele>
        <time>2014-05-17T04:55:33Z</time>
      </trkpt>
      <trkpt lat="42.72144" lon="-0.04983">
        <ele>2019</ele>
        <time>2014-05-17T04:55:47Z</time>
      </trkpt>
      <trkpt lat="42.72151" lon="-0.04989">
        <ele>2021</ele>
        <time>2014-05-17T04:55:55Z</time>
      </trkpt>
      <trkpt lat="42.72156" lon="-0.0501">
        <ele>2020</ele>
        <time>2014-05-17T04:56:11Z</time>
      </trkpt>
      <trkpt lat="42.72159" lon="-0.05013">
        <ele>2021</ele>
        <time>2014-05-17T04:56:25Z</time>
      </trkpt>
      <trkpt lat="42.72161" lon="-0.05026">
        <ele>2019</ele>
        <time>2014-05-17T04:56:37Z</time>
      </trkpt>
      <trkpt lat="42.72159" lon="-0.05028">
        <ele>2018</ele>
        <time>2014-05-17T04:56:39Z</time>
      </trkpt>
      <trkpt lat="42.72158" lon="-0.05028">
        <ele>2018</ele>
        <time>2014-05-17T04:56:41Z</time>
      </trkpt>
      <trkpt lat="42.72155" lon="-0.05057">
        <ele>2018</ele>
        <time>2014-05-17T04:56:56Z</time>
      </trkpt>
      <trkpt lat="42.72155" lon="-0.05061">
        <ele>2018</ele>
        <time>2014-05-17T04:57:02Z</time>
      </trkpt>
      <trkpt lat="42.72152" lon="-0.05062">
        <ele>2018</ele>
        <time>2014-05-17T04:57:05Z</time>
      </trkpt>
      <trkpt lat="42.72138" lon="-0.05059">
        <ele>2021</ele>
        <time>2014-05-17T04:57:20Z</time>
      </trkpt>
      <trkpt lat="42.72136" lon="-0.05058">
        <ele>2022</ele>
        <time>2014-05-17T04:57:22Z</time>
      </trkpt>
      <trkpt lat="42.72129" lon="-0.05051">
        <ele>2026</ele>
        <time>2014-05-17T04:57:33Z</time>
      </trkpt>
      <trkpt lat="42.72127" lon="-0.05051">
        <ele>2025</ele>
        <time>2014-05-17T04:57:36Z</time>
      </trkpt>
      <trkpt lat="42.72117" lon="-0.05055">
        <ele>2029</ele>
        <time>2014-05-17T04:57:50Z</time>
      </trkpt>
      <trkpt lat="42.72116" lon="-0.05058">
        <ele>2030</ele>
        <time>2014-05-17T04:57:53Z</time>
      </trkpt>
      <trkpt lat="42.72114" lon="-0.0506">
        <ele>2031</ele>
        <time>2014-05-17T04:57:56Z</time>
      </trkpt>
      <trkpt lat="42.7211" lon="-0.05066">
        <ele>2032</ele>
        <time>2014-05-17T04:58:03Z</time>
      </trkpt>
      <trkpt lat="42.72108" lon="-0.0507">
        <ele>2032</ele>
        <time>2014-05-17T04:58:08Z</time>
      </trkpt>
      <trkpt lat="42.72105" lon="-0.0509">
        <ele>2036</ele>
        <time>2014-05-17T04:58:24Z</time>
      </trkpt>
      <trkpt lat="42.72105" lon="-0.05106">
        <ele>2038</ele>
        <time>2014-05-17T04:58:39Z</time>
      </trkpt>
      <trkpt lat="42.72106" lon="-0.05113">
        <ele>2039</ele>
        <time>2014-05-17T04:58:47Z</time>
      </trkpt>
      <trkpt lat="42.72107" lon="-0.0512">
        <ele>2040</ele>
        <time>2014-05-17T04:58:53Z</time>
      </trkpt>
      <trkpt lat="42.72106" lon="-0.05137">
        <ele>2042</ele>
        <time>2014-05-17T04:59:07Z</time>
      </trkpt>
      <trkpt lat="42.72103" lon="-0.05153">
        <ele>2042</ele>
        <time>2014-05-17T04:59:23Z</time>
      </trkpt>
      <trkpt lat="42.72101" lon="-0.05165">
        <ele>2045</ele>
        <time>2014-05-17T04:59:34Z</time>
      </trkpt>
      <trkpt lat="42.72096" lon="-0.05178">
        <ele>2047</ele>
        <time>2014-05-17T04:59:46Z</time>
      </trkpt>
      <trkpt lat="42.72093" lon="-0.05181">
        <ele>2047</ele>
        <time>2014-05-17T04:59:50Z</time>
      </trkpt>
      <trkpt lat="42.7209" lon="-0.05193">
        <ele>2050</ele>
        <time>2014-05-17T05:00:03Z</time>
      </trkpt>
      <trkpt lat="42.72089" lon="-0.05194">
        <ele>2051</ele>
        <time>2014-05-17T05:00:04Z</time>
      </trkpt>
      <trkpt lat="42.72089" lon="-0.05199">
        <ele>2051</ele>
        <time>2014-05-17T05:00:07Z</time>
      </trkpt>
      <trkpt lat="42.72082" lon="-0.05214">
        <ele>2053</ele>
        <time>2014-05-17T05:00:22Z</time>
      </trkpt>
      <trkpt lat="42.72077" lon="-0.05228">
        <ele>2056</ele>
        <time>2014-05-17T05:00:37Z</time>
      </trkpt>
      <trkpt lat="42.72073" lon="-0.05246">
        <ele>2058</ele>
        <time>2014-05-17T05:00:52Z</time>
      </trkpt>
      <trkpt lat="42.72068" lon="-0.05253">
        <ele>2059</ele>
        <time>2014-05-17T05:01:00Z</time>
      </trkpt>
      <trkpt lat="42.72065" lon="-0.05263">
        <ele>2060</ele>
        <time>2014-05-17T05:01:08Z</time>
      </trkpt>
      <trkpt lat="42.72063" lon="-0.05265">
        <ele>2060</ele>
        <time>2014-05-17T05:01:10Z</time>
      </trkpt>
      <trkpt lat="42.72058" lon="-0.05271">
        <ele>2062</ele>
        <time>2014-05-17T05:01:17Z</time>
      </trkpt>
      <trkpt lat="42.72052" lon="-0.05275">
        <ele>2063</ele>
        <time>2014-05-17T05:01:24Z</time>
      </trkpt>
      <trkpt lat="42.72039" lon="-0.05282">
        <ele>2065</ele>
        <time>2014-05-17T05:01:40Z</time>
      </trkpt>
      <trkpt lat="42.72025" lon="-0.0529">
        <ele>2068</ele>
        <time>2014-05-17T05:01:56Z</time>
      </trkpt>
      <trkpt lat="42.72024" lon="-0.05291">
        <ele>2066</ele>
        <time>2014-05-17T05:01:57Z</time>
      </trkpt>
      <trkpt lat="42.72015" lon="-0.05303">
        <ele>2068</ele>
        <time>2014-05-17T05:02:10Z</time>
      </trkpt>
      <trkpt lat="42.72006" lon="-0.05318">
        <ele>2072</ele>
        <time>2014-05-17T05:02:26Z</time>
      </trkpt>
      <trkpt lat="42.71997" lon="-0.05328">
        <ele>2075</ele>
        <time>2014-05-17T05:02:40Z</time>
      </trkpt>
      <trkpt lat="42.7199" lon="-0.05336">
        <ele>2077</ele>
        <time>2014-05-17T05:02:52Z</time>
      </trkpt>
      <trkpt lat="42.71989" lon="-0.0534">
        <ele>2078</ele>
        <time>2014-05-17T05:02:55Z</time>
      </trkpt>
      <trkpt lat="42.71986" lon="-0.05357">
        <ele>2079</ele>
        <time>2014-05-17T05:03:12Z</time>
      </trkpt>
      <trkpt lat="42.71982" lon="-0.05367">
        <ele>2081</ele>
        <time>2014-05-17T05:03:22Z</time>
      </trkpt>
      <trkpt lat="42.71982" lon="-0.0537">
        <ele>2081</ele>
        <time>2014-05-17T05:03:25Z</time>
      </trkpt>
      <trkpt lat="42.71974" lon="-0.05388">
        <ele>2084</ele>
        <time>2014-05-17T05:03:41Z</time>
      </trkpt>
      <trkpt lat="42.71964" lon="-0.05401">
        <ele>2086</ele>
        <time>2014-05-17T05:03:53Z</time>
      </trkpt>
      <trkpt lat="42.7196" lon="-0.05403">
        <ele>2085</ele>
        <time>2014-05-17T05:03:57Z</time>
      </trkpt>
      <trkpt lat="42.71958" lon="-0.05407">
        <ele>2087</ele>
        <time>2014-05-17T05:04:00Z</time>
      </trkpt>
      <trkpt lat="42.71953" lon="-0.05411">
        <ele>2087</ele>
        <time>2014-05-17T05:04:06Z</time>
      </trkpt>
      <trkpt lat="42.71944" lon="-0.05428">
        <ele>2089</ele>
        <time>2014-05-17T05:04:23Z</time>
      </trkpt>
      <trkpt lat="42.7194" lon="-0.05439">
        <ele>2090</ele>
        <time>2014-05-17T05:04:31Z</time>
      </trkpt>
      <trkpt lat="42.71939" lon="-0.05444">
        <ele>2090</ele>
        <time>2014-05-17T05:04:34Z</time>
      </trkpt>
      <trkpt lat="42.71937" lon="-0.05458">
        <ele>2091</ele>
        <time>2014-05-17T05:04:44Z</time>
      </trkpt>
      <trkpt lat="42.71929" lon="-0.05472">
        <ele>2093</ele>
        <time>2014-05-17T05:04:59Z</time>
      </trkpt>
      <trkpt lat="42.71927" lon="-0.05482">
        <ele>2093</ele>
        <time>2014-05-17T05:05:07Z</time>
      </trkpt>
      <trkpt lat="42.71918" lon="-0.05492">
        <ele>2095</ele>
        <time>2014-05-17T05:05:18Z</time>
      </trkpt>
      <trkpt lat="42.71916" lon="-0.05502">
        <ele>2097</ele>
        <time>2014-05-17T05:05:25Z</time>
      </trkpt>
      <trkpt lat="42.71916" lon="-0.05513">
        <ele>2097</ele>
        <time>2014-05-17T05:05:33Z</time>
      </trkpt>
      <trkpt lat="42.71907" lon="-0.05514">
        <ele>2097</ele>
        <time>2014-05-17T05:05:47Z</time>
      </trkpt>
      <trkpt lat="42.71906" lon="-0.05512">
        <ele>2097</ele>
        <time>2014-05-17T05:06:06Z</time>
      </trkpt>
      <trkpt lat="42.71906" lon="-0.05512">
        <ele>2097</ele>
        <time>2014-05-17T05:06:23Z</time>
      </trkpt>
      <trkpt lat="42.71906" lon="-0.05513">
        <ele>2097</ele>
        <time>2014-05-17T05:06:41Z</time>
      </trkpt>
      <trkpt lat="42.71906" lon="-0.05514">
        <ele>2098</ele>
        <time>2014-05-17T05:06:57Z</time>
      </trkpt>
      <trkpt lat="42.71906" lon="-0.05514">
        <ele>2097</ele>
        <time>2014-05-17T05:07:23Z</time>
      </trkpt>
      <trkpt lat="42.71907" lon="-0.05513">
        <ele>2098</ele>
        <time>2014-05-17T05:08:03Z</time>
      </trkpt>
      <trkpt lat="42.71905" lon="-0.05515">
        <ele>2098</ele>
        <time>2014-05-17T05:08:33Z</time>
      </trkpt>
      <trkpt lat="42.71906" lon="-0.05515">
        <ele>2098</ele>
        <time>2014-05-17T05:09:15Z</time>
      </trkpt>
      <trkpt lat="42.71907" lon="-0.05516">
        <ele>2098</ele>
        <time>2014-05-17T05:10:05Z</time>
      </trkpt>
      <trkpt lat="42.71908" lon="-0.05517">
        <ele>2098</ele>
        <time>2014-05-17T05:10:44Z</time>
      </trkpt>
      <trkpt lat="42.71909" lon="-0.05517">
        <ele>2101</ele>
        <time>2014-05-17T05:11:02Z</time>
      </trkpt>
      <trkpt lat="42.7191" lon="-0.05516">
        <ele>2099</ele>
        <time>2014-05-17T05:11:21Z</time>
      </trkpt>
      <trkpt lat="42.71908" lon="-0.05514">
        <ele>2101</ele>
        <time>2014-05-17T05:11:43Z</time>
      </trkpt>
      <trkpt lat="42.71908" lon="-0.05511">
        <ele>2100</ele>
        <time>2014-05-17T05:12:04Z</time>
      </trkpt>
      <trkpt lat="42.71909" lon="-0.05512">
        <ele>2100</ele>
        <time>2014-05-17T05:12:29Z</time>
      </trkpt>
      <trkpt lat="42.71905" lon="-0.05516">
        <ele>2100</ele>
        <time>2014-05-17T05:12:58Z</time>
      </trkpt>
      <trkpt lat="42.71908" lon="-0.05515">
        <ele>2101</ele>
        <time>2014-05-17T05:13:16Z</time>
      </trkpt>
      <trkpt lat="42.71908" lon="-0.05514">
        <ele>2100</ele>
        <time>2014-05-17T05:13:38Z</time>
      </trkpt>
      <trkpt lat="42.71906" lon="-0.05512">
        <ele>2101</ele>
        <time>2014-05-17T05:14:03Z</time>
      </trkpt>
      <trkpt lat="42.71902" lon="-0.0551">
        <ele>2102</ele>
        <time>2014-05-17T05:14:12Z</time>
      </trkpt>
      <trkpt lat="42.71891" lon="-0.0551">
        <ele>2104</ele>
        <time>2014-05-17T05:14:29Z</time>
      </trkpt>
      <trkpt lat="42.71879" lon="-0.05512">
        <ele>2107</ele>
        <time>2014-05-17T05:14:45Z</time>
      </trkpt>
      <trkpt lat="42.71869" lon="-0.05511">
        <ele>2110</ele>
        <time>2014-05-17T05:14:59Z</time>
      </trkpt>
      <trkpt lat="42.71859" lon="-0.05505">
        <ele>2112</ele>
        <time>2014-05-17T05:15:16Z</time>
      </trkpt>
      <trkpt lat="42.71848" lon="-0.055">
        <ele>2116</ele>
        <time>2014-05-17T05:15:32Z</time>
      </trkpt>
      <trkpt lat="42.71845" lon="-0.05513">
        <ele>2117</ele>
        <time>2014-05-17T05:15:49Z</time>
      </trkpt>
      <trkpt lat="42.71844" lon="-0.05523">
        <ele>2119</ele>
        <time>2014-05-17T05:15:58Z</time>
      </trkpt>
      <trkpt lat="42.71839" lon="-0.05539">
        <ele>2123</ele>
        <time>2014-05-17T05:16:13Z</time>
      </trkpt>
      <trkpt lat="42.71839" lon="-0.05555">
        <ele>2126</ele>
        <time>2014-05-17T05:16:26Z</time>
      </trkpt>
      <trkpt lat="42.71838" lon="-0.05569">
        <ele>2127</ele>
        <time>2014-05-17T05:16:42Z</time>
      </trkpt>
      <trkpt lat="42.71828" lon="-0.05579">
        <ele>2128</ele>
        <time>2014-05-17T05:17:00Z</time>
      </trkpt>
      <trkpt lat="42.71818" lon="-0.05586">
        <ele>2130</ele>
        <time>2014-05-17T05:17:14Z</time>
      </trkpt>
      <trkpt lat="42.71804" lon="-0.05598">
        <ele>2130</ele>
        <time>2014-05-17T05:17:31Z</time>
      </trkpt>
      <trkpt lat="42.71794" lon="-0.05608">
        <ele>2131</ele>
        <time>2014-05-17T05:17:47Z</time>
      </trkpt>
      <trkpt lat="42.71779" lon="-0.0562">
        <ele>2131</ele>
        <time>2014-05-17T05:18:05Z</time>
      </trkpt>
      <trkpt lat="42.71777" lon="-0.05624">
        <ele>2131</ele>
        <time>2014-05-17T05:18:13Z</time>
      </trkpt>
      <trkpt lat="42.71761" lon="-0.05636">
        <ele>2132</ele>
        <time>2014-05-17T05:18:30Z</time>
      </trkpt>
      <trkpt lat="42.71747" lon="-0.05647">
        <ele>2132</ele>
        <time>2014-05-17T05:18:47Z</time>
      </trkpt>
      <trkpt lat="42.71747" lon="-0.05673">
        <ele>2132</ele>
        <time>2014-05-17T05:19:07Z</time>
      </trkpt>
      <trkpt lat="42.71751" lon="-0.05685">
        <ele>2131</ele>
        <time>2014-05-17T05:19:17Z</time>
      </trkpt>
      <trkpt lat="42.71757" lon="-0.05703">
        <ele>2128</ele>
        <time>2014-05-17T05:19:34Z</time>
      </trkpt>
      <trkpt lat="42.71753" lon="-0.05712">
        <ele>2128</ele>
        <time>2014-05-17T05:19:42Z</time>
      </trkpt>
      <trkpt lat="42.71748" lon="-0.05731">
        <ele>2128</ele>
        <time>2014-05-17T05:20:00Z</time>
      </trkpt>
      <trkpt lat="42.71743" lon="-0.05752">
        <ele>2129</ele>
        <time>2014-05-17T05:20:16Z</time>
      </trkpt>
      <trkpt lat="42.7174" lon="-0.05768">
        <ele>2129</ele>
        <time>2014-05-17T05:20:32Z</time>
      </trkpt>
      <trkpt lat="42.71741" lon="-0.05771">
        <ele>2130</ele>
        <time>2014-05-17T05:20:36Z</time>
      </trkpt>
      <trkpt lat="42.7175" lon="-0.05786">
        <ele>2132</ele>
        <time>2014-05-17T05:20:52Z</time>
      </trkpt>
      <trkpt lat="42.71754" lon="-0.05794">
        <ele>2134</ele>
        <time>2014-05-17T05:20:58Z</time>
      </trkpt>
      <trkpt lat="42.71756" lon="-0.05801">
        <ele>2137</ele>
        <time>2014-05-17T05:21:14Z</time>
      </trkpt>
      <trkpt lat="42.71755" lon="-0.05802">
        <ele>2137</ele>
        <time>2014-05-17T05:21:15Z</time>
      </trkpt>
      <trkpt lat="42.7175" lon="-0.05804">
        <ele>2138</ele>
        <time>2014-05-17T05:21:21Z</time>
      </trkpt>
      <trkpt lat="42.71741" lon="-0.05809">
        <ele>2141</ele>
        <time>2014-05-17T05:21:34Z</time>
      </trkpt>
      <trkpt lat="42.71743" lon="-0.05817">
        <ele>2144</ele>
        <time>2014-05-17T05:21:50Z</time>
      </trkpt>
      <trkpt lat="42.71748" lon="-0.05837">
        <ele>2147</ele>
        <time>2014-05-17T05:22:12Z</time>
      </trkpt>
      <trkpt lat="42.71753" lon="-0.05853">
        <ele>2150</ele>
        <time>2014-05-17T05:22:27Z</time>
      </trkpt>
      <trkpt lat="42.71756" lon="-0.05873">
        <ele>2153</ele>
        <time>2014-05-17T05:22:44Z</time>
      </trkpt>
      <trkpt lat="42.71744" lon="-0.05886">
        <ele>2156</ele>
        <time>2014-05-17T05:23:02Z</time>
      </trkpt>
      <trkpt lat="42.7173" lon="-0.05894">
        <ele>2158</ele>
        <time>2014-05-17T05:23:18Z</time>
      </trkpt>
      <trkpt lat="42.71715" lon="-0.059">
        <ele>2161</ele>
        <time>2014-05-17T05:23:38Z</time>
      </trkpt>
      <trkpt lat="42.71703" lon="-0.05896">
        <ele>2164</ele>
        <time>2014-05-17T05:23:53Z</time>
      </trkpt>
      <trkpt lat="42.71693" lon="-0.05896">
        <ele>2167</ele>
        <time>2014-05-17T05:24:08Z</time>
      </trkpt>
      <trkpt lat="42.71679" lon="-0.05895">
        <ele>2169</ele>
        <time>2014-05-17T05:24:25Z</time>
      </trkpt>
      <trkpt lat="42.71669" lon="-0.05895">
        <ele>2172</ele>
        <time>2014-05-17T05:24:37Z</time>
      </trkpt>
      <trkpt lat="42.71657" lon="-0.05892">
        <ele>2175</ele>
        <time>2014-05-17T05:24:54Z</time>
      </trkpt>
      <trkpt lat="42.71646" lon="-0.05876">
        <ele>2178</ele>
        <time>2014-05-17T05:25:13Z</time>
      </trkpt>
      <trkpt lat="42.71638" lon="-0.05877">
        <ele>2180</ele>
        <time>2014-05-17T05:25:30Z</time>
      </trkpt>
      <trkpt lat="42.71639" lon="-0.05897">
        <ele>2184</ele>
        <time>2014-05-17T05:25:47Z</time>
      </trkpt>
      <trkpt lat="42.7164" lon="-0.0591">
        <ele>2187</ele>
        <time>2014-05-17T05:26:00Z</time>
      </trkpt>
      <trkpt lat="42.71636" lon="-0.0593">
        <ele>2190</ele>
        <time>2014-05-17T05:26:18Z</time>
      </trkpt>
      <trkpt lat="42.71632" lon="-0.05946">
        <ele>2192</ele>
        <time>2014-05-17T05:26:34Z</time>
      </trkpt>
      <trkpt lat="42.71624" lon="-0.05955">
        <ele>2195</ele>
        <time>2014-05-17T05:26:50Z</time>
      </trkpt>
      <trkpt lat="42.71613" lon="-0.05965">
        <ele>2198</ele>
        <time>2014-05-17T05:27:07Z</time>
      </trkpt>
      <trkpt lat="42.71601" lon="-0.05973">
        <ele>2202</ele>
        <time>2014-05-17T05:27:23Z</time>
      </trkpt>
      <trkpt lat="42.71588" lon="-0.0598">
        <ele>2204</ele>
        <time>2014-05-17T05:27:43Z</time>
      </trkpt>
      <trkpt lat="42.71577" lon="-0.05987">
        <ele>2206</ele>
        <time>2014-05-17T05:28:01Z</time>
      </trkpt>
      <trkpt lat="42.71577" lon="-0.05999">
        <ele>2208</ele>
        <time>2014-05-17T05:28:13Z</time>
      </trkpt>
      <trkpt lat="42.71581" lon="-0.06011">
        <ele>2212</ele>
        <time>2014-05-17T05:28:28Z</time>
      </trkpt>
      <trkpt lat="42.71573" lon="-0.06028">
        <ele>2215</ele>
        <time>2014-05-17T05:28:47Z</time>
      </trkpt>
      <trkpt lat="42.7157" lon="-0.06042">
        <ele>2217</ele>
        <time>2014-05-17T05:29:03Z</time>
      </trkpt>
      <trkpt lat="42.71577" lon="-0.06052">
        <ele>2220</ele>
        <time>2014-05-17T05:29:18Z</time>
      </trkpt>
      <trkpt lat="42.71575" lon="-0.06068">
        <ele>2223</ele>
        <time>2014-05-17T05:29:34Z</time>
      </trkpt>
      <trkpt lat="42.71574" lon="-0.06084">
        <ele>2225</ele>
        <time>2014-05-17T05:29:52Z</time>
      </trkpt>
      <trkpt lat="42.71578" lon="-0.06099">
        <ele>2228</ele>
        <time>2014-05-17T05:30:07Z</time>
      </trkpt>
      <trkpt lat="42.71581" lon="-0.06118">
        <ele>2231</ele>
        <time>2014-05-17T05:30:24Z</time>
      </trkpt>
      <trkpt lat="42.71582" lon="-0.06132">
        <ele>2235</ele>
        <time>2014-05-17T05:30:43Z</time>
      </trkpt>
      <trkpt lat="42.71572" lon="-0.06146">
        <ele>2237</ele>
        <time>2014-05-17T05:30:59Z</time>
      </trkpt>
      <trkpt lat="42.71568" lon="-0.06155">
        <ele>2236</ele>
        <time>2014-05-17T05:31:14Z</time>
      </trkpt>
      <trkpt lat="42.71561" lon="-0.06171">
        <ele>2235</ele>
        <time>2014-05-17T05:31:31Z</time>
      </trkpt>
      <trkpt lat="42.71565" lon="-0.06187">
        <ele>2235</ele>
        <time>2014-05-17T05:31:49Z</time>
      </trkpt>
      <trkpt lat="42.71571" lon="-0.06201">
        <ele>2235</ele>
        <time>2014-05-17T05:32:06Z</time>
      </trkpt>
      <trkpt lat="42.7157" lon="-0.06211">
        <ele>2236</ele>
        <time>2014-05-17T05:32:23Z</time>
      </trkpt>
      <trkpt lat="42.71569" lon="-0.06217">
        <ele>2235</ele>
        <time>2014-05-17T05:32:37Z</time>
      </trkpt>
      <trkpt lat="42.71565" lon="-0.06231">
        <ele>2237</ele>
        <time>2014-05-17T05:32:52Z</time>
      </trkpt>
      <trkpt lat="42.71564" lon="-0.06238">
        <ele>2236</ele>
        <time>2014-05-17T05:32:59Z</time>
      </trkpt>
      <trkpt lat="42.71556" lon="-0.0626">
        <ele>2238</ele>
        <time>2014-05-17T05:33:17Z</time>
      </trkpt>
      <trkpt lat="42.71555" lon="-0.06264">
        <ele>2237</ele>
        <time>2014-05-17T05:33:20Z</time>
      </trkpt>
      <trkpt lat="42.71544" lon="-0.06279">
        <ele>2240</ele>
        <time>2014-05-17T05:33:39Z</time>
      </trkpt>
      <trkpt lat="42.71539" lon="-0.06288">
        <ele>2240</ele>
        <time>2014-05-17T05:33:58Z</time>
      </trkpt>
      <trkpt lat="42.71533" lon="-0.06302">
        <ele>2241</ele>
        <time>2014-05-17T05:34:15Z</time>
      </trkpt>
      <trkpt lat="42.71522" lon="-0.06322">
        <ele>2244</ele>
        <time>2014-05-17T05:34:35Z</time>
      </trkpt>
      <trkpt lat="42.71511" lon="-0.06335">
        <ele>2247</ele>
        <time>2014-05-17T05:34:51Z</time>
      </trkpt>
      <trkpt lat="42.71497" lon="-0.06346">
        <ele>2248</ele>
        <time>2014-05-17T05:35:07Z</time>
      </trkpt>
      <trkpt lat="42.71481" lon="-0.06351">
        <ele>2250</ele>
        <time>2014-05-17T05:35:22Z</time>
      </trkpt>
      <trkpt lat="42.71473" lon="-0.06354">
        <ele>2252</ele>
        <time>2014-05-17T05:35:36Z</time>
      </trkpt>
      <trkpt lat="42.71459" lon="-0.06357">
        <ele>2255</ele>
        <time>2014-05-17T05:35:53Z</time>
      </trkpt>
      <trkpt lat="42.71446" lon="-0.0636">
        <ele>2257</ele>
        <time>2014-05-17T05:36:10Z</time>
      </trkpt>
      <trkpt lat="42.71433" lon="-0.06363">
        <ele>2258</ele>
        <time>2014-05-17T05:36:27Z</time>
      </trkpt>
      <trkpt lat="42.71424" lon="-0.06362">
        <ele>2258</ele>
        <time>2014-05-17T05:36:42Z</time>
      </trkpt>
      <trkpt lat="42.71414" lon="-0.06369">
        <ele>2260</ele>
        <time>2014-05-17T05:36:57Z</time>
      </trkpt>
      <trkpt lat="42.71406" lon="-0.06372">
        <ele>2262</ele>
        <time>2014-05-17T05:37:13Z</time>
      </trkpt>
      <trkpt lat="42.71397" lon="-0.06371">
        <ele>2264</ele>
        <time>2014-05-17T05:37:28Z</time>
      </trkpt>
      <trkpt lat="42.71386" lon="-0.06377">
        <ele>2265</ele>
        <time>2014-05-17T05:37:47Z</time>
      </trkpt>
      <trkpt lat="42.71378" lon="-0.06379">
        <ele>2267</ele>
        <time>2014-05-17T05:38:02Z</time>
      </trkpt>
      <trkpt lat="42.71369" lon="-0.06382">
        <ele>2269</ele>
        <time>2014-05-17T05:38:19Z</time>
      </trkpt>
      <trkpt lat="42.71362" lon="-0.06387">
        <ele>2272</ele>
        <time>2014-05-17T05:38:32Z</time>
      </trkpt>
      <trkpt lat="42.71353" lon="-0.06391">
        <ele>2274</ele>
        <time>2014-05-17T05:38:47Z</time>
      </trkpt>
      <trkpt lat="42.71345" lon="-0.06391">
        <ele>2276</ele>
        <time>2014-05-17T05:39:00Z</time>
      </trkpt>
      <trkpt lat="42.71337" lon="-0.06389">
        <ele>2277</ele>
        <time>2014-05-17T05:39:15Z</time>
      </trkpt>
      <trkpt lat="42.71345" lon="-0.06381">
        <ele>2278</ele>
        <time>2014-05-17T05:39:37Z</time>
      </trkpt>
      <trkpt lat="42.7135" lon="-0.06393">
        <ele>2280</ele>
        <time>2014-05-17T05:40:00Z</time>
      </trkpt>
      <trkpt lat="42.71359" lon="-0.06394">
        <ele>2283</ele>
        <time>2014-05-17T05:40:16Z</time>
      </trkpt>
      <trkpt lat="42.71365" lon="-0.06396">
        <ele>2284</ele>
        <time>2014-05-17T05:40:34Z</time>
      </trkpt>
      <trkpt lat="42.71358" lon="-0.06399">
        <ele>2286</ele>
        <time>2014-05-17T05:40:51Z</time>
      </trkpt>
      <trkpt lat="42.7135" lon="-0.0641">
        <ele>2289</ele>
        <time>2014-05-17T05:41:05Z</time>
      </trkpt>
      <trkpt lat="42.71348" lon="-0.06403">
        <ele>2291</ele>
        <time>2014-05-17T05:41:19Z</time>
      </trkpt>
      <trkpt lat="42.71345" lon="-0.06402">
        <ele>2292</ele>
        <time>2014-05-17T05:41:35Z</time>
      </trkpt>
      <trkpt lat="42.71341" lon="-0.06401">
        <ele>2293</ele>
        <time>2014-05-17T05:41:51Z</time>
      </trkpt>
      <trkpt lat="42.71339" lon="-0.06398">
        <ele>2294</ele>
        <time>2014-05-17T05:42:14Z</time>
      </trkpt>
      <trkpt lat="42.71341" lon="-0.06399">
        <ele>2294</ele>
        <time>2014-05-17T05:42:31Z</time>
      </trkpt>
      <trkpt lat="42.71335" lon="-0.06406">
        <ele>2296</ele>
        <time>2014-05-17T05:42:52Z</time>
      </trkpt>
      <trkpt lat="42.71331" lon="-0.06408">
        <ele>2297</ele>
        <time>2014-05-17T05:43:08Z</time>
      </trkpt>
      <trkpt lat="42.71324" lon="-0.06411">
        <ele>2300</ele>
        <time>2014-05-17T05:43:24Z</time>
      </trkpt>
      <trkpt lat="42.7132" lon="-0.06415">
        <ele>2302</ele>
        <time>2014-05-17T05:43:45Z</time>
      </trkpt>
      <trkpt lat="42.71315" lon="-0.06418">
        <ele>2304</ele>
        <time>2014-05-17T05:44:01Z</time>
      </trkpt>
      <trkpt lat="42.71304" lon="-0.06416">
        <ele>2307</ele>
        <time>2014-05-17T05:44:20Z</time>
      </trkpt>
      <trkpt lat="42.71295" lon="-0.06411">
        <ele>2310</ele>
        <time>2014-05-17T05:44:39Z</time>
      </trkpt>
      <trkpt lat="42.71293" lon="-0.06408">
        <ele>2312</ele>
        <time>2014-05-17T05:44:55Z</time>
      </trkpt>
      <trkpt lat="42.71286" lon="-0.06407">
        <ele>2314</ele>
        <time>2014-05-17T05:45:10Z</time>
      </trkpt>
      <trkpt lat="42.71283" lon="-0.06403">
        <ele>2315</ele>
        <time>2014-05-17T05:45:27Z</time>
      </trkpt>
      <trkpt lat="42.71279" lon="-0.064">
        <ele>2317</ele>
        <time>2014-05-17T05:45:44Z</time>
      </trkpt>
      <trkpt lat="42.71272" lon="-0.06401">
        <ele>2319</ele>
        <time>2014-05-17T05:45:58Z</time>
      </trkpt>
      <trkpt lat="42.71264" lon="-0.06399">
        <ele>2322</ele>
        <time>2014-05-17T05:46:13Z</time>
      </trkpt>
      <trkpt lat="42.71265" lon="-0.06407">
        <ele>2323</ele>
        <time>2014-05-17T05:46:32Z</time>
      </trkpt>
      <trkpt lat="42.71269" lon="-0.06428">
        <ele>2326</ele>
        <time>2014-05-17T05:46:47Z</time>
      </trkpt>
      <trkpt lat="42.71268" lon="-0.06425">
        <ele>2327</ele>
        <time>2014-05-17T05:47:06Z</time>
      </trkpt>
      <trkpt lat="42.71263" lon="-0.06414">
        <ele>2330</ele>
        <time>2014-05-17T05:47:21Z</time>
      </trkpt>
      <trkpt lat="42.71259" lon="-0.0641">
        <ele>2333</ele>
        <time>2014-05-17T05:47:40Z</time>
      </trkpt>
      <trkpt lat="42.71264" lon="-0.06416">
        <ele>2334</ele>
        <time>2014-05-17T05:47:51Z</time>
      </trkpt>
      <trkpt lat="42.71271" lon="-0.06443">
        <ele>2337</ele>
        <time>2014-05-17T05:48:07Z</time>
      </trkpt>
      <trkpt lat="42.71274" lon="-0.06451">
        <ele>2338</ele>
        <time>2014-05-17T05:48:13Z</time>
      </trkpt>
      <trkpt lat="42.7128" lon="-0.06469">
        <ele>2341</ele>
        <time>2014-05-17T05:48:29Z</time>
      </trkpt>
      <trkpt lat="42.71284" lon="-0.06476">
        <ele>2341</ele>
        <time>2014-05-17T05:48:38Z</time>
      </trkpt>
      <trkpt lat="42.71297" lon="-0.06494">
        <ele>2342</ele>
        <time>2014-05-17T05:48:57Z</time>
      </trkpt>
      <trkpt lat="42.71299" lon="-0.06494">
        <ele>2341</ele>
        <time>2014-05-17T05:49:13Z</time>
      </trkpt>
      <trkpt lat="42.71301" lon="-0.06497">
        <ele>2342</ele>
        <time>2014-05-17T05:49:32Z</time>
      </trkpt>
      <trkpt lat="42.71306" lon="-0.06508">
        <ele>2339</ele>
        <time>2014-05-17T05:49:44Z</time>
      </trkpt>
      <trkpt lat="42.71314" lon="-0.0653">
        <ele>2335</ele>
        <time>2014-05-17T05:49:58Z</time>
      </trkpt>
      <trkpt lat="42.71327" lon="-0.06559">
        <ele>2332</ele>
        <time>2014-05-17T05:50:13Z</time>
      </trkpt>
      <trkpt lat="42.71335" lon="-0.06586">
        <ele>2330</ele>
        <time>2014-05-17T05:50:29Z</time>
      </trkpt>
      <trkpt lat="42.71332" lon="-0.06589">
        <ele>2330</ele>
        <time>2014-05-17T05:50:42Z</time>
      </trkpt>
      <trkpt lat="42.71328" lon="-0.06587">
        <ele>2328</ele>
        <time>2014-05-17T05:50:45Z</time>
      </trkpt>
      <trkpt lat="42.71323" lon="-0.06585">
        <ele>2327</ele>
        <time>2014-05-17T05:50:48Z</time>
      </trkpt>
      <trkpt lat="42.71312" lon="-0.06579">
        <ele>2324</ele>
        <time>2014-05-17T05:50:54Z</time>
      </trkpt>
      <trkpt lat="42.7131" lon="-0.06579">
        <ele>2324</ele>
        <time>2014-05-17T05:50:55Z</time>
      </trkpt>
      <trkpt lat="42.71306" lon="-0.06578">
        <ele>2322</ele>
        <time>2014-05-17T05:50:57Z</time>
      </trkpt>
      <trkpt lat="42.71295" lon="-0.06578">
        <ele>2318</ele>
        <time>2014-05-17T05:51:04Z</time>
      </trkpt>
      <trkpt lat="42.71293" lon="-0.06578">
        <ele>2318</ele>
        <time>2014-05-17T05:51:05Z</time>
      </trkpt>
      <trkpt lat="42.7128" lon="-0.0658">
        <ele>2315</ele>
        <time>2014-05-17T05:51:18Z</time>
      </trkpt>
      <trkpt lat="42.71271" lon="-0.06578">
        <ele>2314</ele>
        <time>2014-05-17T05:51:30Z</time>
      </trkpt>
      <trkpt lat="42.71271" lon="-0.06581">
        <ele>2313</ele>
        <time>2014-05-17T05:51:34Z</time>
      </trkpt>
      <trkpt lat="42.71274" lon="-0.0659">
        <ele>2311</ele>
        <time>2014-05-17T05:51:38Z</time>
      </trkpt>
      <trkpt lat="42.71278" lon="-0.06599">
        <ele>2310</ele>
        <time>2014-05-17T05:51:41Z</time>
      </trkpt>
      <trkpt lat="42.71292" lon="-0.06617">
        <ele>2308</ele>
        <time>2014-05-17T05:51:54Z</time>
      </trkpt>
      <trkpt lat="42.71294" lon="-0.06627">
        <ele>2308</ele>
        <time>2014-05-17T05:52:08Z</time>
      </trkpt>
      <trkpt lat="42.71302" lon="-0.06644">
        <ele>2309</ele>
        <time>2014-05-17T05:52:23Z</time>
      </trkpt>
      <trkpt lat="42.71303" lon="-0.06646">
        <ele>2309</ele>
        <time>2014-05-17T05:52:25Z</time>
      </trkpt>
      <trkpt lat="42.71313" lon="-0.06666">
        <ele>2309</ele>
        <time>2014-05-17T05:52:40Z</time>
      </trkpt>
      <trkpt lat="42.71321" lon="-0.06672">
        <ele>2310</ele>
        <time>2014-05-17T05:52:55Z</time>
      </trkpt>
      <trkpt lat="42.71328" lon="-0.06678">
        <ele>2311</ele>
        <time>2014-05-17T05:53:14Z</time>
      </trkpt>
      <trkpt lat="42.71331" lon="-0.06692">
        <ele>2308</ele>
        <time>2014-05-17T05:53:22Z</time>
      </trkpt>
      <trkpt lat="42.71336" lon="-0.06711">
        <ele>2304</ele>
        <time>2014-05-17T05:53:32Z</time>
      </trkpt>
      <trkpt lat="42.71343" lon="-0.06729">
        <ele>2302</ele>
        <time>2014-05-17T05:53:43Z</time>
      </trkpt>
      <trkpt lat="42.71345" lon="-0.06736">
        <ele>2300</ele>
        <time>2014-05-17T05:53:46Z</time>
      </trkpt>
      <trkpt lat="42.71351" lon="-0.06758">
        <ele>2297</ele>
        <time>2014-05-17T05:53:54Z</time>
      </trkpt>
      <trkpt lat="42.7136" lon="-0.06785">
        <ele>2295</ele>
        <time>2014-05-17T05:54:08Z</time>
      </trkpt>
      <trkpt lat="42.71364" lon="-0.06803">
        <ele>2298</ele>
        <time>2014-05-17T05:54:19Z</time>
      </trkpt>
      <trkpt lat="42.71371" lon="-0.0683">
        <ele>2297</ele>
        <time>2014-05-17T05:54:36Z</time>
      </trkpt>
      <trkpt lat="42.71373" lon="-0.06858">
        <ele>2296</ele>
        <time>2014-05-17T05:54:51Z</time>
      </trkpt>
      <trkpt lat="42.71377" lon="-0.06887">
        <ele>2295</ele>
        <time>2014-05-17T05:55:07Z</time>
      </trkpt>
      <trkpt lat="42.71379" lon="-0.06891">
        <ele>2295</ele>
        <time>2014-05-17T05:55:09Z</time>
      </trkpt>
      <trkpt lat="42.71375" lon="-0.06915">
        <ele>2295</ele>
        <time>2014-05-17T05:55:24Z</time>
      </trkpt>
      <trkpt lat="42.71357" lon="-0.06946">
        <ele>2297</ele>
        <time>2014-05-17T05:55:44Z</time>
      </trkpt>
      <trkpt lat="42.71353" lon="-0.06952">
        <ele>2296</ele>
        <time>2014-05-17T05:55:47Z</time>
      </trkpt>
      <trkpt lat="42.71346" lon="-0.06969">
        <ele>2295</ele>
        <time>2014-05-17T05:56:01Z</time>
      </trkpt>
      <trkpt lat="42.71343" lon="-0.06983">
        <ele>2296</ele>
        <time>2014-05-17T05:56:15Z</time>
      </trkpt>
      <trkpt lat="42.71334" lon="-0.07001">
        <ele>2297</ele>
        <time>2014-05-17T05:56:33Z</time>
      </trkpt>
      <trkpt lat="42.71327" lon="-0.07017">
        <ele>2297</ele>
        <time>2014-05-17T05:56:50Z</time>
      </trkpt>
      <trkpt lat="42.71322" lon="-0.07034">
        <ele>2297</ele>
        <time>2014-05-17T05:57:07Z</time>
      </trkpt>
      <trkpt lat="42.71321" lon="-0.07038">
        <ele>2297</ele>
        <time>2014-05-17T05:57:10Z</time>
      </trkpt>
      <trkpt lat="42.71318" lon="-0.07056">
        <ele>2296</ele>
        <time>2014-05-17T05:57:26Z</time>
      </trkpt>
      <trkpt lat="42.7132" lon="-0.07076">
        <ele>2296</ele>
        <time>2014-05-17T05:57:43Z</time>
      </trkpt>
      <trkpt lat="42.71316" lon="-0.07095">
        <ele>2295</ele>
        <time>2014-05-17T05:57:59Z</time>
      </trkpt>
      <trkpt lat="42.71313" lon="-0.07118">
        <ele>2294</ele>
        <time>2014-05-17T05:58:17Z</time>
      </trkpt>
      <trkpt lat="42.71305" lon="-0.07143">
        <ele>2294</ele>
        <time>2014-05-17T05:58:35Z</time>
      </trkpt>
      <trkpt lat="42.71299" lon="-0.07161">
        <ele>2295</ele>
        <time>2014-05-17T05:58:51Z</time>
      </trkpt>
      <trkpt lat="42.71295" lon="-0.07164">
        <ele>2294</ele>
        <time>2014-05-17T05:58:56Z</time>
      </trkpt>
      <trkpt lat="42.71284" lon="-0.07174">
        <ele>2291</ele>
        <time>2014-05-17T05:59:07Z</time>
      </trkpt>
      <trkpt lat="42.7128" lon="-0.07185">
        <ele>2291</ele>
        <time>2014-05-17T05:59:21Z</time>
      </trkpt>
      <trkpt lat="42.71278" lon="-0.07204">
        <ele>2292</ele>
        <time>2014-05-17T05:59:36Z</time>
      </trkpt>
      <trkpt lat="42.71276" lon="-0.07227">
        <ele>2291</ele>
        <time>2014-05-17T05:59:53Z</time>
      </trkpt>
      <trkpt lat="42.71275" lon="-0.07241">
        <ele>2291</ele>
        <time>2014-05-17T06:00:08Z</time>
      </trkpt>
      <trkpt lat="42.71275" lon="-0.07251">
        <ele>2290</ele>
        <time>2014-05-17T06:00:32Z</time>
      </trkpt>
      <trkpt lat="42.71271" lon="-0.0727">
        <ele>2290</ele>
        <time>2014-05-17T06:00:49Z</time>
      </trkpt>
      <trkpt lat="42.71266" lon="-0.07286">
        <ele>2290</ele>
        <time>2014-05-17T06:01:03Z</time>
      </trkpt>
      <trkpt lat="42.7126" lon="-0.07307">
        <ele>2289</ele>
        <time>2014-05-17T06:01:20Z</time>
      </trkpt>
      <trkpt lat="42.71253" lon="-0.07323">
        <ele>2289</ele>
        <time>2014-05-17T06:01:35Z</time>
      </trkpt>
      <trkpt lat="42.71248" lon="-0.07342">
        <ele>2288</ele>
        <time>2014-05-17T06:01:51Z</time>
      </trkpt>
      <trkpt lat="42.71239" lon="-0.07365">
        <ele>2286</ele>
        <time>2014-05-17T06:02:10Z</time>
      </trkpt>
      <trkpt lat="42.71232" lon="-0.07383">
        <ele>2285</ele>
        <time>2014-05-17T06:02:26Z</time>
      </trkpt>
      <trkpt lat="42.71231" lon="-0.07403">
        <ele>2284</ele>
        <time>2014-05-17T06:02:43Z</time>
      </trkpt>
      <trkpt lat="42.71229" lon="-0.07409">
        <ele>2283</ele>
        <time>2014-05-17T06:02:57Z</time>
      </trkpt>
      <trkpt lat="42.71227" lon="-0.07415">
        <ele>2283</ele>
        <time>2014-05-17T06:03:10Z</time>
      </trkpt>
      <trkpt lat="42.71224" lon="-0.07422">
        <ele>2282</ele>
        <time>2014-05-17T06:03:27Z</time>
      </trkpt>
      <trkpt lat="42.71225" lon="-0.07443">
        <ele>2283</ele>
        <time>2014-05-17T06:03:45Z</time>
      </trkpt>
      <trkpt lat="42.71225" lon="-0.07466">
        <ele>2284</ele>
        <time>2014-05-17T06:04:03Z</time>
      </trkpt>
      <trkpt lat="42.71224" lon="-0.07484">
        <ele>2285</ele>
        <time>2014-05-17T06:04:20Z</time>
      </trkpt>
      <trkpt lat="42.71223" lon="-0.075">
        <ele>2286</ele>
        <time>2014-05-17T06:04:35Z</time>
      </trkpt>
      <trkpt lat="42.71219" lon="-0.07519">
        <ele>2288</ele>
        <time>2014-05-17T06:04:52Z</time>
      </trkpt>
      <trkpt lat="42.71218" lon="-0.07537">
        <ele>2290</ele>
        <time>2014-05-17T06:05:07Z</time>
      </trkpt>
      <trkpt lat="42.7122" lon="-0.07558">
        <ele>2290</ele>
        <time>2014-05-17T06:05:23Z</time>
      </trkpt>
      <trkpt lat="42.7122" lon="-0.07573">
        <ele>2289</ele>
        <time>2014-05-17T06:05:38Z</time>
      </trkpt>
      <trkpt lat="42.7122" lon="-0.07581">
        <ele>2289</ele>
        <time>2014-05-17T06:05:55Z</time>
      </trkpt>
      <trkpt lat="42.71217" lon="-0.07578">
        <ele>2289</ele>
        <time>2014-05-17T06:06:08Z</time>
      </trkpt>
      <trkpt lat="42.71209" lon="-0.07574">
        <ele>2286</ele>
        <time>2014-05-17T06:06:12Z</time>
      </trkpt>
      <trkpt lat="42.71193" lon="-0.07564">
        <ele>2283</ele>
        <time>2014-05-17T06:06:19Z</time>
      </trkpt>
      <trkpt lat="42.71184" lon="-0.07561">
        <ele>2281</ele>
        <time>2014-05-17T06:06:23Z</time>
      </trkpt>
      <trkpt lat="42.71182" lon="-0.07556">
        <ele>2279</ele>
        <time>2014-05-17T06:06:29Z</time>
      </trkpt>
      <trkpt lat="42.71185" lon="-0.07564">
        <ele>2280</ele>
        <time>2014-05-17T06:06:44Z</time>
      </trkpt>
      <trkpt lat="42.71186" lon="-0.07565">
        <ele>2280</ele>
        <time>2014-05-17T06:06:46Z</time>
      </trkpt>
      <trkpt lat="42.71197" lon="-0.07589">
        <ele>2278</ele>
        <time>2014-05-17T06:07:02Z</time>
      </trkpt>
      <trkpt lat="42.71211" lon="-0.07616">
        <ele>2276</ele>
        <time>2014-05-17T06:07:18Z</time>
      </trkpt>
      <trkpt lat="42.71215" lon="-0.07641">
        <ele>2274</ele>
        <time>2014-05-17T06:07:29Z</time>
      </trkpt>
      <trkpt lat="42.71215" lon="-0.07663">
        <ele>2273</ele>
        <time>2014-05-17T06:07:43Z</time>
      </trkpt>
      <trkpt lat="42.71217" lon="-0.07682">
        <ele>2274</ele>
        <time>2014-05-17T06:07:57Z</time>
      </trkpt>
      <trkpt lat="42.71211" lon="-0.07702">
        <ele>2276</ele>
        <time>2014-05-17T06:08:15Z</time>
      </trkpt>
      <trkpt lat="42.71206" lon="-0.07707">
        <ele>2275</ele>
        <time>2014-05-17T06:08:32Z</time>
      </trkpt>
      <trkpt lat="42.71207" lon="-0.07704">
        <ele>2276</ele>
        <time>2014-05-17T06:08:56Z</time>
      </trkpt>
      <trkpt lat="42.71202" lon="-0.07696">
        <ele>2275</ele>
        <time>2014-05-17T06:09:19Z</time>
      </trkpt>
      <trkpt lat="42.71206" lon="-0.07705">
        <ele>2275</ele>
        <time>2014-05-17T06:09:38Z</time>
      </trkpt>
      <trkpt lat="42.71206" lon="-0.07708">
        <ele>2276</ele>
        <time>2014-05-17T06:10:04Z</time>
      </trkpt>
      <trkpt lat="42.71206" lon="-0.07709">
        <ele>2276</ele>
        <time>2014-05-17T06:10:26Z</time>
      </trkpt>
      <trkpt lat="42.71204" lon="-0.07712">
        <ele>2277</ele>
        <time>2014-05-17T06:10:51Z</time>
      </trkpt>
      <trkpt lat="42.71204" lon="-0.07724">
        <ele>2280</ele>
        <time>2014-05-17T06:11:11Z</time>
      </trkpt>
      <trkpt lat="42.71203" lon="-0.07738">
        <ele>2283</ele>
        <time>2014-05-17T06:11:26Z</time>
      </trkpt>
      <trkpt lat="42.71198" lon="-0.07748">
        <ele>2285</ele>
        <time>2014-05-17T06:11:42Z</time>
      </trkpt>
      <trkpt lat="42.71201" lon="-0.07757">
        <ele>2287</ele>
        <time>2014-05-17T06:11:57Z</time>
      </trkpt>
      <trkpt lat="42.712" lon="-0.07764">
        <ele>2290</ele>
        <time>2014-05-17T06:12:04Z</time>
      </trkpt>
      <trkpt lat="42.71206" lon="-0.07781">
        <ele>2290</ele>
        <time>2014-05-17T06:12:23Z</time>
      </trkpt>
      <trkpt lat="42.71209" lon="-0.07797">
        <ele>2292</ele>
        <time>2014-05-17T06:12:41Z</time>
      </trkpt>
      <trkpt lat="42.71213" lon="-0.0781">
        <ele>2294</ele>
        <time>2014-05-17T06:12:58Z</time>
      </trkpt>
      <trkpt lat="42.71215" lon="-0.0782">
        <ele>2296</ele>
        <time>2014-05-17T06:13:16Z</time>
      </trkpt>
      <trkpt lat="42.71217" lon="-0.07831">
        <ele>2296</ele>
        <time>2014-05-17T06:13:36Z</time>
      </trkpt>
      <trkpt lat="42.71211" lon="-0.07852">
        <ele>2296</ele>
        <time>2014-05-17T06:13:56Z</time>
      </trkpt>
      <trkpt lat="42.71208" lon="-0.07865">
        <ele>2298</ele>
        <time>2014-05-17T06:14:11Z</time>
      </trkpt>
      <trkpt lat="42.71207" lon="-0.0787">
        <ele>2298</ele>
        <time>2014-05-17T06:14:15Z</time>
      </trkpt>
      <trkpt lat="42.71199" lon="-0.07892">
        <ele>2299</ele>
        <time>2014-05-17T06:14:32Z</time>
      </trkpt>
      <trkpt lat="42.71198" lon="-0.07896">
        <ele>2299</ele>
        <time>2014-05-17T06:14:35Z</time>
      </trkpt>
      <trkpt lat="42.71197" lon="-0.07907">
        <ele>2300</ele>
        <time>2014-05-17T06:14:44Z</time>
      </trkpt>
      <trkpt lat="42.71197" lon="-0.07915">
        <ele>2302</ele>
        <time>2014-05-17T06:14:55Z</time>
      </trkpt>
      <trkpt lat="42.71196" lon="-0.07913">
        <ele>2302</ele>
        <time>2014-05-17T06:15:12Z</time>
      </trkpt>
      <trkpt lat="42.71194" lon="-0.07916">
        <ele>2302</ele>
        <time>2014-05-17T06:15:34Z</time>
      </trkpt>
      <trkpt lat="42.71196" lon="-0.07922">
        <ele>2302</ele>
        <time>2014-05-17T06:16:04Z</time>
      </trkpt>
      <trkpt lat="42.71195" lon="-0.07924">
        <ele>2302</ele>
        <time>2014-05-17T06:16:35Z</time>
      </trkpt>
      <trkpt lat="42.71197" lon="-0.07924">
        <ele>2304</ele>
        <time>2014-05-17T06:16:56Z</time>
      </trkpt>
      <trkpt lat="42.71196" lon="-0.07922">
        <ele>2303</ele>
        <time>2014-05-17T06:17:03Z</time>
      </trkpt>
      <trkpt lat="42.71196" lon="-0.0792">
        <ele>2302</ele>
        <time>2014-05-17T06:17:25Z</time>
      </trkpt>
      <trkpt lat="42.712" lon="-0.07921">
        <ele>2302</ele>
        <time>2014-05-17T06:17:42Z</time>
      </trkpt>
      <trkpt lat="42.712" lon="-0.07921">
        <ele>2302</ele>
        <time>2014-05-17T06:18:06Z</time>
      </trkpt>
      <trkpt lat="42.71198" lon="-0.07927">
        <ele>2302</ele>
        <time>2014-05-17T06:18:25Z</time>
      </trkpt>
      <trkpt lat="42.71196" lon="-0.07932">
        <ele>2302</ele>
        <time>2014-05-17T06:18:34Z</time>
      </trkpt>
      <trkpt lat="42.71198" lon="-0.07952">
        <ele>2302</ele>
        <time>2014-05-17T06:18:47Z</time>
      </trkpt>
      <trkpt lat="42.71199" lon="-0.07956">
        <ele>2304</ele>
        <time>2014-05-17T06:18:51Z</time>
      </trkpt>
      <trkpt lat="42.71199" lon="-0.07967">
        <ele>2305</ele>
        <time>2014-05-17T06:19:05Z</time>
      </trkpt>
      <trkpt lat="42.71202" lon="-0.0798">
        <ele>2304</ele>
        <time>2014-05-17T06:19:23Z</time>
      </trkpt>
      <trkpt lat="42.71206" lon="-0.08007">
        <ele>2305</ele>
        <time>2014-05-17T06:19:40Z</time>
      </trkpt>
      <trkpt lat="42.71205" lon="-0.08024">
        <ele>2307</ele>
        <time>2014-05-17T06:19:54Z</time>
      </trkpt>
      <trkpt lat="42.71203" lon="-0.08042">
        <ele>2308</ele>
        <time>2014-05-17T06:20:08Z</time>
      </trkpt>
      <trkpt lat="42.71203" lon="-0.08049">
        <ele>2309</ele>
        <time>2014-05-17T06:20:15Z</time>
      </trkpt>
      <trkpt lat="42.71197" lon="-0.08065">
        <ele>2309</ele>
        <time>2014-05-17T06:20:29Z</time>
      </trkpt>
      <trkpt lat="42.71191" lon="-0.08083">
        <ele>2310</ele>
        <time>2014-05-17T06:20:42Z</time>
      </trkpt>
      <trkpt lat="42.71188" lon="-0.08087">
        <ele>2311</ele>
        <time>2014-05-17T06:20:58Z</time>
      </trkpt>
      <trkpt lat="42.71187" lon="-0.08091">
        <ele>2311</ele>
        <time>2014-05-17T06:21:26Z</time>
      </trkpt>
      <trkpt lat="42.71185" lon="-0.08103">
        <ele>2314</ele>
        <time>2014-05-17T06:21:40Z</time>
      </trkpt>
      <trkpt lat="42.71183" lon="-0.0811">
        <ele>2316</ele>
        <time>2014-05-17T06:21:54Z</time>
      </trkpt>
      <trkpt lat="42.71181" lon="-0.08107">
        <ele>2316</ele>
        <time>2014-05-17T06:22:10Z</time>
      </trkpt>
      <trkpt lat="42.71182" lon="-0.08111">
        <ele>2317</ele>
        <time>2014-05-17T06:22:33Z</time>
      </trkpt>
      <trkpt lat="42.71187" lon="-0.08115">
        <ele>2317</ele>
        <time>2014-05-17T06:22:46Z</time>
      </trkpt>
      <trkpt lat="42.71194" lon="-0.08122">
        <ele>2319</ele>
        <time>2014-05-17T06:23:00Z</time>
      </trkpt>
      <trkpt lat="42.71195" lon="-0.0813">
        <ele>2321</ele>
        <time>2014-05-17T06:23:09Z</time>
      </trkpt>
      <trkpt lat="42.71197" lon="-0.08147">
        <ele>2323</ele>
        <time>2014-05-17T06:23:23Z</time>
      </trkpt>
      <trkpt lat="42.71202" lon="-0.0815">
        <ele>2325</ele>
        <time>2014-05-17T06:23:31Z</time>
      </trkpt>
      <trkpt lat="42.7121" lon="-0.08165">
        <ele>2327</ele>
        <time>2014-05-17T06:23:48Z</time>
      </trkpt>
      <trkpt lat="42.7121" lon="-0.08166">
        <ele>2328</ele>
        <time>2014-05-17T06:23:49Z</time>
      </trkpt>
      <trkpt lat="42.71214" lon="-0.08176">
        <ele>2330</ele>
        <time>2014-05-17T06:24:06Z</time>
      </trkpt>
      <trkpt lat="42.71219" lon="-0.08187">
        <ele>2334</ele>
        <time>2014-05-17T06:24:21Z</time>
      </trkpt>
      <trkpt lat="42.71224" lon="-0.08205">
        <ele>2335</ele>
        <time>2014-05-17T06:24:39Z</time>
      </trkpt>
      <trkpt lat="42.71228" lon="-0.08204">
        <ele>2335</ele>
        <time>2014-05-17T06:24:58Z</time>
      </trkpt>
      <trkpt lat="42.71227" lon="-0.08219">
        <ele>2337</ele>
        <time>2014-05-17T06:25:16Z</time>
      </trkpt>
      <trkpt lat="42.71229" lon="-0.08228">
        <ele>2339</ele>
        <time>2014-05-17T06:25:33Z</time>
      </trkpt>
      <trkpt lat="42.71229" lon="-0.08241">
        <ele>2341</ele>
        <time>2014-05-17T06:25:45Z</time>
      </trkpt>
      <trkpt lat="42.71229" lon="-0.08243">
        <ele>2343</ele>
        <time>2014-05-17T06:25:48Z</time>
      </trkpt>
      <trkpt lat="42.71228" lon="-0.08254">
        <ele>2346</ele>
        <time>2014-05-17T06:26:01Z</time>
      </trkpt>
      <trkpt lat="42.71229" lon="-0.08266">
        <ele>2349</ele>
        <time>2014-05-17T06:26:18Z</time>
      </trkpt>
      <trkpt lat="42.71229" lon="-0.08276">
        <ele>2352</ele>
        <time>2014-05-17T06:26:32Z</time>
      </trkpt>
      <trkpt lat="42.71228" lon="-0.08287">
        <ele>2354</ele>
        <time>2014-05-17T06:26:45Z</time>
      </trkpt>
      <trkpt lat="42.7122" lon="-0.08292">
        <ele>2357</ele>
        <time>2014-05-17T06:26:59Z</time>
      </trkpt>
      <trkpt lat="42.71212" lon="-0.08294">
        <ele>2359</ele>
        <time>2014-05-17T06:27:13Z</time>
      </trkpt>
      <trkpt lat="42.71207" lon="-0.08294">
        <ele>2363</ele>
        <time>2014-05-17T06:27:23Z</time>
      </trkpt>
      <trkpt lat="42.71203" lon="-0.08304">
        <ele>2364</ele>
        <time>2014-05-17T06:27:35Z</time>
      </trkpt>
      <trkpt lat="42.71198" lon="-0.08312">
        <ele>2365</ele>
        <time>2014-05-17T06:27:47Z</time>
      </trkpt>
      <trkpt lat="42.71193" lon="-0.0831">
        <ele>2365</ele>
        <time>2014-05-17T06:28:08Z</time>
      </trkpt>
      <trkpt lat="42.71186" lon="-0.08307">
        <ele>2367</ele>
        <time>2014-05-17T06:28:22Z</time>
      </trkpt>
      <trkpt lat="42.71186" lon="-0.08306">
        <ele>2367</ele>
        <time>2014-05-17T06:28:42Z</time>
      </trkpt>
      <trkpt lat="42.71186" lon="-0.08306">
        <ele>2368</ele>
        <time>2014-05-17T06:28:44Z</time>
      </trkpt>
      <trkpt lat="42.71188" lon="-0.0831">
        <ele>2368</ele>
        <time>2014-05-17T06:29:06Z</time>
      </trkpt>
      <trkpt lat="42.7119" lon="-0.08318">
        <ele>2370</ele>
        <time>2014-05-17T06:29:22Z</time>
      </trkpt>
      <trkpt lat="42.71196" lon="-0.08324">
        <ele>2371</ele>
        <time>2014-05-17T06:29:39Z</time>
      </trkpt>
      <trkpt lat="42.71207" lon="-0.08331">
        <ele>2371</ele>
        <time>2014-05-17T06:29:55Z</time>
      </trkpt>
      <trkpt lat="42.71215" lon="-0.08334">
        <ele>2374</ele>
        <time>2014-05-17T06:30:08Z</time>
      </trkpt>
      <trkpt lat="42.71223" lon="-0.08337">
        <ele>2376</ele>
        <time>2014-05-17T06:30:23Z</time>
      </trkpt>
      <trkpt lat="42.71231" lon="-0.08338">
        <ele>2376</ele>
        <time>2014-05-17T06:30:38Z</time>
      </trkpt>
      <trkpt lat="42.71235" lon="-0.08335">
        <ele>2379</ele>
        <time>2014-05-17T06:30:50Z</time>
      </trkpt>
      <trkpt lat="42.71245" lon="-0.08328">
        <ele>2381</ele>
        <time>2014-05-17T06:31:06Z</time>
      </trkpt>
      <trkpt lat="42.71259" lon="-0.08322">
        <ele>2382</ele>
        <time>2014-05-17T06:31:21Z</time>
      </trkpt>
      <trkpt lat="42.71273" lon="-0.08325">
        <ele>2383</ele>
        <time>2014-05-17T06:31:38Z</time>
      </trkpt>
      <trkpt lat="42.71288" lon="-0.08323">
        <ele>2385</ele>
        <time>2014-05-17T06:31:53Z</time>
      </trkpt>
      <trkpt lat="42.71291" lon="-0.08319">
        <ele>2387</ele>
        <time>2014-05-17T06:31:59Z</time>
      </trkpt>
      <trkpt lat="42.7129" lon="-0.08308">
        <ele>2389</ele>
        <time>2014-05-17T06:32:16Z</time>
      </trkpt>
      <trkpt lat="42.71298" lon="-0.08301">
        <ele>2392</ele>
        <time>2014-05-17T06:32:30Z</time>
      </trkpt>
      <trkpt lat="42.71304" lon="-0.08305">
        <ele>2393</ele>
        <time>2014-05-17T06:32:47Z</time>
      </trkpt>
      <trkpt lat="42.71311" lon="-0.08322">
        <ele>2395</ele>
        <time>2014-05-17T06:33:05Z</time>
      </trkpt>
      <trkpt lat="42.71319" lon="-0.0833">
        <ele>2398</ele>
        <time>2014-05-17T06:33:21Z</time>
      </trkpt>
      <trkpt lat="42.71323" lon="-0.08334">
        <ele>2401</ele>
        <time>2014-05-17T06:33:35Z</time>
      </trkpt>
      <trkpt lat="42.7133" lon="-0.08337">
        <ele>2404</ele>
        <time>2014-05-17T06:33:49Z</time>
      </trkpt>
      <trkpt lat="42.71339" lon="-0.08347">
        <ele>2405</ele>
        <time>2014-05-17T06:34:06Z</time>
      </trkpt>
      <trkpt lat="42.71349" lon="-0.08346">
        <ele>2409</ele>
        <time>2014-05-17T06:34:19Z</time>
      </trkpt>
      <trkpt lat="42.71351" lon="-0.08348">
        <ele>2410</ele>
        <time>2014-05-17T06:34:23Z</time>
      </trkpt>
      <trkpt lat="42.71361" lon="-0.08351">
        <ele>2412</ele>
        <time>2014-05-17T06:34:40Z</time>
      </trkpt>
      <trkpt lat="42.71365" lon="-0.08352">
        <ele>2415</ele>
        <time>2014-05-17T06:34:50Z</time>
      </trkpt>
      <trkpt lat="42.71365" lon="-0.08353">
        <ele>2416</ele>
        <time>2014-05-17T06:34:51Z</time>
      </trkpt>
      <trkpt lat="42.71373" lon="-0.08355">
        <ele>2416</ele>
        <time>2014-05-17T06:35:09Z</time>
      </trkpt>
      <trkpt lat="42.71375" lon="-0.08366">
        <ele>2421</ele>
        <time>2014-05-17T06:35:21Z</time>
      </trkpt>
      <trkpt lat="42.71375" lon="-0.08367">
        <ele>2421</ele>
        <time>2014-05-17T06:35:22Z</time>
      </trkpt>
      <trkpt lat="42.71373" lon="-0.08375">
        <ele>2420</ele>
        <time>2014-05-17T06:35:32Z</time>
      </trkpt>
      <trkpt lat="42.71372" lon="-0.08379">
        <ele>2423</ele>
        <time>2014-05-17T06:35:39Z</time>
      </trkpt>
      <trkpt lat="42.71367" lon="-0.08391">
        <ele>2426</ele>
        <time>2014-05-17T06:35:56Z</time>
      </trkpt>
      <trkpt lat="42.71367" lon="-0.08394">
        <ele>2427</ele>
        <time>2014-05-17T06:36:11Z</time>
      </trkpt>
      <trkpt lat="42.71375" lon="-0.08391">
        <ele>2428</ele>
        <time>2014-05-17T06:36:22Z</time>
      </trkpt>
      <trkpt lat="42.71385" lon="-0.08393">
        <ele>2429</ele>
        <time>2014-05-17T06:36:40Z</time>
      </trkpt>
      <trkpt lat="42.71392" lon="-0.08394">
        <ele>2432</ele>
        <time>2014-05-17T06:36:51Z</time>
      </trkpt>
      <trkpt lat="42.71399" lon="-0.08394">
        <ele>2435</ele>
        <time>2014-05-17T06:37:01Z</time>
      </trkpt>
      <trkpt lat="42.71404" lon="-0.08396">
        <ele>2439</ele>
        <time>2014-05-17T06:37:13Z</time>
      </trkpt>
      <trkpt lat="42.71406" lon="-0.08399">
        <ele>2439</ele>
        <time>2014-05-17T06:37:16Z</time>
      </trkpt>
      <trkpt lat="42.71412" lon="-0.08401">
        <ele>2442</ele>
        <time>2014-05-17T06:37:28Z</time>
      </trkpt>
      <trkpt lat="42.71422" lon="-0.08403">
        <ele>2443</ele>
        <time>2014-05-17T06:37:46Z</time>
      </trkpt>
      <trkpt lat="42.71424" lon="-0.08402">
        <ele>2443</ele>
        <time>2014-05-17T06:38:06Z</time>
      </trkpt>
      <trkpt lat="42.71424" lon="-0.08402">
        <ele>2445</ele>
        <time>2014-05-17T06:38:23Z</time>
      </trkpt>
      <trkpt lat="42.71423" lon="-0.08404">
        <ele>2445</ele>
        <time>2014-05-17T06:38:46Z</time>
      </trkpt>
      <trkpt lat="42.71425" lon="-0.08403">
        <ele>2444</ele>
        <time>2014-05-17T06:39:02Z</time>
      </trkpt>
      <trkpt lat="42.71433" lon="-0.08403">
        <ele>2445</ele>
        <time>2014-05-17T06:39:19Z</time>
      </trkpt>
      <trkpt lat="42.71446" lon="-0.08409">
        <ele>2446</ele>
        <time>2014-05-17T06:39:34Z</time>
      </trkpt>
      <trkpt lat="42.71447" lon="-0.0841">
        <ele>2445</ele>
        <time>2014-05-17T06:39:36Z</time>
      </trkpt>
      <trkpt lat="42.71453" lon="-0.08414">
        <ele>2446</ele>
        <time>2014-05-17T06:39:43Z</time>
      </trkpt>
      <trkpt lat="42.71458" lon="-0.08415">
        <ele>2446</ele>
        <time>2014-05-17T06:39:47Z</time>
      </trkpt>
      <trkpt lat="42.7146" lon="-0.08416">
        <ele>2445</ele>
        <time>2014-05-17T06:39:49Z</time>
      </trkpt>
      <trkpt lat="42.71474" lon="-0.08416">
        <ele>2446</ele>
        <time>2014-05-17T06:40:04Z</time>
      </trkpt>
      <trkpt lat="42.71489" lon="-0.08417">
        <ele>2447</ele>
        <time>2014-05-17T06:40:20Z</time>
      </trkpt>
      <trkpt lat="42.71498" lon="-0.08418">
        <ele>2449</ele>
        <time>2014-05-17T06:40:32Z</time>
      </trkpt>
      <trkpt lat="42.71504" lon="-0.08417">
        <ele>2451</ele>
        <time>2014-05-17T06:40:38Z</time>
      </trkpt>
      <trkpt lat="42.71508" lon="-0.08416">
        <ele>2449</ele>
        <time>2014-05-17T06:40:44Z</time>
      </trkpt>
      <trkpt lat="42.71511" lon="-0.08425">
        <ele>2451</ele>
        <time>2014-05-17T06:40:56Z</time>
      </trkpt>
      <trkpt lat="42.71513" lon="-0.08434">
        <ele>2450</ele>
        <time>2014-05-17T06:41:10Z</time>
      </trkpt>
      <trkpt lat="42.71518" lon="-0.08438">
        <ele>2449</ele>
        <time>2014-05-17T06:41:24Z</time>
      </trkpt>
      <trkpt lat="42.71528" lon="-0.08441">
        <ele>2449</ele>
        <time>2014-05-17T06:41:39Z</time>
      </trkpt>
      <trkpt lat="42.71532" lon="-0.08443">
        <ele>2449</ele>
        <time>2014-05-17T06:41:57Z</time>
      </trkpt>
      <trkpt lat="42.71533" lon="-0.08444">
        <ele>2447</ele>
        <time>2014-05-17T06:42:06Z</time>
      </trkpt>
      <trkpt lat="42.71532" lon="-0.08446">
        <ele>2449</ele>
        <time>2014-05-17T06:42:29Z</time>
      </trkpt>
      <trkpt lat="42.71532" lon="-0.08445">
        <ele>2449</ele>
        <time>2014-05-17T06:42:41Z</time>
      </trkpt>
      <trkpt lat="42.71525" lon="-0.0844">
        <ele>2450</ele>
        <time>2014-05-17T06:42:52Z</time>
      </trkpt>
      <trkpt lat="42.71521" lon="-0.08438">
        <ele>2448</ele>
        <time>2014-05-17T06:43:06Z</time>
      </trkpt>
      <trkpt lat="42.71522" lon="-0.08438">
        <ele>2449</ele>
        <time>2014-05-17T06:43:21Z</time>
      </trkpt>
      <trkpt lat="42.71521" lon="-0.08435">
        <ele>2449</ele>
        <time>2014-05-17T06:43:51Z</time>
      </trkpt>
      <trkpt lat="42.71523" lon="-0.08438">
        <ele>2452</ele>
        <time>2014-05-17T06:44:07Z</time>
      </trkpt>
      <trkpt lat="42.71525" lon="-0.08439">
        <ele>2451</ele>
        <time>2014-05-17T06:44:13Z</time>
      </trkpt>
      <trkpt lat="42.71526" lon="-0.08435">
        <ele>2453</ele>
        <time>2014-05-17T06:44:24Z</time>
      </trkpt>
      <trkpt lat="42.71527" lon="-0.08436">
        <ele>2450</ele>
        <time>2014-05-17T06:44:30Z</time>
      </trkpt>
      <trkpt lat="42.71524" lon="-0.08431">
        <ele>2450</ele>
        <time>2014-05-17T06:44:50Z</time>
      </trkpt>
      <trkpt lat="42.71522" lon="-0.08423">
        <ele>2451</ele>
        <time>2014-05-17T06:45:05Z</time>
      </trkpt>
      <trkpt lat="42.71521" lon="-0.08419">
        <ele>2452</ele>
        <time>2014-05-17T06:45:08Z</time>
      </trkpt>
      <trkpt lat="42.71525" lon="-0.08418">
        <ele>2452</ele>
        <time>2014-05-17T06:45:25Z</time>
      </trkpt>
      <trkpt lat="42.71522" lon="-0.08403">
        <ele>2453</ele>
        <time>2014-05-17T06:45:41Z</time>
      </trkpt>
      <trkpt lat="42.71522" lon="-0.08402">
        <ele>2453</ele>
        <time>2014-05-17T06:46:00Z</time>
      </trkpt>
      <trkpt lat="42.71521" lon="-0.084">
        <ele>2454</ele>
        <time>2014-05-17T06:46:04Z</time>
      </trkpt>
      <trkpt lat="42.71522" lon="-0.08396">
        <ele>2455</ele>
        <time>2014-05-17T06:46:14Z</time>
      </trkpt>
      <trkpt lat="42.71526" lon="-0.08387">
        <ele>2456</ele>
        <time>2014-05-17T06:46:31Z</time>
      </trkpt>
      <trkpt lat="42.7153" lon="-0.08389">
        <ele>2457</ele>
        <time>2014-05-17T06:46:50Z</time>
      </trkpt>
      <trkpt lat="42.71531" lon="-0.08381">
        <ele>2457</ele>
        <time>2014-05-17T06:47:01Z</time>
      </trkpt>
      <trkpt lat="42.71532" lon="-0.08371">
        <ele>2460</ele>
        <time>2014-05-17T06:47:16Z</time>
      </trkpt>
      <trkpt lat="42.71532" lon="-0.08366">
        <ele>2461</ele>
        <time>2014-05-17T06:47:24Z</time>
      </trkpt>
      <trkpt lat="42.71533" lon="-0.0836">
        <ele>2461</ele>
        <time>2014-05-17T06:47:37Z</time>
      </trkpt>
      <trkpt lat="42.71533" lon="-0.0836">
        <ele>2462</ele>
        <time>2014-05-17T06:47:52Z</time>
      </trkpt>
      <trkpt lat="42.71532" lon="-0.08359">
        <ele>2462</ele>
        <time>2014-05-17T06:48:04Z</time>
      </trkpt>
      <trkpt lat="42.71531" lon="-0.08355">
        <ele>2463</ele>
        <time>2014-05-17T06:48:17Z</time>
      </trkpt>
      <trkpt lat="42.71532" lon="-0.08349">
        <ele>2465</ele>
        <time>2014-05-17T06:48:34Z</time>
      </trkpt>
      <trkpt lat="42.7154" lon="-0.08339">
        <ele>2467</ele>
        <time>2014-05-17T06:48:52Z</time>
      </trkpt>
      <trkpt lat="42.71549" lon="-0.08335">
        <ele>2469</ele>
        <time>2014-05-17T06:49:06Z</time>
      </trkpt>
      <trkpt lat="42.71558" lon="-0.08332">
        <ele>2473</ele>
        <time>2014-05-17T06:49:22Z</time>
      </trkpt>
      <trkpt lat="42.71566" lon="-0.08334">
        <ele>2474</ele>
        <time>2014-05-17T06:49:39Z</time>
      </trkpt>
      <trkpt lat="42.71568" lon="-0.08336">
        <ele>2476</ele>
        <time>2014-05-17T06:49:49Z</time>
      </trkpt>
      <trkpt lat="42.71563" lon="-0.0833">
        <ele>2476</ele>
        <time>2014-05-17T06:50:02Z</time>
      </trkpt>
      <trkpt lat="42.71556" lon="-0.08322">
        <ele>2479</ele>
        <time>2014-05-17T06:50:16Z</time>
      </trkpt>
      <trkpt lat="42.7155" lon="-0.08316">
        <ele>2479</ele>
        <time>2014-05-17T06:50:32Z</time>
      </trkpt>
      <trkpt lat="42.71551" lon="-0.08317">
        <ele>2480</ele>
        <time>2014-05-17T06:50:36Z</time>
      </trkpt>
      <trkpt lat="42.71545" lon="-0.08311">
        <ele>2481</ele>
        <time>2014-05-17T06:50:51Z</time>
      </trkpt>
      <trkpt lat="42.71543" lon="-0.08309">
        <ele>2482</ele>
        <time>2014-05-17T06:51:07Z</time>
      </trkpt>
      <trkpt lat="42.71545" lon="-0.08309">
        <ele>2481</ele>
        <time>2014-05-17T06:51:20Z</time>
      </trkpt>
      <trkpt lat="42.71558" lon="-0.08307">
        <ele>2483</ele>
        <time>2014-05-17T06:51:40Z</time>
      </trkpt>
      <trkpt lat="42.71572" lon="-0.08313">
        <ele>2486</ele>
        <time>2014-05-17T06:52:00Z</time>
      </trkpt>
      <trkpt lat="42.71581" lon="-0.08319">
        <ele>2488</ele>
        <time>2014-05-17T06:52:16Z</time>
      </trkpt>
      <trkpt lat="42.71587" lon="-0.08324">
        <ele>2490</ele>
        <time>2014-05-17T06:52:26Z</time>
      </trkpt>
      <trkpt lat="42.71594" lon="-0.08335">
        <ele>2494</ele>
        <time>2014-05-17T06:52:41Z</time>
      </trkpt>
      <trkpt lat="42.71602" lon="-0.08349">
        <ele>2493</ele>
        <time>2014-05-17T06:52:57Z</time>
      </trkpt>
      <trkpt lat="42.71604" lon="-0.08361">
        <ele>2496</ele>
        <time>2014-05-17T06:53:11Z</time>
      </trkpt>
      <trkpt lat="42.71605" lon="-0.08361">
        <ele>2496</ele>
        <time>2014-05-17T06:53:12Z</time>
      </trkpt>
      <trkpt lat="42.71608" lon="-0.0836">
        <ele>2494</ele>
        <time>2014-05-17T06:53:27Z</time>
      </trkpt>
      <trkpt lat="42.7161" lon="-0.08356">
        <ele>2497</ele>
        <time>2014-05-17T06:53:31Z</time>
      </trkpt>
      <trkpt lat="42.71609" lon="-0.08347">
        <ele>2500</ele>
        <time>2014-05-17T06:53:42Z</time>
      </trkpt>
      <trkpt lat="42.71611" lon="-0.08335">
        <ele>2502</ele>
        <time>2014-05-17T06:53:58Z</time>
      </trkpt>
      <trkpt lat="42.71614" lon="-0.08339">
        <ele>2503</ele>
        <time>2014-05-17T06:54:19Z</time>
      </trkpt>
      <trkpt lat="42.7162" lon="-0.08351">
        <ele>2505</ele>
        <time>2014-05-17T06:54:35Z</time>
      </trkpt>
      <trkpt lat="42.71623" lon="-0.08357">
        <ele>2506</ele>
        <time>2014-05-17T06:54:48Z</time>
      </trkpt>
      <trkpt lat="42.71626" lon="-0.08363">
        <ele>2508</ele>
        <time>2014-05-17T06:55:03Z</time>
      </trkpt>
      <trkpt lat="42.71629" lon="-0.08351">
        <ele>2509</ele>
        <time>2014-05-17T06:55:21Z</time>
      </trkpt>
      <trkpt lat="42.71634" lon="-0.08335">
        <ele>2512</ele>
        <time>2014-05-17T06:55:41Z</time>
      </trkpt>
      <trkpt lat="42.71639" lon="-0.08335">
        <ele>2514</ele>
        <time>2014-05-17T06:56:01Z</time>
      </trkpt>
      <trkpt lat="42.71643" lon="-0.08346">
        <ele>2515</ele>
        <time>2014-05-17T06:56:14Z</time>
      </trkpt>
      <trkpt lat="42.71648" lon="-0.08356">
        <ele>2517</ele>
        <time>2014-05-17T06:56:28Z</time>
      </trkpt>
      <trkpt lat="42.71652" lon="-0.08358">
        <ele>2519</ele>
        <time>2014-05-17T06:56:33Z</time>
      </trkpt>
      <trkpt lat="42.71663" lon="-0.08364">
        <ele>2522</ele>
        <time>2014-05-17T06:56:48Z</time>
      </trkpt>
      <trkpt lat="42.7167" lon="-0.0837">
        <ele>2525</ele>
        <time>2014-05-17T06:57:00Z</time>
      </trkpt>
      <trkpt lat="42.7168" lon="-0.08367">
        <ele>2526</ele>
        <time>2014-05-17T06:57:16Z</time>
      </trkpt>
      <trkpt lat="42.71686" lon="-0.08362">
        <ele>2529</ele>
        <time>2014-05-17T06:57:30Z</time>
      </trkpt>
      <trkpt lat="42.71691" lon="-0.0836">
        <ele>2532</ele>
        <time>2014-05-17T06:57:43Z</time>
      </trkpt>
      <trkpt lat="42.71695" lon="-0.08371">
        <ele>2534</ele>
        <time>2014-05-17T06:57:57Z</time>
      </trkpt>
      <trkpt lat="42.71699" lon="-0.08382">
        <ele>2537</ele>
        <time>2014-05-17T06:58:13Z</time>
      </trkpt>
      <trkpt lat="42.71704" lon="-0.08378">
        <ele>2538</ele>
        <time>2014-05-17T06:58:26Z</time>
      </trkpt>
      <trkpt lat="42.71709" lon="-0.08374">
        <ele>2539</ele>
        <time>2014-05-17T06:58:32Z</time>
      </trkpt>
      <trkpt lat="42.7172" lon="-0.08365">
        <ele>2542</ele>
        <time>2014-05-17T06:58:50Z</time>
      </trkpt>
      <trkpt lat="42.71731" lon="-0.08361">
        <ele>2545</ele>
        <time>2014-05-17T06:59:07Z</time>
      </trkpt>
      <trkpt lat="42.71732" lon="-0.08361">
        <ele>2546</ele>
        <time>2014-05-17T06:59:10Z</time>
      </trkpt>
      <trkpt lat="42.71735" lon="-0.08373">
        <ele>2549</ele>
        <time>2014-05-17T06:59:27Z</time>
      </trkpt>
      <trkpt lat="42.71735" lon="-0.08388">
        <ele>2551</ele>
        <time>2014-05-17T06:59:45Z</time>
      </trkpt>
      <trkpt lat="42.71735" lon="-0.08397">
        <ele>2553</ele>
        <time>2014-05-17T06:59:57Z</time>
      </trkpt>
      <trkpt lat="42.7173" lon="-0.08409">
        <ele>2555</ele>
        <time>2014-05-17T07:00:15Z</time>
      </trkpt>
      <trkpt lat="42.71733" lon="-0.08411">
        <ele>2556</ele>
        <time>2014-05-17T07:00:30Z</time>
      </trkpt>
      <trkpt lat="42.71742" lon="-0.08404">
        <ele>2558</ele>
        <time>2014-05-17T07:00:44Z</time>
      </trkpt>
      <trkpt lat="42.7175" lon="-0.08399">
        <ele>2561</ele>
        <time>2014-05-17T07:00:59Z</time>
      </trkpt>
      <trkpt lat="42.71753" lon="-0.08397">
        <ele>2561</ele>
        <time>2014-05-17T07:01:20Z</time>
      </trkpt>
      <trkpt lat="42.71763" lon="-0.08393">
        <ele>2563</ele>
        <time>2014-05-17T07:01:35Z</time>
      </trkpt>
      <trkpt lat="42.71768" lon="-0.0839">
        <ele>2565</ele>
        <time>2014-05-17T07:01:51Z</time>
      </trkpt>
      <trkpt lat="42.71775" lon="-0.08389">
        <ele>2569</ele>
        <time>2014-05-17T07:02:07Z</time>
      </trkpt>
      <trkpt lat="42.71775" lon="-0.0839">
        <ele>2569</ele>
        <time>2014-05-17T07:02:08Z</time>
      </trkpt>
      <trkpt lat="42.71782" lon="-0.08388">
        <ele>2571</ele>
        <time>2014-05-17T07:02:24Z</time>
      </trkpt>
      <trkpt lat="42.71786" lon="-0.08384">
        <ele>2575</ele>
        <time>2014-05-17T07:02:32Z</time>
      </trkpt>
      <trkpt lat="42.71794" lon="-0.08381">
        <ele>2577</ele>
        <time>2014-05-17T07:02:46Z</time>
      </trkpt>
      <trkpt lat="42.718" lon="-0.08374">
        <ele>2578</ele>
        <time>2014-05-17T07:03:03Z</time>
      </trkpt>
      <trkpt lat="42.71803" lon="-0.08364">
        <ele>2580</ele>
        <time>2014-05-17T07:03:16Z</time>
      </trkpt>
      <trkpt lat="42.71804" lon="-0.08361">
        <ele>2580</ele>
        <time>2014-05-17T07:03:20Z</time>
      </trkpt>
      <trkpt lat="42.71804" lon="-0.0836">
        <ele>2580</ele>
        <time>2014-05-17T07:03:21Z</time>
      </trkpt>
      <trkpt lat="42.71808" lon="-0.08344">
        <ele>2580</ele>
        <time>2014-05-17T07:03:36Z</time>
      </trkpt>
      <trkpt lat="42.7181" lon="-0.08342">
        <ele>2577</ele>
        <time>2014-05-17T07:03:39Z</time>
      </trkpt>
      <trkpt lat="42.71811" lon="-0.08339">
        <ele>2579</ele>
        <time>2014-05-17T07:03:46Z</time>
      </trkpt>
      <trkpt lat="42.71813" lon="-0.08332">
        <ele>2576</ele>
        <time>2014-05-17T07:03:53Z</time>
      </trkpt>
      <trkpt lat="42.71811" lon="-0.08333">
        <ele>2580</ele>
        <time>2014-05-17T07:04:10Z</time>
      </trkpt>
      <trkpt lat="42.71811" lon="-0.08332">
        <ele>2581</ele>
        <time>2014-05-17T07:04:11Z</time>
      </trkpt>
      <trkpt lat="42.71809" lon="-0.08329">
        <ele>2580</ele>
        <time>2014-05-17T07:04:15Z</time>
      </trkpt>
      <trkpt lat="42.71806" lon="-0.08323">
        <ele>2580</ele>
        <time>2014-05-17T07:04:21Z</time>
      </trkpt>
      <trkpt lat="42.71803" lon="-0.08314">
        <ele>2581</ele>
        <time>2014-05-17T07:04:33Z</time>
      </trkpt>
      <trkpt lat="42.71804" lon="-0.08312">
        <ele>2580</ele>
        <time>2014-05-17T07:04:50Z</time>
      </trkpt>
      <trkpt lat="42.71803" lon="-0.08311">
        <ele>2579</ele>
        <time>2014-05-17T07:04:57Z</time>
      </trkpt>
      <trkpt lat="42.71802" lon="-0.08312">
        <ele>2580</ele>
        <time>2014-05-17T07:05:22Z</time>
      </trkpt>
      <trkpt lat="42.71804" lon="-0.08313">
        <ele>2580</ele>
        <time>2014-05-17T07:05:44Z</time>
      </trkpt>
      <trkpt lat="42.71805" lon="-0.0831">
        <ele>2577</ele>
        <time>2014-05-17T07:05:59Z</time>
      </trkpt>
      <trkpt lat="42.71805" lon="-0.08309">
        <ele>2581</ele>
        <time>2014-05-17T07:06:02Z</time>
      </trkpt>
      <trkpt lat="42.71805" lon="-0.08309">
        <ele>2577</ele>
        <time>2014-05-17T07:06:04Z</time>
      </trkpt>
      <trkpt lat="42.71806" lon="-0.08309">
        <ele>2579</ele>
        <time>2014-05-17T07:06:09Z</time>
      </trkpt>
      <trkpt lat="42.71806" lon="-0.08309">
        <ele>2584</ele>
        <time>2014-05-17T07:06:14Z</time>
      </trkpt>
      <trkpt lat="42.71806" lon="-0.08309">
        <ele>2580</ele>
        <time>2014-05-17T07:06:15Z</time>
      </trkpt>
      <trkpt lat="42.71804" lon="-0.0831">
        <ele>2579</ele>
        <time>2014-05-17T07:06:17Z</time>
      </trkpt>
      <trkpt lat="42.71803" lon="-0.08313">
        <ele>2578</ele>
        <time>2014-05-17T07:06:44Z</time>
      </trkpt>
      <trkpt lat="42.71801" lon="-0.08312">
        <ele>2579</ele>
        <time>2014-05-17T07:07:07Z</time>
      </trkpt>
      <trkpt lat="42.71804" lon="-0.08313">
        <ele>2580</ele>
        <time>2014-05-17T07:07:26Z</time>
      </trkpt>
      <trkpt lat="42.71803" lon="-0.08313">
        <ele>2580</ele>
        <time>2014-05-17T07:07:44Z</time>
      </trkpt>
      <trkpt lat="42.71805" lon="-0.08312">
        <ele>2580</ele>
        <time>2014-05-17T07:08:05Z</time>
      </trkpt>
      <trkpt lat="42.71803" lon="-0.08312">
        <ele>2579</ele>
        <time>2014-05-17T07:08:25Z</time>
      </trkpt>
      <trkpt lat="42.71802" lon="-0.08313">
        <ele>2575</ele>
        <time>2014-05-17T07:08:30Z</time>
      </trkpt>
      <trkpt lat="42.71802" lon="-0.08313">
        <ele>2580</ele>
        <time>2014-05-17T07:08:31Z</time>
      </trkpt>
      <trkpt lat="42.71803" lon="-0.08312">
        <ele>2577</ele>
        <time>2014-05-17T07:08:39Z</time>
      </trkpt>
      <trkpt lat="42.71803" lon="-0.08312">
        <ele>2580</ele>
        <time>2014-05-17T07:08:40Z</time>
      </trkpt>
      <trkpt lat="42.71807" lon="-0.08314">
        <ele>2579</ele>
        <time>2014-05-17T07:09:01Z</time>
      </trkpt>
      <trkpt lat="42.71805" lon="-0.08314">
        <ele>2583</ele>
        <time>2014-05-17T07:09:13Z</time>
      </trkpt>
      <trkpt lat="42.71805" lon="-0.08313">
        <ele>2579</ele>
        <time>2014-05-17T07:09:14Z</time>
      </trkpt>
      <trkpt lat="42.71804" lon="-0.08312">
        <ele>2575</ele>
        <time>2014-05-17T07:09:19Z</time>
      </trkpt>
      <trkpt lat="42.71804" lon="-0.08313">
        <ele>2579</ele>
        <time>2014-05-17T07:09:20Z</time>
      </trkpt>
      <trkpt lat="42.71803" lon="-0.08312">
        <ele>2580</ele>
        <time>2014-05-17T07:10:07Z</time>
      </trkpt>
      <trkpt lat="42.71804" lon="-0.08311">
        <ele>2580</ele>
        <time>2014-05-17T07:10:26Z</time>
      </trkpt>
      <trkpt lat="42.71804" lon="-0.08313">
        <ele>2580</ele>
        <time>2014-05-17T07:10:49Z</time>
      </trkpt>
      <trkpt lat="42.71803" lon="-0.08312">
        <ele>2580</ele>
        <time>2014-05-17T07:11:04Z</time>
      </trkpt>
      <trkpt lat="42.71805" lon="-0.08313">
        <ele>2580</ele>
        <time>2014-05-17T07:11:32Z</time>
      </trkpt>
      <trkpt lat="42.71804" lon="-0.08312">
        <ele>2580</ele>
        <time>2014-05-17T07:12:07Z</time>
      </trkpt>
      <trkpt lat="42.71804" lon="-0.08313">
        <ele>2580</ele>
        <time>2014-05-17T07:12:35Z</time>
      </trkpt>
      <trkpt lat="42.71805" lon="-0.08313">
        <ele>2580</ele>
        <time>2014-05-17T07:12:59Z</time>
      </trkpt>
      <trkpt lat="42.71804" lon="-0.08312">
        <ele>2580</ele>
        <time>2014-05-17T07:13:28Z</time>
      </trkpt>
      <trkpt lat="42.71804" lon="-0.08312">
        <ele>2580</ele>
        <time>2014-05-17T07:13:49Z</time>
      </trkpt>
      <trkpt lat="42.71803" lon="-0.08312">
        <ele>2579</ele>
        <time>2014-05-17T07:14:25Z</time>
      </trkpt>
      <trkpt lat="42.71803" lon="-0.08313">
        <ele>2580</ele>
        <time>2014-05-17T07:14:57Z</time>
      </trkpt>
      <trkpt lat="42.71802" lon="-0.08312">
        <ele>2580</ele>
        <time>2014-05-17T07:15:28Z</time>
      </trkpt>
      <trkpt lat="42.71804" lon="-0.08312">
        <ele>2579</ele>
        <time>2014-05-17T07:15:54Z</time>
      </trkpt>
      <trkpt lat="42.71804" lon="-0.08312">
        <ele>2580</ele>
        <time>2014-05-17T07:16:15Z</time>
      </trkpt>
      <trkpt lat="42.71804" lon="-0.08312">
        <ele>2580</ele>
        <time>2014-05-17T07:16:42Z</time>
      </trkpt>
      <trkpt lat="42.71804" lon="-0.08311">
        <ele>2579</ele>
        <time>2014-05-17T07:17:08Z</time>
      </trkpt>
      <trkpt lat="42.71805" lon="-0.08313">
        <ele>2580</ele>
        <time>2014-05-17T07:17:36Z</time>
      </trkpt>
      <trkpt lat="42.71804" lon="-0.08311">
        <ele>2579</ele>
        <time>2014-05-17T07:18:09Z</time>
      </trkpt>
      <trkpt lat="42.71804" lon="-0.08311">
        <ele>2579</ele>
        <time>2014-05-17T07:18:34Z</time>
      </trkpt>
      <trkpt lat="42.71803" lon="-0.08312">
        <ele>2579</ele>
        <time>2014-05-17T07:18:57Z</time>
      </trkpt>
      <trkpt lat="42.71803" lon="-0.08311">
        <ele>2578</ele>
        <time>2014-05-17T07:19:33Z</time>
      </trkpt>
      <trkpt lat="42.71802" lon="-0.08314">
        <ele>2580</ele>
        <time>2014-05-17T07:19:51Z</time>
      </trkpt>
      <trkpt lat="42.71802" lon="-0.08312">
        <ele>2579</ele>
        <time>2014-05-17T07:20:18Z</time>
      </trkpt>
      <trkpt lat="42.71803" lon="-0.08313">
        <ele>2580</ele>
        <time>2014-05-17T07:20:41Z</time>
      </trkpt>
      <trkpt lat="42.71802" lon="-0.08314">
        <ele>2580</ele>
        <time>2014-05-17T07:21:04Z</time>
      </trkpt>
      <trkpt lat="42.71801" lon="-0.08312">
        <ele>2581</ele>
        <time>2014-05-17T07:21:34Z</time>
      </trkpt>
      <trkpt lat="42.71801" lon="-0.08311">
        <ele>2580</ele>
        <time>2014-05-17T07:22:02Z</time>
      </trkpt>
      <trkpt lat="42.71801" lon="-0.08311">
        <ele>2580</ele>
        <time>2014-05-17T07:22:33Z</time>
      </trkpt>
      <trkpt lat="42.71801" lon="-0.08311">
        <ele>2581</ele>
        <time>2014-05-17T07:23:01Z</time>
      </trkpt>
      <trkpt lat="42.71802" lon="-0.08311">
        <ele>2581</ele>
        <time>2014-05-17T07:23:31Z</time>
      </trkpt>
      <trkpt lat="42.71803" lon="-0.08313">
        <ele>2585</ele>
        <time>2014-05-17T07:23:50Z</time>
      </trkpt>
      <trkpt lat="42.71803" lon="-0.08313">
        <ele>2583</ele>
        <time>2014-05-17T07:23:51Z</time>
      </trkpt>
      <trkpt lat="42.71803" lon="-0.08312">
        <ele>2579</ele>
        <time>2014-05-17T07:24:14Z</time>
      </trkpt>
      <trkpt lat="42.71802" lon="-0.0831">
        <ele>2582</ele>
        <time>2014-05-17T07:24:35Z</time>
      </trkpt>
      <trkpt lat="42.71803" lon="-0.0831">
        <ele>2583</ele>
        <time>2014-05-17T07:25:01Z</time>
      </trkpt>
      <trkpt lat="42.71804" lon="-0.08313">
        <ele>2580</ele>
        <time>2014-05-17T07:25:25Z</time>
      </trkpt>
      <trkpt lat="42.71803" lon="-0.08312">
        <ele>2580</ele>
        <time>2014-05-17T07:25:49Z</time>
      </trkpt>
      <trkpt lat="42.71802" lon="-0.08312">
        <ele>2581</ele>
        <time>2014-05-17T07:26:21Z</time>
      </trkpt>
      <trkpt lat="42.71803" lon="-0.08312">
        <ele>2581</ele>
        <time>2014-05-17T07:26:52Z</time>
      </trkpt>
      <trkpt lat="42.71804" lon="-0.08311">
        <ele>2580</ele>
        <time>2014-05-17T07:27:07Z</time>
      </trkpt>
      <trkpt lat="42.71804" lon="-0.08312">
        <ele>2582</ele>
        <time>2014-05-17T07:27:18Z</time>
      </trkpt>
      <trkpt lat="42.71804" lon="-0.08314">
        <ele>2581</ele>
        <time>2014-05-17T07:27:43Z</time>
      </trkpt>
      <trkpt lat="42.71802" lon="-0.0831">
        <ele>2581</ele>
        <time>2014-05-17T07:28:00Z</time>
      </trkpt>
      <trkpt lat="42.71802" lon="-0.0831">
        <ele>2580</ele>
        <time>2014-05-17T07:28:01Z</time>
      </trkpt>
      <trkpt lat="42.71801" lon="-0.08309">
        <ele>2582</ele>
        <time>2014-05-17T07:28:04Z</time>
      </trkpt>
      <trkpt lat="42.718" lon="-0.0831">
        <ele>2581</ele>
        <time>2014-05-17T07:28:22Z</time>
      </trkpt>
      <trkpt lat="42.71803" lon="-0.08309">
        <ele>2582</ele>
        <time>2014-05-17T07:28:30Z</time>
      </trkpt>
      <trkpt lat="42.71803" lon="-0.08311">
        <ele>2581</ele>
        <time>2014-05-17T07:28:47Z</time>
      </trkpt>
      <trkpt lat="42.71803" lon="-0.08311">
        <ele>2582</ele>
        <time>2014-05-17T07:28:49Z</time>
      </trkpt>
      <trkpt lat="42.71803" lon="-0.08312">
        <ele>2582</ele>
        <time>2014-05-17T07:29:08Z</time>
      </trkpt>
      <trkpt lat="42.71802" lon="-0.08312">
        <ele>2581</ele>
        <time>2014-05-17T07:29:23Z</time>
      </trkpt>
      <trkpt lat="42.718" lon="-0.08311">
        <ele>2581</ele>
        <time>2014-05-17T07:29:26Z</time>
      </trkpt>
      <trkpt lat="42.71808" lon="-0.08319">
        <ele>2579</ele>
        <time>2014-05-17T07:29:40Z</time>
      </trkpt>
      <trkpt lat="42.71809" lon="-0.08318">
        <ele>2580</ele>
        <time>2014-05-17T07:30:09Z</time>
      </trkpt>
      <trkpt lat="42.71808" lon="-0.08321">
        <ele>2582</ele>
        <time>2014-05-17T07:30:14Z</time>
      </trkpt>
      <trkpt lat="42.7181" lon="-0.08331">
        <ele>2579</ele>
        <time>2014-05-17T07:30:21Z</time>
      </trkpt>
      <trkpt lat="42.71812" lon="-0.08334">
        <ele>2581</ele>
        <time>2014-05-17T07:30:24Z</time>
      </trkpt>
      <trkpt lat="42.71814" lon="-0.08342">
        <ele>2580</ele>
        <time>2014-05-17T07:30:38Z</time>
      </trkpt>
      <trkpt lat="42.71813" lon="-0.08341">
        <ele>2577</ele>
        <time>2014-05-17T07:30:54Z</time>
      </trkpt>
      <trkpt lat="42.71814" lon="-0.08341">
        <ele>2579</ele>
        <time>2014-05-17T07:30:55Z</time>
      </trkpt>
      <trkpt lat="42.71814" lon="-0.08342">
        <ele>2580</ele>
        <time>2014-05-17T07:31:02Z</time>
      </trkpt>
      <trkpt lat="42.71814" lon="-0.08342">
        <ele>2578</ele>
        <time>2014-05-17T07:31:13Z</time>
      </trkpt>
      <trkpt lat="42.71814" lon="-0.08342">
        <ele>2581</ele>
        <time>2014-05-17T07:31:15Z</time>
      </trkpt>
      <trkpt lat="42.71814" lon="-0.08342">
        <ele>2580</ele>
        <time>2014-05-17T07:31:16Z</time>
      </trkpt>
      <trkpt lat="42.71813" lon="-0.08344">
        <ele>2576</ele>
        <time>2014-05-17T07:31:40Z</time>
      </trkpt>
      <trkpt lat="42.71813" lon="-0.08344">
        <ele>2580</ele>
        <time>2014-05-17T07:31:41Z</time>
      </trkpt>
      <trkpt lat="42.71814" lon="-0.08344">
        <ele>2577</ele>
        <time>2014-05-17T07:31:42Z</time>
      </trkpt>
      <trkpt lat="42.71816" lon="-0.08342">
        <ele>2580</ele>
        <time>2014-05-17T07:31:49Z</time>
      </trkpt>
      <trkpt lat="42.71817" lon="-0.08343">
        <ele>2580</ele>
        <time>2014-05-17T07:32:02Z</time>
      </trkpt>
      <trkpt lat="42.71822" lon="-0.0834">
        <ele>2577</ele>
        <time>2014-05-17T07:32:06Z</time>
      </trkpt>
      <trkpt lat="42.7183" lon="-0.08345">
        <ele>2571</ele>
        <time>2014-05-17T07:32:12Z</time>
      </trkpt>
      <trkpt lat="42.71834" lon="-0.08349">
        <ele>2568</ele>
        <time>2014-05-17T07:32:15Z</time>
      </trkpt>
      <trkpt lat="42.7184" lon="-0.08353">
        <ele>2564</ele>
        <time>2014-05-17T07:32:19Z</time>
      </trkpt>
      <trkpt lat="42.71844" lon="-0.08356">
        <ele>2563</ele>
        <time>2014-05-17T07:32:22Z</time>
      </trkpt>
      <trkpt lat="42.71852" lon="-0.0836">
        <ele>2559</ele>
        <time>2014-05-17T07:32:27Z</time>
      </trkpt>
      <trkpt lat="42.71853" lon="-0.08361">
        <ele>2559</ele>
        <time>2014-05-17T07:32:28Z</time>
      </trkpt>
      <trkpt lat="42.71857" lon="-0.08362">
        <ele>2556</ele>
        <time>2014-05-17T07:32:31Z</time>
      </trkpt>
      <trkpt lat="42.71859" lon="-0.08363">
        <ele>2556</ele>
        <time>2014-05-17T07:32:32Z</time>
      </trkpt>
      <trkpt lat="42.71861" lon="-0.0836">
        <ele>2552</ele>
        <time>2014-05-17T07:32:34Z</time>
      </trkpt>
      <trkpt lat="42.71863" lon="-0.08358">
        <ele>2553</ele>
        <time>2014-05-17T07:32:35Z</time>
      </trkpt>
      <trkpt lat="42.71869" lon="-0.08358">
        <ele>2550</ele>
        <time>2014-05-17T07:32:37Z</time>
      </trkpt>
      <trkpt lat="42.71884" lon="-0.08369">
        <ele>2546</ele>
        <time>2014-05-17T07:32:41Z</time>
      </trkpt>
      <trkpt lat="42.71888" lon="-0.08372">
        <ele>2546</ele>
        <time>2014-05-17T07:32:42Z</time>
      </trkpt>
      <trkpt lat="42.71904" lon="-0.08389">
        <ele>2543</ele>
        <time>2014-05-17T07:32:47Z</time>
      </trkpt>
      <trkpt lat="42.71919" lon="-0.08406">
        <ele>2542</ele>
        <time>2014-05-17T07:32:58Z</time>
      </trkpt>
      <trkpt lat="42.71927" lon="-0.08405">
        <ele>2538</ele>
        <time>2014-05-17T07:33:05Z</time>
      </trkpt>
      <trkpt lat="42.7193" lon="-0.08406">
        <ele>2538</ele>
        <time>2014-05-17T07:33:06Z</time>
      </trkpt>
      <trkpt lat="42.71942" lon="-0.08409">
        <ele>2536</ele>
        <time>2014-05-17T07:33:09Z</time>
      </trkpt>
      <trkpt lat="42.7195" lon="-0.08411">
        <ele>2535</ele>
        <time>2014-05-17T07:33:11Z</time>
      </trkpt>
      <trkpt lat="42.71962" lon="-0.08415">
        <ele>2533</ele>
        <time>2014-05-17T07:33:14Z</time>
      </trkpt>
      <trkpt lat="42.7199" lon="-0.08421">
        <ele>2530</ele>
        <time>2014-05-17T07:33:25Z</time>
      </trkpt>
      <trkpt lat="42.72019" lon="-0.08416">
        <ele>2528</ele>
        <time>2014-05-17T07:33:36Z</time>
      </trkpt>
      <trkpt lat="42.72021" lon="-0.08415">
        <ele>2528</ele>
        <time>2014-05-17T07:33:43Z</time>
      </trkpt>
      <trkpt lat="42.72018" lon="-0.08406">
        <ele>2525</ele>
        <time>2014-05-17T07:33:48Z</time>
      </trkpt>
      <trkpt lat="42.72025" lon="-0.08394">
        <ele>2520</ele>
        <time>2014-05-17T07:33:52Z</time>
      </trkpt>
      <trkpt lat="42.72027" lon="-0.08393">
        <ele>2520</ele>
        <time>2014-05-17T07:33:53Z</time>
      </trkpt>
      <trkpt lat="42.7203" lon="-0.08387">
        <ele>2517</ele>
        <time>2014-05-17T07:33:55Z</time>
      </trkpt>
      <trkpt lat="42.72026" lon="-0.08375">
        <ele>2513</ele>
        <time>2014-05-17T07:33:59Z</time>
      </trkpt>
      <trkpt lat="42.72034" lon="-0.08372">
        <ele>2511</ele>
        <time>2014-05-17T07:34:01Z</time>
      </trkpt>
      <trkpt lat="42.72045" lon="-0.08374">
        <ele>2508</ele>
        <time>2014-05-17T07:34:04Z</time>
      </trkpt>
      <trkpt lat="42.72058" lon="-0.08376">
        <ele>2506</ele>
        <time>2014-05-17T07:34:07Z</time>
      </trkpt>
      <trkpt lat="42.72076" lon="-0.08381">
        <ele>2504</ele>
        <time>2014-05-17T07:34:11Z</time>
      </trkpt>
      <trkpt lat="42.72082" lon="-0.08382">
        <ele>2504</ele>
        <time>2014-05-17T07:34:18Z</time>
      </trkpt>
      <trkpt lat="42.72083" lon="-0.08381">
        <ele>2503</ele>
        <time>2014-05-17T07:34:26Z</time>
      </trkpt>
      <trkpt lat="42.72078" lon="-0.0837">
        <ele>2499</ele>
        <time>2014-05-17T07:34:32Z</time>
      </trkpt>
      <trkpt lat="42.72081" lon="-0.08362">
        <ele>2495</ele>
        <time>2014-05-17T07:34:34Z</time>
      </trkpt>
      <trkpt lat="42.72079" lon="-0.08353">
        <ele>2492</ele>
        <time>2014-05-17T07:34:36Z</time>
      </trkpt>
      <trkpt lat="42.72079" lon="-0.08349">
        <ele>2490</ele>
        <time>2014-05-17T07:34:37Z</time>
      </trkpt>
      <trkpt lat="42.72081" lon="-0.08343">
        <ele>2487</ele>
        <time>2014-05-17T07:34:39Z</time>
      </trkpt>
      <trkpt lat="42.72081" lon="-0.08333">
        <ele>2482</ele>
        <time>2014-05-17T07:34:42Z</time>
      </trkpt>
      <trkpt lat="42.72082" lon="-0.08328">
        <ele>2483</ele>
        <time>2014-05-17T07:34:43Z</time>
      </trkpt>
      <trkpt lat="42.72084" lon="-0.08324">
        <ele>2478</ele>
        <time>2014-05-17T07:34:44Z</time>
      </trkpt>
      <trkpt lat="42.72093" lon="-0.08322">
        <ele>2476</ele>
        <time>2014-05-17T07:34:46Z</time>
      </trkpt>
      <trkpt lat="42.72104" lon="-0.08324">
        <ele>2475</ele>
        <time>2014-05-17T07:34:48Z</time>
      </trkpt>
      <trkpt lat="42.72119" lon="-0.08327">
        <ele>2473</ele>
        <time>2014-05-17T07:34:51Z</time>
      </trkpt>
      <trkpt lat="42.72129" lon="-0.0833">
        <ele>2472</ele>
        <time>2014-05-17T07:34:53Z</time>
      </trkpt>
      <trkpt lat="42.72161" lon="-0.08349">
        <ele>2469</ele>
        <time>2014-05-17T07:35:05Z</time>
      </trkpt>
      <trkpt lat="42.72163" lon="-0.08353">
        <ele>2470</ele>
        <time>2014-05-17T07:35:18Z</time>
      </trkpt>
      <trkpt lat="42.72169" lon="-0.0837">
        <ele>2467</ele>
        <time>2014-05-17T07:35:39Z</time>
      </trkpt>
      <trkpt lat="42.72191" lon="-0.08396">
        <ele>2466</ele>
        <time>2014-05-17T07:35:53Z</time>
      </trkpt>
      <trkpt lat="42.72199" lon="-0.08408">
        <ele>2465</ele>
        <time>2014-05-17T07:36:14Z</time>
      </trkpt>
      <trkpt lat="42.72219" lon="-0.08432">
        <ele>2464</ele>
        <time>2014-05-17T07:36:26Z</time>
      </trkpt>
      <trkpt lat="42.72228" lon="-0.08431">
        <ele>2462</ele>
        <time>2014-05-17T07:36:40Z</time>
      </trkpt>
      <trkpt lat="42.72224" lon="-0.08434">
        <ele>2462</ele>
        <time>2014-05-17T07:36:59Z</time>
      </trkpt>
      <trkpt lat="42.72224" lon="-0.08434">
        <ele>2463</ele>
        <time>2014-05-17T07:37:01Z</time>
      </trkpt>
      <trkpt lat="42.72226" lon="-0.08436">
        <ele>2464</ele>
        <time>2014-05-17T07:37:20Z</time>
      </trkpt>
      <trkpt lat="42.72234" lon="-0.08439">
        <ele>2464</ele>
        <time>2014-05-17T07:37:34Z</time>
      </trkpt>
      <trkpt lat="42.72242" lon="-0.08447">
        <ele>2466</ele>
        <time>2014-05-17T07:37:48Z</time>
      </trkpt>
      <trkpt lat="42.72245" lon="-0.08445">
        <ele>2465</ele>
        <time>2014-05-17T07:38:05Z</time>
      </trkpt>
      <trkpt lat="42.72244" lon="-0.08445">
        <ele>2466</ele>
        <time>2014-05-17T07:38:07Z</time>
      </trkpt>
      <trkpt lat="42.72239" lon="-0.0845">
        <ele>2464</ele>
        <time>2014-05-17T07:38:33Z</time>
      </trkpt>
      <trkpt lat="42.72241" lon="-0.08448">
        <ele>2468</ele>
        <time>2014-05-17T07:38:41Z</time>
      </trkpt>
      <trkpt lat="42.72241" lon="-0.08448">
        <ele>2466</ele>
        <time>2014-05-17T07:38:42Z</time>
      </trkpt>
      <trkpt lat="42.72246" lon="-0.08445">
        <ele>2465</ele>
        <time>2014-05-17T07:38:50Z</time>
      </trkpt>
      <trkpt lat="42.72285" lon="-0.08439">
        <ele>2463</ele>
        <time>2014-05-17T07:39:06Z</time>
      </trkpt>
      <trkpt lat="42.72297" lon="-0.08441">
        <ele>2462</ele>
        <time>2014-05-17T07:39:10Z</time>
      </trkpt>
      <trkpt lat="42.72332" lon="-0.08454">
        <ele>2461</ele>
        <time>2014-05-17T07:39:24Z</time>
      </trkpt>
      <trkpt lat="42.7234" lon="-0.08463">
        <ele>2460</ele>
        <time>2014-05-17T07:39:30Z</time>
      </trkpt>
      <trkpt lat="42.72347" lon="-0.08469">
        <ele>2460</ele>
        <time>2014-05-17T07:39:35Z</time>
      </trkpt>
      <trkpt lat="42.72365" lon="-0.08497">
        <ele>2457</ele>
        <time>2014-05-17T07:39:45Z</time>
      </trkpt>
      <trkpt lat="42.72402" lon="-0.08558">
        <ele>2455</ele>
        <time>2014-05-17T07:39:58Z</time>
      </trkpt>
      <trkpt lat="42.72417" lon="-0.08603">
        <ele>2454</ele>
        <time>2014-05-17T07:40:11Z</time>
      </trkpt>
      <trkpt lat="42.72417" lon="-0.08648">
        <ele>2455</ele>
        <time>2014-05-17T07:40:23Z</time>
      </trkpt>
      <trkpt lat="42.72424" lon="-0.08718">
        <ele>2453</ele>
        <time>2014-05-17T07:40:38Z</time>
      </trkpt>
      <trkpt lat="42.72438" lon="-0.0874">
        <ele>2453</ele>
        <time>2014-05-17T07:40:49Z</time>
      </trkpt>
      <trkpt lat="42.7244" lon="-0.08753">
        <ele>2454</ele>
        <time>2014-05-17T07:41:05Z</time>
      </trkpt>
      <trkpt lat="42.72439" lon="-0.08756">
        <ele>2453</ele>
        <time>2014-05-17T07:41:26Z</time>
      </trkpt>
      <trkpt lat="42.72438" lon="-0.08755">
        <ele>2450</ele>
        <time>2014-05-17T07:41:29Z</time>
      </trkpt>
      <trkpt lat="42.72438" lon="-0.08756">
        <ele>2454</ele>
        <time>2014-05-17T07:41:31Z</time>
      </trkpt>
      <trkpt lat="42.72436" lon="-0.08754">
        <ele>2450</ele>
        <time>2014-05-17T07:41:45Z</time>
      </trkpt>
      <trkpt lat="42.72437" lon="-0.08754">
        <ele>2457</ele>
        <time>2014-05-17T07:41:47Z</time>
      </trkpt>
      <trkpt lat="42.72437" lon="-0.08754">
        <ele>2453</ele>
        <time>2014-05-17T07:41:48Z</time>
      </trkpt>
      <trkpt lat="42.72432" lon="-0.08751">
        <ele>2456</ele>
        <time>2014-05-17T07:42:08Z</time>
      </trkpt>
      <trkpt lat="42.72428" lon="-0.08763">
        <ele>2457</ele>
        <time>2014-05-17T07:42:21Z</time>
      </trkpt>
      <trkpt lat="42.72425" lon="-0.08763">
        <ele>2458</ele>
        <time>2014-05-17T07:42:37Z</time>
      </trkpt>
      <trkpt lat="42.72426" lon="-0.08759">
        <ele>2458</ele>
        <time>2014-05-17T07:42:59Z</time>
      </trkpt>
      <trkpt lat="42.72427" lon="-0.08764">
        <ele>2457</ele>
        <time>2014-05-17T07:43:19Z</time>
      </trkpt>
      <trkpt lat="42.72429" lon="-0.08764">
        <ele>2457</ele>
        <time>2014-05-17T07:43:39Z</time>
      </trkpt>
      <trkpt lat="42.72426" lon="-0.08763">
        <ele>2457</ele>
        <time>2014-05-17T07:44:01Z</time>
      </trkpt>
      <trkpt lat="42.72425" lon="-0.08764">
        <ele>2457</ele>
        <time>2014-05-17T07:44:25Z</time>
      </trkpt>
      <trkpt lat="42.72425" lon="-0.08763">
        <ele>2457</ele>
        <time>2014-05-17T07:44:41Z</time>
      </trkpt>
      <trkpt lat="42.72424" lon="-0.08763">
        <ele>2456</ele>
        <time>2014-05-17T07:45:04Z</time>
      </trkpt>
      <trkpt lat="42.72426" lon="-0.08761">
        <ele>2456</ele>
        <time>2014-05-17T07:45:25Z</time>
      </trkpt>
      <trkpt lat="42.72424" lon="-0.08761">
        <ele>2455</ele>
        <time>2014-05-17T07:45:46Z</time>
      </trkpt>
      <trkpt lat="42.72426" lon="-0.0876">
        <ele>2457</ele>
        <time>2014-05-17T07:45:49Z</time>
      </trkpt>
      <trkpt lat="42.72427" lon="-0.0876">
        <ele>2452</ele>
        <time>2014-05-17T07:46:05Z</time>
      </trkpt>
      <trkpt lat="42.72426" lon="-0.0876">
        <ele>2456</ele>
        <time>2014-05-17T07:46:06Z</time>
      </trkpt>
      <trkpt lat="42.72423" lon="-0.0876">
        <ele>2460</ele>
        <time>2014-05-17T07:46:12Z</time>
      </trkpt>
      <trkpt lat="42.72423" lon="-0.0876">
        <ele>2457</ele>
        <time>2014-05-17T07:46:13Z</time>
      </trkpt>
      <trkpt lat="42.72422" lon="-0.0876">
        <ele>2456</ele>
        <time>2014-05-17T07:46:15Z</time>
      </trkpt>
      <trkpt lat="42.72423" lon="-0.08762">
        <ele>2452</ele>
        <time>2014-05-17T07:46:35Z</time>
      </trkpt>
      <trkpt lat="42.72424" lon="-0.08762">
        <ele>2459</ele>
        <time>2014-05-17T07:46:36Z</time>
      </trkpt>
      <trkpt lat="42.72424" lon="-0.08763">
        <ele>2458</ele>
        <time>2014-05-17T07:46:37Z</time>
      </trkpt>
      <trkpt lat="42.72423" lon="-0.08763">
        <ele>2453</ele>
        <time>2014-05-17T07:46:38Z</time>
      </trkpt>
      <trkpt lat="42.72424" lon="-0.08763">
        <ele>2460</ele>
        <time>2014-05-17T07:46:41Z</time>
      </trkpt>
      <trkpt lat="42.72425" lon="-0.08763">
        <ele>2455</ele>
        <time>2014-05-17T07:46:44Z</time>
      </trkpt>
      <trkpt lat="42.72429" lon="-0.08761">
        <ele>2456</ele>
        <time>2014-05-17T07:47:04Z</time>
      </trkpt>
      <trkpt lat="42.7243" lon="-0.08762">
        <ele>2456</ele>
        <time>2014-05-17T07:47:13Z</time>
      </trkpt>
      <trkpt lat="42.72426" lon="-0.08761">
        <ele>2456</ele>
        <time>2014-05-17T07:47:36Z</time>
      </trkpt>
      <trkpt lat="42.72423" lon="-0.08758">
        <ele>2456</ele>
        <time>2014-05-17T07:48:04Z</time>
      </trkpt>
      <trkpt lat="42.72421" lon="-0.08759">
        <ele>2456</ele>
        <time>2014-05-17T07:48:26Z</time>
      </trkpt>
      <trkpt lat="42.72421" lon="-0.0876">
        <ele>2456</ele>
        <time>2014-05-17T07:48:46Z</time>
      </trkpt>
      <trkpt lat="42.72423" lon="-0.08762">
        <ele>2455</ele>
        <time>2014-05-17T07:49:06Z</time>
      </trkpt>
      <trkpt lat="42.72427" lon="-0.08761">
        <ele>2456</ele>
        <time>2014-05-17T07:49:25Z</time>
      </trkpt>
      <trkpt lat="42.72427" lon="-0.08761">
        <ele>2456</ele>
        <time>2014-05-17T07:49:43Z</time>
      </trkpt>
      <trkpt lat="42.72428" lon="-0.0876">
        <ele>2455</ele>
        <time>2014-05-17T07:50:02Z</time>
      </trkpt>
      <trkpt lat="42.72429" lon="-0.08761">
        <ele>2456</ele>
        <time>2014-05-17T07:50:18Z</time>
      </trkpt>
      <trkpt lat="42.72427" lon="-0.08761">
        <ele>2456</ele>
        <time>2014-05-17T07:50:39Z</time>
      </trkpt>
      <trkpt lat="42.72428" lon="-0.08762">
        <ele>2455</ele>
        <time>2014-05-17T07:51:02Z</time>
      </trkpt>
      <trkpt lat="42.7243" lon="-0.08762">
        <ele>2456</ele>
        <time>2014-05-17T07:51:06Z</time>
      </trkpt>
      <trkpt lat="42.72423" lon="-0.08769">
        <ele>2458</ele>
        <time>2014-05-17T07:51:20Z</time>
      </trkpt>
      <trkpt lat="42.72422" lon="-0.08771">
        <ele>2458</ele>
        <time>2014-05-17T07:51:41Z</time>
      </trkpt>
      <trkpt lat="42.7242" lon="-0.0877">
        <ele>2459</ele>
        <time>2014-05-17T07:52:06Z</time>
      </trkpt>
      <trkpt lat="42.72418" lon="-0.08777">
        <ele>2459</ele>
        <time>2014-05-17T07:52:20Z</time>
      </trkpt>
      <trkpt lat="42.72411" lon="-0.08792">
        <ele>2460</ele>
        <time>2014-05-17T07:52:34Z</time>
      </trkpt>
      <trkpt lat="42.72402" lon="-0.08809">
        <ele>2462</ele>
        <time>2014-05-17T07:52:49Z</time>
      </trkpt>
      <trkpt lat="42.72396" lon="-0.08824">
        <ele>2462</ele>
        <time>2014-05-17T07:53:02Z</time>
      </trkpt>
      <trkpt lat="42.72393" lon="-0.08842">
        <ele>2464</ele>
        <time>2014-05-17T07:53:18Z</time>
      </trkpt>
      <trkpt lat="42.7239" lon="-0.08858">
        <ele>2466</ele>
        <time>2014-05-17T07:53:35Z</time>
      </trkpt>
      <trkpt lat="42.72389" lon="-0.08875">
        <ele>2470</ele>
        <time>2014-05-17T07:53:50Z</time>
      </trkpt>
      <trkpt lat="42.72386" lon="-0.08887">
        <ele>2472</ele>
        <time>2014-05-17T07:54:03Z</time>
      </trkpt>
      <trkpt lat="42.72384" lon="-0.08906">
        <ele>2475</ele>
        <time>2014-05-17T07:54:21Z</time>
      </trkpt>
      <trkpt lat="42.72383" lon="-0.08921">
        <ele>2478</ele>
        <time>2014-05-17T07:54:37Z</time>
      </trkpt>
      <trkpt lat="42.72381" lon="-0.08936">
        <ele>2480</ele>
        <time>2014-05-17T07:54:53Z</time>
      </trkpt>
      <trkpt lat="42.72379" lon="-0.08951">
        <ele>2484</ele>
        <time>2014-05-17T07:55:08Z</time>
      </trkpt>
      <trkpt lat="42.7238" lon="-0.08959">
        <ele>2486</ele>
        <time>2014-05-17T07:55:23Z</time>
      </trkpt>
      <trkpt lat="42.7238" lon="-0.08961">
        <ele>2489</ele>
        <time>2014-05-17T07:55:33Z</time>
      </trkpt>
      <trkpt lat="42.72377" lon="-0.08973">
        <ele>2489</ele>
        <time>2014-05-17T07:55:49Z</time>
      </trkpt>
      <trkpt lat="42.72374" lon="-0.08985">
        <ele>2493</ele>
        <time>2014-05-17T07:56:02Z</time>
      </trkpt>
      <trkpt lat="42.72366" lon="-0.08989">
        <ele>2494</ele>
        <time>2014-05-17T07:56:18Z</time>
      </trkpt>
      <trkpt lat="42.72361" lon="-0.08979">
        <ele>2498</ele>
        <time>2014-05-17T07:56:30Z</time>
      </trkpt>
      <trkpt lat="42.72361" lon="-0.08979">
        <ele>2497</ele>
        <time>2014-05-17T07:56:31Z</time>
      </trkpt>
      <trkpt lat="42.72354" lon="-0.08969">
        <ele>2499</ele>
        <time>2014-05-17T07:56:47Z</time>
      </trkpt>
      <trkpt lat="42.7235" lon="-0.08959">
        <ele>2501</ele>
        <time>2014-05-17T07:57:03Z</time>
      </trkpt>
      <trkpt lat="42.72346" lon="-0.08951">
        <ele>2504</ele>
        <time>2014-05-17T07:57:15Z</time>
      </trkpt>
      <trkpt lat="42.72345" lon="-0.08949">
        <ele>2505</ele>
        <time>2014-05-17T07:57:20Z</time>
      </trkpt>
      <trkpt lat="42.72342" lon="-0.08935">
        <ele>2506</ele>
        <time>2014-05-17T07:57:38Z</time>
      </trkpt>
      <trkpt lat="42.72336" lon="-0.08926">
        <ele>2509</ele>
        <time>2014-05-17T07:57:54Z</time>
      </trkpt>
      <trkpt lat="42.72329" lon="-0.08917">
        <ele>2512</ele>
        <time>2014-05-17T07:58:12Z</time>
      </trkpt>
      <trkpt lat="42.72323" lon="-0.08907">
        <ele>2513</ele>
        <time>2014-05-17T07:58:26Z</time>
      </trkpt>
      <trkpt lat="42.72317" lon="-0.08897">
        <ele>2516</ele>
        <time>2014-05-17T07:58:42Z</time>
      </trkpt>
      <trkpt lat="42.72316" lon="-0.08912">
        <ele>2518</ele>
        <time>2014-05-17T07:59:00Z</time>
      </trkpt>
      <trkpt lat="42.72315" lon="-0.08919">
        <ele>2520</ele>
        <time>2014-05-17T07:59:07Z</time>
      </trkpt>
      <trkpt lat="42.72312" lon="-0.08931">
        <ele>2523</ele>
        <time>2014-05-17T07:59:21Z</time>
      </trkpt>
      <trkpt lat="42.72309" lon="-0.08946">
        <ele>2525</ele>
        <time>2014-05-17T07:59:38Z</time>
      </trkpt>
      <trkpt lat="42.72306" lon="-0.08958">
        <ele>2528</ele>
        <time>2014-05-17T07:59:53Z</time>
      </trkpt>
      <trkpt lat="42.72303" lon="-0.08971">
        <ele>2530</ele>
        <time>2014-05-17T08:00:09Z</time>
      </trkpt>
      <trkpt lat="42.72301" lon="-0.08975">
        <ele>2532</ele>
        <time>2014-05-17T08:00:24Z</time>
      </trkpt>
      <trkpt lat="42.72296" lon="-0.08959">
        <ele>2534</ele>
        <time>2014-05-17T08:00:44Z</time>
      </trkpt>
      <trkpt lat="42.72292" lon="-0.08947">
        <ele>2538</ele>
        <time>2014-05-17T08:00:59Z</time>
      </trkpt>
      <trkpt lat="42.72287" lon="-0.08934">
        <ele>2539</ele>
        <time>2014-05-17T08:01:18Z</time>
      </trkpt>
      <trkpt lat="42.72282" lon="-0.08924">
        <ele>2542</ele>
        <time>2014-05-17T08:01:33Z</time>
      </trkpt>
      <trkpt lat="42.72282" lon="-0.08921">
        <ele>2544</ele>
        <time>2014-05-17T08:01:51Z</time>
      </trkpt>
      <trkpt lat="42.72279" lon="-0.08933">
        <ele>2546</ele>
        <time>2014-05-17T08:02:07Z</time>
      </trkpt>
      <trkpt lat="42.72276" lon="-0.08946">
        <ele>2549</ele>
        <time>2014-05-17T08:02:21Z</time>
      </trkpt>
      <trkpt lat="42.72272" lon="-0.08958">
        <ele>2552</ele>
        <time>2014-05-17T08:02:35Z</time>
      </trkpt>
      <trkpt lat="42.72268" lon="-0.08973">
        <ele>2555</ele>
        <time>2014-05-17T08:02:52Z</time>
      </trkpt>
      <trkpt lat="42.72264" lon="-0.08982">
        <ele>2558</ele>
        <time>2014-05-17T08:03:10Z</time>
      </trkpt>
      <trkpt lat="42.72259" lon="-0.08996">
        <ele>2561</ele>
        <time>2014-05-17T08:03:28Z</time>
      </trkpt>
      <trkpt lat="42.72257" lon="-0.08998">
        <ele>2563</ele>
        <time>2014-05-17T08:03:43Z</time>
      </trkpt>
      <trkpt lat="42.72257" lon="-0.08995">
        <ele>2561</ele>
        <time>2014-05-17T08:03:46Z</time>
      </trkpt>
      <trkpt lat="42.72254" lon="-0.08983">
        <ele>2561</ele>
        <time>2014-05-17T08:03:59Z</time>
      </trkpt>
      <trkpt lat="42.72251" lon="-0.08978">
        <ele>2564</ele>
        <time>2014-05-17T08:04:07Z</time>
      </trkpt>
      <trkpt lat="42.72245" lon="-0.08964">
        <ele>2566</ele>
        <time>2014-05-17T08:04:25Z</time>
      </trkpt>
      <trkpt lat="42.72242" lon="-0.08951">
        <ele>2569</ele>
        <time>2014-05-17T08:04:41Z</time>
      </trkpt>
      <trkpt lat="42.72242" lon="-0.08937">
        <ele>2571</ele>
        <time>2014-05-17T08:04:59Z</time>
      </trkpt>
      <trkpt lat="42.7224" lon="-0.08938">
        <ele>2573</ele>
        <time>2014-05-17T08:05:13Z</time>
      </trkpt>
      <trkpt lat="42.72234" lon="-0.08949">
        <ele>2575</ele>
        <time>2014-05-17T08:05:30Z</time>
      </trkpt>
      <trkpt lat="42.72227" lon="-0.0896">
        <ele>2578</ele>
        <time>2014-05-17T08:05:45Z</time>
      </trkpt>
      <trkpt lat="42.72223" lon="-0.0897">
        <ele>2581</ele>
        <time>2014-05-17T08:05:58Z</time>
      </trkpt>
      <trkpt lat="42.72218" lon="-0.08982">
        <ele>2584</ele>
        <time>2014-05-17T08:06:14Z</time>
      </trkpt>
      <trkpt lat="42.72215" lon="-0.08994">
        <ele>2586</ele>
        <time>2014-05-17T08:06:30Z</time>
      </trkpt>
      <trkpt lat="42.72211" lon="-0.09003">
        <ele>2590</ele>
        <time>2014-05-17T08:06:46Z</time>
      </trkpt>
      <trkpt lat="42.72209" lon="-0.09009">
        <ele>2591</ele>
        <time>2014-05-17T08:07:01Z</time>
      </trkpt>
      <trkpt lat="42.72207" lon="-0.09005">
        <ele>2592</ele>
        <time>2014-05-17T08:07:18Z</time>
      </trkpt>
      <trkpt lat="42.72204" lon="-0.08992">
        <ele>2593</ele>
        <time>2014-05-17T08:07:34Z</time>
      </trkpt>
      <trkpt lat="42.722" lon="-0.08976">
        <ele>2596</ele>
        <time>2014-05-17T08:07:52Z</time>
      </trkpt>
      <trkpt lat="42.72201" lon="-0.08964">
        <ele>2598</ele>
        <time>2014-05-17T08:08:08Z</time>
      </trkpt>
      <trkpt lat="42.722" lon="-0.08964">
        <ele>2600</ele>
        <time>2014-05-17T08:08:25Z</time>
      </trkpt>
      <trkpt lat="42.722" lon="-0.08965">
        <ele>2598</ele>
        <time>2014-05-17T08:08:28Z</time>
      </trkpt>
      <trkpt lat="42.722" lon="-0.08966">
        <ele>2602</ele>
        <time>2014-05-17T08:08:39Z</time>
      </trkpt>
      <trkpt lat="42.72195" lon="-0.08974">
        <ele>2601</ele>
        <time>2014-05-17T08:08:56Z</time>
      </trkpt>
      <trkpt lat="42.72191" lon="-0.08984">
        <ele>2605</ele>
        <time>2014-05-17T08:09:08Z</time>
      </trkpt>
      <trkpt lat="42.72184" lon="-0.08994">
        <ele>2609</ele>
        <time>2014-05-17T08:09:23Z</time>
      </trkpt>
      <trkpt lat="42.72184" lon="-0.08994">
        <ele>2609</ele>
        <time>2014-05-17T08:09:24Z</time>
      </trkpt>
      <trkpt lat="42.72178" lon="-0.09002">
        <ele>2612</ele>
        <time>2014-05-17T08:09:39Z</time>
      </trkpt>
      <trkpt lat="42.72173" lon="-0.09004">
        <ele>2614</ele>
        <time>2014-05-17T08:09:54Z</time>
      </trkpt>
      <trkpt lat="42.72162" lon="-0.09011">
        <ele>2617</ele>
        <time>2014-05-17T08:10:09Z</time>
      </trkpt>
      <trkpt lat="42.72157" lon="-0.09011">
        <ele>2618</ele>
        <time>2014-05-17T08:10:15Z</time>
      </trkpt>
      <trkpt lat="42.72145" lon="-0.09012">
        <ele>2620</ele>
        <time>2014-05-17T08:10:31Z</time>
      </trkpt>
      <trkpt lat="42.72136" lon="-0.09013">
        <ele>2621</ele>
        <time>2014-05-17T08:10:49Z</time>
      </trkpt>
      <trkpt lat="42.72137" lon="-0.09008">
        <ele>2620</ele>
        <time>2014-05-17T08:11:16Z</time>
      </trkpt>
      <trkpt lat="42.72143" lon="-0.08996">
        <ele>2621</ele>
        <time>2014-05-17T08:11:35Z</time>
      </trkpt>
      <trkpt lat="42.72144" lon="-0.08992">
        <ele>2623</ele>
        <time>2014-05-17T08:11:39Z</time>
      </trkpt>
      <trkpt lat="42.72149" lon="-0.08982">
        <ele>2625</ele>
        <time>2014-05-17T08:11:52Z</time>
      </trkpt>
      <trkpt lat="42.72151" lon="-0.08979">
        <ele>2626</ele>
        <time>2014-05-17T08:11:56Z</time>
      </trkpt>
      <trkpt lat="42.72154" lon="-0.08966">
        <ele>2630</ele>
        <time>2014-05-17T08:12:13Z</time>
      </trkpt>
      <trkpt lat="42.72153" lon="-0.08967">
        <ele>2630</ele>
        <time>2014-05-17T08:12:14Z</time>
      </trkpt>
      <trkpt lat="42.72145" lon="-0.08971">
        <ele>2632</ele>
        <time>2014-05-17T08:12:28Z</time>
      </trkpt>
      <trkpt lat="42.72138" lon="-0.08973">
        <ele>2636</ele>
        <time>2014-05-17T08:12:40Z</time>
      </trkpt>
      <trkpt lat="42.72137" lon="-0.08971">
        <ele>2632</ele>
        <time>2014-05-17T08:12:53Z</time>
      </trkpt>
      <trkpt lat="42.7214" lon="-0.08966">
        <ele>2634</ele>
        <time>2014-05-17T08:12:58Z</time>
      </trkpt>
      <trkpt lat="42.72145" lon="-0.08952">
        <ele>2637</ele>
        <time>2014-05-17T08:13:15Z</time>
      </trkpt>
      <trkpt lat="42.72148" lon="-0.0894">
        <ele>2638</ele>
        <time>2014-05-17T08:13:31Z</time>
      </trkpt>
      <trkpt lat="42.72148" lon="-0.08935">
        <ele>2637</ele>
        <time>2014-05-17T08:13:37Z</time>
      </trkpt>
      <trkpt lat="42.7215" lon="-0.08932">
        <ele>2641</ele>
        <time>2014-05-17T08:13:41Z</time>
      </trkpt>
      <trkpt lat="42.72155" lon="-0.08917">
        <ele>2643</ele>
        <time>2014-05-17T08:14:00Z</time>
      </trkpt>
      <trkpt lat="42.72156" lon="-0.08914">
        <ele>2644</ele>
        <time>2014-05-17T08:14:03Z</time>
      </trkpt>
      <trkpt lat="42.72157" lon="-0.08901">
        <ele>2648</ele>
        <time>2014-05-17T08:14:18Z</time>
      </trkpt>
      <trkpt lat="42.72158" lon="-0.089">
        <ele>2648</ele>
        <time>2014-05-17T08:14:19Z</time>
      </trkpt>
      <trkpt lat="42.7216" lon="-0.08887">
        <ele>2651</ele>
        <time>2014-05-17T08:14:34Z</time>
      </trkpt>
      <trkpt lat="42.72162" lon="-0.08872">
        <ele>2653</ele>
        <time>2014-05-17T08:14:52Z</time>
      </trkpt>
      <trkpt lat="42.72163" lon="-0.08863">
        <ele>2658</ele>
        <time>2014-05-17T08:15:04Z</time>
      </trkpt>
      <trkpt lat="42.72165" lon="-0.08858">
        <ele>2657</ele>
        <time>2014-05-17T08:15:12Z</time>
      </trkpt>
      <trkpt lat="42.72165" lon="-0.08844">
        <ele>2660</ele>
        <time>2014-05-17T08:15:33Z</time>
      </trkpt>
      <trkpt lat="42.72164" lon="-0.08849">
        <ele>2661</ele>
        <time>2014-05-17T08:15:52Z</time>
      </trkpt>
      <trkpt lat="42.72154" lon="-0.08857">
        <ele>2661</ele>
        <time>2014-05-17T08:16:11Z</time>
      </trkpt>
      <trkpt lat="42.72145" lon="-0.08868">
        <ele>2664</ele>
        <time>2014-05-17T08:16:29Z</time>
      </trkpt>
      <trkpt lat="42.72141" lon="-0.08872">
        <ele>2665</ele>
        <time>2014-05-17T08:16:45Z</time>
      </trkpt>
      <trkpt lat="42.72136" lon="-0.08875">
        <ele>2667</ele>
        <time>2014-05-17T08:17:05Z</time>
      </trkpt>
      <trkpt lat="42.72135" lon="-0.08874">
        <ele>2668</ele>
        <time>2014-05-17T08:17:21Z</time>
      </trkpt>
      <trkpt lat="42.72136" lon="-0.08863">
        <ele>2671</ele>
        <time>2014-05-17T08:17:34Z</time>
      </trkpt>
      <trkpt lat="42.72138" lon="-0.08847">
        <ele>2673</ele>
        <time>2014-05-17T08:17:50Z</time>
      </trkpt>
      <trkpt lat="42.7214" lon="-0.08833">
        <ele>2675</ele>
        <time>2014-05-17T08:18:05Z</time>
      </trkpt>
      <trkpt lat="42.72144" lon="-0.08823">
        <ele>2678</ele>
        <time>2014-05-17T08:18:17Z</time>
      </trkpt>
      <trkpt lat="42.72149" lon="-0.08809">
        <ele>2681</ele>
        <time>2014-05-17T08:18:33Z</time>
      </trkpt>
      <trkpt lat="42.72143" lon="-0.08816">
        <ele>2681</ele>
        <time>2014-05-17T08:18:51Z</time>
      </trkpt>
      <trkpt lat="42.72134" lon="-0.08819">
        <ele>2685</ele>
        <time>2014-05-17T08:19:07Z</time>
      </trkpt>
      <trkpt lat="42.72132" lon="-0.08816">
        <ele>2684</ele>
        <time>2014-05-17T08:19:27Z</time>
      </trkpt>
      <trkpt lat="42.72136" lon="-0.08808">
        <ele>2687</ele>
        <time>2014-05-17T08:19:38Z</time>
      </trkpt>
      <trkpt lat="42.72136" lon="-0.08808">
        <ele>2687</ele>
        <time>2014-05-17T08:19:39Z</time>
      </trkpt>
      <trkpt lat="42.72141" lon="-0.08801">
        <ele>2691</ele>
        <time>2014-05-17T08:19:52Z</time>
      </trkpt>
      <trkpt lat="42.72142" lon="-0.08793">
        <ele>2692</ele>
        <time>2014-05-17T08:20:01Z</time>
      </trkpt>
      <trkpt lat="42.72144" lon="-0.08788">
        <ele>2692</ele>
        <time>2014-05-17T08:20:24Z</time>
      </trkpt>
      <trkpt lat="42.72149" lon="-0.08779">
        <ele>2692</ele>
        <time>2014-05-17T08:20:45Z</time>
      </trkpt>
      <trkpt lat="42.7215" lon="-0.08776">
        <ele>2692</ele>
        <time>2014-05-17T08:20:55Z</time>
      </trkpt>
      <trkpt lat="42.72152" lon="-0.08774">
        <ele>2693</ele>
        <time>2014-05-17T08:21:13Z</time>
      </trkpt>
      <trkpt lat="42.72154" lon="-0.08773">
        <ele>2690</ele>
        <time>2014-05-17T08:21:36Z</time>
      </trkpt>
      <trkpt lat="42.72155" lon="-0.08773">
        <ele>2691</ele>
        <time>2014-05-17T08:21:57Z</time>
      </trkpt>
      <trkpt lat="42.72155" lon="-0.08773">
        <ele>2687</ele>
        <time>2014-05-17T08:22:10Z</time>
      </trkpt>
      <trkpt lat="42.72155" lon="-0.08774">
        <ele>2692</ele>
        <time>2014-05-17T08:22:12Z</time>
      </trkpt>
      <trkpt lat="42.72156" lon="-0.08773">
        <ele>2691</ele>
        <time>2014-05-17T08:22:31Z</time>
      </trkpt>
      <trkpt lat="42.72156" lon="-0.08769">
        <ele>2692</ele>
        <time>2014-05-17T08:22:51Z</time>
      </trkpt>
      <trkpt lat="42.72154" lon="-0.08767">
        <ele>2694</ele>
        <time>2014-05-17T08:23:13Z</time>
      </trkpt>
      <trkpt lat="42.72153" lon="-0.08767">
        <ele>2695</ele>
        <time>2014-05-17T08:23:31Z</time>
      </trkpt>
      <trkpt lat="42.72154" lon="-0.08767">
        <ele>2693</ele>
        <time>2014-05-17T08:23:48Z</time>
      </trkpt>
      <trkpt lat="42.72154" lon="-0.08767">
        <ele>2695</ele>
        <time>2014-05-17T08:24:14Z</time>
      </trkpt>
      <trkpt lat="42.72154" lon="-0.08767">
        <ele>2696</ele>
        <time>2014-05-17T08:24:33Z</time>
      </trkpt>
      <trkpt lat="42.72154" lon="-0.08767">
        <ele>2694</ele>
        <time>2014-05-17T08:24:41Z</time>
      </trkpt>
      <trkpt lat="42.72154" lon="-0.08767">
        <ele>2694</ele>
        <time>2014-05-17T08:25:05Z</time>
      </trkpt>
      <trkpt lat="42.72154" lon="-0.08768">
        <ele>2695</ele>
        <time>2014-05-17T08:25:24Z</time>
      </trkpt>
      <trkpt lat="42.72155" lon="-0.08767">
        <ele>2695</ele>
        <time>2014-05-17T08:25:43Z</time>
      </trkpt>
      <trkpt lat="42.72154" lon="-0.08767">
        <ele>2695</ele>
        <time>2014-05-17T08:26:04Z</time>
      </trkpt>
      <trkpt lat="42.72155" lon="-0.08767">
        <ele>2695</ele>
        <time>2014-05-17T08:26:13Z</time>
      </trkpt>
      <trkpt lat="42.72156" lon="-0.08767">
        <ele>2695</ele>
        <time>2014-05-17T08:26:34Z</time>
      </trkpt>
      <trkpt lat="42.72154" lon="-0.08767">
        <ele>2694</ele>
        <time>2014-05-17T08:26:58Z</time>
      </trkpt>
      <trkpt lat="42.72154" lon="-0.08767">
        <ele>2695</ele>
        <time>2014-05-17T08:27:23Z</time>
      </trkpt>
      <trkpt lat="42.72154" lon="-0.08768">
        <ele>2695</ele>
        <time>2014-05-17T08:27:37Z</time>
      </trkpt>
      <trkpt lat="42.72155" lon="-0.08768">
        <ele>2695</ele>
        <time>2014-05-17T08:27:59Z</time>
      </trkpt>
      <trkpt lat="42.72154" lon="-0.08769">
        <ele>2695</ele>
        <time>2014-05-17T08:28:24Z</time>
      </trkpt>
      <trkpt lat="42.72153" lon="-0.08768">
        <ele>2695</ele>
        <time>2014-05-17T08:28:51Z</time>
      </trkpt>
      <trkpt lat="42.72154" lon="-0.08767">
        <ele>2695</ele>
        <time>2014-05-17T08:29:12Z</time>
      </trkpt>
      <trkpt lat="42.72154" lon="-0.08767">
        <ele>2694</ele>
        <time>2014-05-17T08:29:32Z</time>
      </trkpt>
      <trkpt lat="42.72154" lon="-0.08767">
        <ele>2691</ele>
        <time>2014-05-17T08:29:53Z</time>
      </trkpt>
      <trkpt lat="42.72154" lon="-0.08767">
        <ele>2695</ele>
        <time>2014-05-17T08:29:55Z</time>
      </trkpt>
      <trkpt lat="42.72155" lon="-0.08767">
        <ele>2693</ele>
        <time>2014-05-17T08:30:23Z</time>
      </trkpt>
      <trkpt lat="42.72155" lon="-0.08767">
        <ele>2694</ele>
        <time>2014-05-17T08:30:26Z</time>
      </trkpt>
      <trkpt lat="42.72153" lon="-0.08768">
        <ele>2698</ele>
        <time>2014-05-17T08:30:38Z</time>
      </trkpt>
      <trkpt lat="42.72151" lon="-0.08769">
        <ele>2694</ele>
        <time>2014-05-17T08:30:44Z</time>
      </trkpt>
      <trkpt lat="42.72147" lon="-0.08774">
        <ele>2698</ele>
        <time>2014-05-17T08:30:52Z</time>
      </trkpt>
      <trkpt lat="42.72146" lon="-0.08775">
        <ele>2699</ele>
        <time>2014-05-17T08:30:54Z</time>
      </trkpt>
      <trkpt lat="42.72139" lon="-0.08781">
        <ele>2701</ele>
        <time>2014-05-17T08:31:06Z</time>
      </trkpt>
      <trkpt lat="42.72137" lon="-0.08784">
        <ele>2698</ele>
        <time>2014-05-17T08:31:18Z</time>
      </trkpt>
      <trkpt lat="42.72138" lon="-0.08783">
        <ele>2703</ele>
        <time>2014-05-17T08:31:23Z</time>
      </trkpt>
      <trkpt lat="42.72138" lon="-0.08783">
        <ele>2700</ele>
        <time>2014-05-17T08:31:24Z</time>
      </trkpt>
      <trkpt lat="42.72135" lon="-0.08784">
        <ele>2700</ele>
        <time>2014-05-17T08:31:44Z</time>
      </trkpt>
      <trkpt lat="42.72135" lon="-0.08784">
        <ele>2701</ele>
        <time>2014-05-17T08:31:46Z</time>
      </trkpt>
      <trkpt lat="42.72133" lon="-0.08784">
        <ele>2700</ele>
        <time>2014-05-17T08:31:51Z</time>
      </trkpt>
      <trkpt lat="42.72134" lon="-0.08785">
        <ele>2705</ele>
        <time>2014-05-17T08:31:59Z</time>
      </trkpt>
      <trkpt lat="42.72134" lon="-0.08785">
        <ele>2701</ele>
        <time>2014-05-17T08:32:02Z</time>
      </trkpt>
      <trkpt lat="42.72133" lon="-0.08783">
        <ele>2704</ele>
        <time>2014-05-17T08:32:21Z</time>
      </trkpt>
      <trkpt lat="42.72133" lon="-0.08784">
        <ele>2704</ele>
        <time>2014-05-17T08:32:22Z</time>
      </trkpt>
      <trkpt lat="42.72133" lon="-0.08783">
        <ele>2700</ele>
        <time>2014-05-17T08:32:25Z</time>
      </trkpt>
      <trkpt lat="42.72133" lon="-0.08783">
        <ele>2701</ele>
        <time>2014-05-17T08:32:26Z</time>
      </trkpt>
      <trkpt lat="42.72133" lon="-0.08783">
        <ele>2703</ele>
        <time>2014-05-17T08:32:28Z</time>
      </trkpt>
      <trkpt lat="42.72133" lon="-0.08783">
        <ele>2705</ele>
        <time>2014-05-17T08:32:30Z</time>
      </trkpt>
      <trkpt lat="42.72132" lon="-0.08783">
        <ele>2702</ele>
        <time>2014-05-17T08:32:32Z</time>
      </trkpt>
      <trkpt lat="42.72131" lon="-0.08779">
        <ele>2707</ele>
        <time>2014-05-17T08:32:43Z</time>
      </trkpt>
      <trkpt lat="42.72133" lon="-0.08775">
        <ele>2709</ele>
        <time>2014-05-17T08:32:59Z</time>
      </trkpt>
      <trkpt lat="42.72133" lon="-0.08764">
        <ele>2711</ele>
        <time>2014-05-17T08:33:12Z</time>
      </trkpt>
      <trkpt lat="42.72128" lon="-0.08755">
        <ele>2712</ele>
        <time>2014-05-17T08:33:26Z</time>
      </trkpt>
      <trkpt lat="42.72125" lon="-0.0875">
        <ele>2714</ele>
        <time>2014-05-17T08:33:38Z</time>
      </trkpt>
      <trkpt lat="42.72125" lon="-0.0875">
        <ele>2711</ele>
        <time>2014-05-17T08:33:43Z</time>
      </trkpt>
      <trkpt lat="42.72124" lon="-0.08749">
        <ele>2712</ele>
        <time>2014-05-17T08:33:47Z</time>
      </trkpt>
      <trkpt lat="42.7212" lon="-0.08745">
        <ele>2712</ele>
        <time>2014-05-17T08:34:02Z</time>
      </trkpt>
      <trkpt lat="42.72117" lon="-0.08741">
        <ele>2712</ele>
        <time>2014-05-17T08:34:20Z</time>
      </trkpt>
      <trkpt lat="42.72117" lon="-0.08741">
        <ele>2709</ele>
        <time>2014-05-17T08:34:24Z</time>
      </trkpt>
      <trkpt lat="42.72117" lon="-0.0874">
        <ele>2715</ele>
        <time>2014-05-17T08:34:25Z</time>
      </trkpt>
      <trkpt lat="42.72117" lon="-0.08741">
        <ele>2711</ele>
        <time>2014-05-17T08:34:27Z</time>
      </trkpt>
      <trkpt lat="42.72117" lon="-0.0874">
        <ele>2715</ele>
        <time>2014-05-17T08:34:28Z</time>
      </trkpt>
      <trkpt lat="42.72116" lon="-0.08736">
        <ele>2714</ele>
        <time>2014-05-17T08:34:45Z</time>
      </trkpt>
      <trkpt lat="42.7211" lon="-0.08726">
        <ele>2717</ele>
        <time>2014-05-17T08:34:59Z</time>
      </trkpt>
      <trkpt lat="42.72108" lon="-0.08721">
        <ele>2716</ele>
        <time>2014-05-17T08:35:07Z</time>
      </trkpt>
      <trkpt lat="42.72103" lon="-0.08712">
        <ele>2715</ele>
        <time>2014-05-17T08:35:24Z</time>
      </trkpt>
      <trkpt lat="42.72101" lon="-0.0871">
        <ele>2715</ele>
        <time>2014-05-17T08:35:46Z</time>
      </trkpt>
      <trkpt lat="42.721" lon="-0.08709">
        <ele>2715</ele>
        <time>2014-05-17T08:36:04Z</time>
      </trkpt>
      <trkpt lat="42.72098" lon="-0.0871">
        <ele>2714</ele>
        <time>2014-05-17T08:36:19Z</time>
      </trkpt>
      <trkpt lat="42.72094" lon="-0.08704">
        <ele>2712</ele>
        <time>2014-05-17T08:36:27Z</time>
      </trkpt>
      <trkpt lat="42.72093" lon="-0.08703">
        <ele>2709</ele>
        <time>2014-05-17T08:36:40Z</time>
      </trkpt>
      <trkpt lat="42.72093" lon="-0.08703">
        <ele>2714</ele>
        <time>2014-05-17T08:36:41Z</time>
      </trkpt>
      <trkpt lat="42.72093" lon="-0.08703">
        <ele>2713</ele>
        <time>2014-05-17T08:36:42Z</time>
      </trkpt>
      <trkpt lat="42.72095" lon="-0.087">
        <ele>2712</ele>
        <time>2014-05-17T08:37:06Z</time>
      </trkpt>
      <trkpt lat="42.72098" lon="-0.08702">
        <ele>2712</ele>
        <time>2014-05-17T08:37:25Z</time>
      </trkpt>
      <trkpt lat="42.72094" lon="-0.08701">
        <ele>2712</ele>
        <time>2014-05-17T08:37:48Z</time>
      </trkpt>
      <trkpt lat="42.72099" lon="-0.08703">
        <ele>2713</ele>
        <time>2014-05-17T08:38:17Z</time>
      </trkpt>
      <trkpt lat="42.72096" lon="-0.08703">
        <ele>2705</ele>
        <time>2014-05-17T08:38:32Z</time>
      </trkpt>
      <trkpt lat="42.72096" lon="-0.08703">
        <ele>2711</ele>
        <time>2014-05-17T08:38:33Z</time>
      </trkpt>
      <trkpt lat="42.72095" lon="-0.08702">
        <ele>2713</ele>
        <time>2014-05-17T08:38:35Z</time>
      </trkpt>
      <trkpt lat="42.72094" lon="-0.08702">
        <ele>2720</ele>
        <time>2014-05-17T08:38:57Z</time>
      </trkpt>
      <trkpt lat="42.72094" lon="-0.08703">
        <ele>2714</ele>
        <time>2014-05-17T08:38:58Z</time>
      </trkpt>
      <trkpt lat="42.72097" lon="-0.08705">
        <ele>2713</ele>
        <time>2014-05-17T08:39:17Z</time>
      </trkpt>
      <trkpt lat="42.72095" lon="-0.08703">
        <ele>2714</ele>
        <time>2014-05-17T08:39:25Z</time>
      </trkpt>
      <trkpt lat="42.72092" lon="-0.087">
        <ele>2713</ele>
        <time>2014-05-17T08:40:02Z</time>
      </trkpt>
      <trkpt lat="42.72095" lon="-0.08702">
        <ele>2713</ele>
        <time>2014-05-17T08:40:41Z</time>
      </trkpt>
      <trkpt lat="42.72095" lon="-0.08702">
        <ele>2713</ele>
        <time>2014-05-17T08:41:08Z</time>
      </trkpt>
      <trkpt lat="42.72095" lon="-0.08701">
        <ele>2713</ele>
        <time>2014-05-17T08:41:35Z</time>
      </trkpt>
      <trkpt lat="42.72094" lon="-0.08703">
        <ele>2713</ele>
        <time>2014-05-17T08:41:52Z</time>
      </trkpt>
      <trkpt lat="42.72095" lon="-0.08701">
        <ele>2713</ele>
        <time>2014-05-17T08:42:15Z</time>
      </trkpt>
      <trkpt lat="42.72095" lon="-0.08702">
        <ele>2712</ele>
        <time>2014-05-17T08:42:35Z</time>
      </trkpt>
      <trkpt lat="42.72094" lon="-0.08701">
        <ele>2713</ele>
        <time>2014-05-17T08:42:54Z</time>
      </trkpt>
      <trkpt lat="42.72095" lon="-0.08701">
        <ele>2712</ele>
        <time>2014-05-17T08:43:21Z</time>
      </trkpt>
      <trkpt lat="42.72094" lon="-0.08703">
        <ele>2713</ele>
        <time>2014-05-17T08:43:45Z</time>
      </trkpt>
      <trkpt lat="42.72091" lon="-0.08703">
        <ele>2713</ele>
        <time>2014-05-17T08:44:06Z</time>
      </trkpt>
      <trkpt lat="42.72093" lon="-0.08704">
        <ele>2713</ele>
        <time>2014-05-17T08:44:35Z</time>
      </trkpt>
      <trkpt lat="42.72092" lon="-0.08705">
        <ele>2713</ele>
        <time>2014-05-17T08:44:59Z</time>
      </trkpt>
      <trkpt lat="42.72091" lon="-0.08706">
        <ele>2713</ele>
        <time>2014-05-17T08:45:22Z</time>
      </trkpt>
      <trkpt lat="42.72092" lon="-0.08704">
        <ele>2713</ele>
        <time>2014-05-17T08:45:56Z</time>
      </trkpt>
      <trkpt lat="42.72092" lon="-0.08706">
        <ele>2712</ele>
        <time>2014-05-17T08:46:18Z</time>
      </trkpt>
      <trkpt lat="42.72091" lon="-0.08705">
        <ele>2713</ele>
        <time>2014-05-17T08:46:44Z</time>
      </trkpt>
      <trkpt lat="42.72093" lon="-0.08703">
        <ele>2713</ele>
        <time>2014-05-17T08:47:07Z</time>
      </trkpt>
      <trkpt lat="42.72092" lon="-0.08704">
        <ele>2713</ele>
        <time>2014-05-17T08:47:35Z</time>
      </trkpt>
      <trkpt lat="42.72093" lon="-0.08705">
        <ele>2713</ele>
        <time>2014-05-17T08:48:00Z</time>
      </trkpt>
      <trkpt lat="42.72093" lon="-0.08704">
        <ele>2713</ele>
        <time>2014-05-17T08:48:26Z</time>
      </trkpt>
      <trkpt lat="42.72094" lon="-0.08703">
        <ele>2713</ele>
        <time>2014-05-17T08:48:45Z</time>
      </trkpt>
      <trkpt lat="42.72092" lon="-0.08704">
        <ele>2713</ele>
        <time>2014-05-17T08:49:10Z</time>
      </trkpt>
      <trkpt lat="42.72093" lon="-0.08705">
        <ele>2713</ele>
        <time>2014-05-17T08:49:35Z</time>
      </trkpt>
      <trkpt lat="42.72092" lon="-0.08706">
        <ele>2713</ele>
        <time>2014-05-17T08:49:59Z</time>
      </trkpt>
      <trkpt lat="42.72092" lon="-0.08704">
        <ele>2713</ele>
        <time>2014-05-17T08:50:30Z</time>
      </trkpt>
      <trkpt lat="42.72093" lon="-0.08706">
        <ele>2714</ele>
        <time>2014-05-17T08:50:51Z</time>
      </trkpt>
      <trkpt lat="42.72095" lon="-0.08704">
        <ele>2713</ele>
        <time>2014-05-17T08:51:17Z</time>
      </trkpt>
      <trkpt lat="42.72096" lon="-0.08701">
        <ele>2713</ele>
        <time>2014-05-17T08:51:41Z</time>
      </trkpt>
      <trkpt lat="42.72095" lon="-0.08703">
        <ele>2713</ele>
        <time>2014-05-17T08:52:05Z</time>
      </trkpt>
      <trkpt lat="42.72095" lon="-0.08702">
        <ele>2713</ele>
        <time>2014-05-17T08:52:44Z</time>
      </trkpt>
      <trkpt lat="42.72094" lon="-0.08703">
        <ele>2713</ele>
        <time>2014-05-17T08:53:20Z</time>
      </trkpt>
      <trkpt lat="42.72094" lon="-0.08702">
        <ele>2713</ele>
        <time>2014-05-17T08:53:56Z</time>
      </trkpt>
      <trkpt lat="42.72094" lon="-0.087">
        <ele>2714</ele>
        <time>2014-05-17T08:54:27Z</time>
      </trkpt>
      <trkpt lat="42.72094" lon="-0.08699">
        <ele>2713</ele>
        <time>2014-05-17T08:55:00Z</time>
      </trkpt>
      <trkpt lat="42.72095" lon="-0.08699">
        <ele>2714</ele>
        <time>2014-05-17T08:55:26Z</time>
      </trkpt>
      <trkpt lat="42.72094" lon="-0.08704">
        <ele>2714</ele>
        <time>2014-05-17T08:55:44Z</time>
      </trkpt>
      <trkpt lat="42.72092" lon="-0.08704">
        <ele>2715</ele>
        <time>2014-05-17T08:56:06Z</time>
      </trkpt>
      <trkpt lat="42.72091" lon="-0.08704">
        <ele>2713</ele>
        <time>2014-05-17T08:56:37Z</time>
      </trkpt>
      <trkpt lat="42.7209" lon="-0.08705">
        <ele>2714</ele>
        <time>2014-05-17T08:57:05Z</time>
      </trkpt>
      <trkpt lat="42.72092" lon="-0.08702">
        <ele>2713</ele>
        <time>2014-05-17T08:57:30Z</time>
      </trkpt>
      <trkpt lat="42.72093" lon="-0.08703">
        <ele>2714</ele>
        <time>2014-05-17T08:57:53Z</time>
      </trkpt>
      <trkpt lat="42.72093" lon="-0.08701">
        <ele>2714</ele>
        <time>2014-05-17T08:58:14Z</time>
      </trkpt>
      <trkpt lat="42.72095" lon="-0.08699">
        <ele>2713</ele>
        <time>2014-05-17T08:58:34Z</time>
      </trkpt>
      <trkpt lat="42.72096" lon="-0.087">
        <ele>2714</ele>
        <time>2014-05-17T08:58:58Z</time>
      </trkpt>
      <trkpt lat="42.72097" lon="-0.08707">
        <ele>2716</ele>
        <time>2014-05-17T08:59:19Z</time>
      </trkpt>
      <trkpt lat="42.72104" lon="-0.08717">
        <ele>2718</ele>
        <time>2014-05-17T08:59:36Z</time>
      </trkpt>
      <trkpt lat="42.72107" lon="-0.08722">
        <ele>2719</ele>
        <time>2014-05-17T08:59:57Z</time>
      </trkpt>
      <trkpt lat="42.72106" lon="-0.08722">
        <ele>2719</ele>
        <time>2014-05-17T09:00:26Z</time>
      </trkpt>
      <trkpt lat="42.72111" lon="-0.08728">
        <ele>2718</ele>
        <time>2014-05-17T09:00:42Z</time>
      </trkpt>
      <trkpt lat="42.72112" lon="-0.08735">
        <ele>2716</ele>
        <time>2014-05-17T09:00:56Z</time>
      </trkpt>
      <trkpt lat="42.72114" lon="-0.0874">
        <ele>2712</ele>
        <time>2014-05-17T09:01:13Z</time>
      </trkpt>
      <trkpt lat="42.72114" lon="-0.0874">
        <ele>2716</ele>
        <time>2014-05-17T09:01:15Z</time>
      </trkpt>
      <trkpt lat="42.72114" lon="-0.0874">
        <ele>2714</ele>
        <time>2014-05-17T09:01:16Z</time>
      </trkpt>
      <trkpt lat="42.72117" lon="-0.08743">
        <ele>2712</ele>
        <time>2014-05-17T09:01:38Z</time>
      </trkpt>
      <trkpt lat="42.72123" lon="-0.0875">
        <ele>2715</ele>
        <time>2014-05-17T09:01:55Z</time>
      </trkpt>
      <trkpt lat="42.72126" lon="-0.08758">
        <ele>2713</ele>
        <time>2014-05-17T09:02:03Z</time>
      </trkpt>
      <trkpt lat="42.72128" lon="-0.08769">
        <ele>2712</ele>
        <time>2014-05-17T09:02:19Z</time>
      </trkpt>
      <trkpt lat="42.72128" lon="-0.08774">
        <ele>2707</ele>
        <time>2014-05-17T09:02:38Z</time>
      </trkpt>
      <trkpt lat="42.72128" lon="-0.08779">
        <ele>2708</ele>
        <time>2014-05-17T09:02:54Z</time>
      </trkpt>
      <trkpt lat="42.72128" lon="-0.08779">
        <ele>2704</ele>
        <time>2014-05-17T09:02:55Z</time>
      </trkpt>
      <trkpt lat="42.72129" lon="-0.08779">
        <ele>2709</ele>
        <time>2014-05-17T09:02:56Z</time>
      </trkpt>
      <trkpt lat="42.72129" lon="-0.0878">
        <ele>2702</ele>
        <time>2014-05-17T09:02:59Z</time>
      </trkpt>
      <trkpt lat="42.72129" lon="-0.0878">
        <ele>2705</ele>
        <time>2014-05-17T09:03:00Z</time>
      </trkpt>
      <trkpt lat="42.72129" lon="-0.0878">
        <ele>2711</ele>
        <time>2014-05-17T09:03:01Z</time>
      </trkpt>
      <trkpt lat="42.72129" lon="-0.0878">
        <ele>2707</ele>
        <time>2014-05-17T09:03:02Z</time>
      </trkpt>
      <trkpt lat="42.72129" lon="-0.08782">
        <ele>2705</ele>
        <time>2014-05-17T09:03:05Z</time>
      </trkpt>
      <trkpt lat="42.72129" lon="-0.08782">
        <ele>2700</ele>
        <time>2014-05-17T09:03:11Z</time>
      </trkpt>
      <trkpt lat="42.72129" lon="-0.08782">
        <ele>2709</ele>
        <time>2014-05-17T09:03:12Z</time>
      </trkpt>
      <trkpt lat="42.72129" lon="-0.08782">
        <ele>2705</ele>
        <time>2014-05-17T09:03:14Z</time>
      </trkpt>
      <trkpt lat="42.72128" lon="-0.08785">
        <ele>2702</ele>
        <time>2014-05-17T09:03:30Z</time>
      </trkpt>
      <trkpt lat="42.72128" lon="-0.08785">
        <ele>2704</ele>
        <time>2014-05-17T09:03:33Z</time>
      </trkpt>
      <trkpt lat="42.72129" lon="-0.08785">
        <ele>2703</ele>
        <time>2014-05-17T09:03:35Z</time>
      </trkpt>
      <trkpt lat="42.72134" lon="-0.08782">
        <ele>2703</ele>
        <time>2014-05-17T09:03:55Z</time>
      </trkpt>
      <trkpt lat="42.72134" lon="-0.08783">
        <ele>2700</ele>
        <time>2014-05-17T09:04:09Z</time>
      </trkpt>
      <trkpt lat="42.72134" lon="-0.08784">
        <ele>2704</ele>
        <time>2014-05-17T09:04:11Z</time>
      </trkpt>
      <trkpt lat="42.72135" lon="-0.08784">
        <ele>2702</ele>
        <time>2014-05-17T09:04:12Z</time>
      </trkpt>
      <trkpt lat="42.72135" lon="-0.08783">
        <ele>2702</ele>
        <time>2014-05-17T09:04:14Z</time>
      </trkpt>
      <trkpt lat="42.72138" lon="-0.08779">
        <ele>2701</ele>
        <time>2014-05-17T09:04:26Z</time>
      </trkpt>
      <trkpt lat="42.72148" lon="-0.08771">
        <ele>2700</ele>
        <time>2014-05-17T09:04:42Z</time>
      </trkpt>
      <trkpt lat="42.72148" lon="-0.08768">
        <ele>2696</ele>
        <time>2014-05-17T09:04:50Z</time>
      </trkpt>
      <trkpt lat="42.72147" lon="-0.08771">
        <ele>2697</ele>
        <time>2014-05-17T09:05:15Z</time>
      </trkpt>
      <trkpt lat="42.72146" lon="-0.08772">
        <ele>2698</ele>
        <time>2014-05-17T09:05:26Z</time>
      </trkpt>
      <trkpt lat="42.72147" lon="-0.08773">
        <ele>2696</ele>
        <time>2014-05-17T09:05:28Z</time>
      </trkpt>
      <trkpt lat="42.72151" lon="-0.08768">
        <ele>2695</ele>
        <time>2014-05-17T09:05:51Z</time>
      </trkpt>
      <trkpt lat="42.72154" lon="-0.08765">
        <ele>2695</ele>
        <time>2014-05-17T09:06:05Z</time>
      </trkpt>
      <trkpt lat="42.72156" lon="-0.08766">
        <ele>2696</ele>
        <time>2014-05-17T09:06:26Z</time>
      </trkpt>
      <trkpt lat="42.72155" lon="-0.08766">
        <ele>2696</ele>
        <time>2014-05-17T09:06:48Z</time>
      </trkpt>
      <trkpt lat="42.72155" lon="-0.08766">
        <ele>2695</ele>
        <time>2014-05-17T09:07:15Z</time>
      </trkpt>
      <trkpt lat="42.72157" lon="-0.08765">
        <ele>2696</ele>
        <time>2014-05-17T09:07:45Z</time>
      </trkpt>
      <trkpt lat="42.72156" lon="-0.08765">
        <ele>2696</ele>
        <time>2014-05-17T09:08:16Z</time>
      </trkpt>
      <trkpt lat="42.72156" lon="-0.08761">
        <ele>2695</ele>
        <time>2014-05-17T09:08:44Z</time>
      </trkpt>
      <trkpt lat="42.72158" lon="-0.08765">
        <ele>2696</ele>
        <time>2014-05-17T09:09:12Z</time>
      </trkpt>
      <trkpt lat="42.72159" lon="-0.08765">
        <ele>2696</ele>
        <time>2014-05-17T09:09:29Z</time>
      </trkpt>
      <trkpt lat="42.72158" lon="-0.08765">
        <ele>2695</ele>
        <time>2014-05-17T09:09:54Z</time>
      </trkpt>
      <trkpt lat="42.72157" lon="-0.08769">
        <ele>2696</ele>
        <time>2014-05-17T09:10:13Z</time>
      </trkpt>
      <trkpt lat="42.72156" lon="-0.08771">
        <ele>2694</ele>
        <time>2014-05-17T09:10:22Z</time>
      </trkpt>
      <trkpt lat="42.72156" lon="-0.08771">
        <ele>2690</ele>
        <time>2014-05-17T09:10:28Z</time>
      </trkpt>
      <trkpt lat="42.72155" lon="-0.08772">
        <ele>2690</ele>
        <time>2014-05-17T09:10:29Z</time>
      </trkpt>
      <trkpt lat="42.72156" lon="-0.08771">
        <ele>2700</ele>
        <time>2014-05-17T09:10:30Z</time>
      </trkpt>
      <trkpt lat="42.72155" lon="-0.08771">
        <ele>2695</ele>
        <time>2014-05-17T09:10:31Z</time>
      </trkpt>
      <trkpt lat="42.72155" lon="-0.08771">
        <ele>2693</ele>
        <time>2014-05-17T09:10:33Z</time>
      </trkpt>
      <trkpt lat="42.72154" lon="-0.08771">
        <ele>2688</ele>
        <time>2014-05-17T09:10:36Z</time>
      </trkpt>
      <trkpt lat="42.72154" lon="-0.08771">
        <ele>2691</ele>
        <time>2014-05-17T09:10:37Z</time>
      </trkpt>
      <trkpt lat="42.72154" lon="-0.08771">
        <ele>2694</ele>
        <time>2014-05-17T09:10:38Z</time>
      </trkpt>
      <trkpt lat="42.72154" lon="-0.08771">
        <ele>2688</ele>
        <time>2014-05-17T09:10:42Z</time>
      </trkpt>
      <trkpt lat="42.72154" lon="-0.08771">
        <ele>2693</ele>
        <time>2014-05-17T09:10:43Z</time>
      </trkpt>
      <trkpt lat="42.72153" lon="-0.08771">
        <ele>2696</ele>
        <time>2014-05-17T09:10:46Z</time>
      </trkpt>
      <trkpt lat="42.72153" lon="-0.08771">
        <ele>2692</ele>
        <time>2014-05-17T09:10:47Z</time>
      </trkpt>
      <trkpt lat="42.72153" lon="-0.08776">
        <ele>2691</ele>
        <time>2014-05-17T09:10:52Z</time>
      </trkpt>
      <trkpt lat="42.72155" lon="-0.08778">
        <ele>2691</ele>
        <time>2014-05-17T09:10:55Z</time>
      </trkpt>
      <trkpt lat="42.72155" lon="-0.08779">
        <ele>2692</ele>
        <time>2014-05-17T09:10:56Z</time>
      </trkpt>
      <trkpt lat="42.72156" lon="-0.0878">
        <ele>2697</ele>
        <time>2014-05-17T09:10:58Z</time>
      </trkpt>
      <trkpt lat="42.72156" lon="-0.0878">
        <ele>2694</ele>
        <time>2014-05-17T09:10:59Z</time>
      </trkpt>
      <trkpt lat="42.72154" lon="-0.0877">
        <ele>2689</ele>
        <time>2014-05-17T09:11:20Z</time>
      </trkpt>
      <trkpt lat="42.72153" lon="-0.08768">
        <ele>2692</ele>
        <time>2014-05-17T09:11:24Z</time>
      </trkpt>
      <trkpt lat="42.72152" lon="-0.08767">
        <ele>2688</ele>
        <time>2014-05-17T09:11:27Z</time>
      </trkpt>
      <trkpt lat="42.72151" lon="-0.08767">
        <ele>2698</ele>
        <time>2014-05-17T09:11:29Z</time>
      </trkpt>
      <trkpt lat="42.72151" lon="-0.08767">
        <ele>2693</ele>
        <time>2014-05-17T09:11:30Z</time>
      </trkpt>
      <trkpt lat="42.72152" lon="-0.08767">
        <ele>2692</ele>
        <time>2014-05-17T09:11:32Z</time>
      </trkpt>
      <trkpt lat="42.72152" lon="-0.08773">
        <ele>2691</ele>
        <time>2014-05-17T09:11:52Z</time>
      </trkpt>
      <trkpt lat="42.72152" lon="-0.08776">
        <ele>2691</ele>
        <time>2014-05-17T09:11:58Z</time>
      </trkpt>
      <trkpt lat="42.72147" lon="-0.08795">
        <ele>2688</ele>
        <time>2014-05-17T09:12:05Z</time>
      </trkpt>
      <trkpt lat="42.72143" lon="-0.08809">
        <ele>2685</ele>
        <time>2014-05-17T09:12:09Z</time>
      </trkpt>
      <trkpt lat="42.72139" lon="-0.08826">
        <ele>2681</ele>
        <time>2014-05-17T09:12:13Z</time>
      </trkpt>
      <trkpt lat="42.72136" lon="-0.08841">
        <ele>2678</ele>
        <time>2014-05-17T09:12:17Z</time>
      </trkpt>
      <trkpt lat="42.72135" lon="-0.08847">
        <ele>2677</ele>
        <time>2014-05-17T09:12:19Z</time>
      </trkpt>
      <trkpt lat="42.72134" lon="-0.08855">
        <ele>2676</ele>
        <time>2014-05-17T09:12:22Z</time>
      </trkpt>
      <trkpt lat="42.72138" lon="-0.08856">
        <ele>2672</ele>
        <time>2014-05-17T09:12:25Z</time>
      </trkpt>
      <trkpt lat="42.72142" lon="-0.08856">
        <ele>2673</ele>
        <time>2014-05-17T09:12:28Z</time>
      </trkpt>
      <trkpt lat="42.72144" lon="-0.08863">
        <ele>2666</ele>
        <time>2014-05-17T09:12:31Z</time>
      </trkpt>
      <trkpt lat="42.72145" lon="-0.08865">
        <ele>2664</ele>
        <time>2014-05-17T09:12:32Z</time>
      </trkpt>
      <trkpt lat="42.7215" lon="-0.0886">
        <ele>2667</ele>
        <time>2014-05-17T09:12:34Z</time>
      </trkpt>
      <trkpt lat="42.72155" lon="-0.08869">
        <ele>2663</ele>
        <time>2014-05-17T09:12:39Z</time>
      </trkpt>
      <trkpt lat="42.72157" lon="-0.08876">
        <ele>2655</ele>
        <time>2014-05-17T09:12:42Z</time>
      </trkpt>
      <trkpt lat="42.72162" lon="-0.08872">
        <ele>2651</ele>
        <time>2014-05-17T09:12:45Z</time>
      </trkpt>
      <trkpt lat="42.72165" lon="-0.08891">
        <ele>2647</ele>
        <time>2014-05-17T09:12:53Z</time>
      </trkpt>
      <trkpt lat="42.72166" lon="-0.08895">
        <ele>2642</ele>
        <time>2014-05-17T09:12:55Z</time>
      </trkpt>
      <trkpt lat="42.72169" lon="-0.08893">
        <ele>2640</ele>
        <time>2014-05-17T09:12:57Z</time>
      </trkpt>
      <trkpt lat="42.72171" lon="-0.08891">
        <ele>2639</ele>
        <time>2014-05-17T09:12:58Z</time>
      </trkpt>
      <trkpt lat="42.72174" lon="-0.089">
        <ele>2637</ele>
        <time>2014-05-17T09:13:02Z</time>
      </trkpt>
      <trkpt lat="42.72174" lon="-0.08907">
        <ele>2635</ele>
        <time>2014-05-17T09:13:05Z</time>
      </trkpt>
      <trkpt lat="42.7218" lon="-0.08918">
        <ele>2628</ele>
        <time>2014-05-17T09:13:11Z</time>
      </trkpt>
      <trkpt lat="42.7218" lon="-0.08922">
        <ele>2626</ele>
        <time>2014-05-17T09:13:12Z</time>
      </trkpt>
      <trkpt lat="42.7218" lon="-0.08929">
        <ele>2626</ele>
        <time>2014-05-17T09:13:14Z</time>
      </trkpt>
      <trkpt lat="42.7218" lon="-0.0894">
        <ele>2623</ele>
        <time>2014-05-17T09:13:19Z</time>
      </trkpt>
      <trkpt lat="42.72179" lon="-0.08959">
        <ele>2619</ele>
        <time>2014-05-17T09:13:24Z</time>
      </trkpt>
      <trkpt lat="42.72179" lon="-0.0897">
        <ele>2617</ele>
        <time>2014-05-17T09:13:26Z</time>
      </trkpt>
      <trkpt lat="42.72174" lon="-0.08984">
        <ele>2619</ele>
        <time>2014-05-17T09:13:38Z</time>
      </trkpt>
      <trkpt lat="42.72175" lon="-0.08985">
        <ele>2618</ele>
        <time>2014-05-17T09:13:41Z</time>
      </trkpt>
      <trkpt lat="42.72178" lon="-0.08987">
        <ele>2608</ele>
        <time>2014-05-17T09:13:44Z</time>
      </trkpt>
      <trkpt lat="42.72182" lon="-0.08982">
        <ele>2606</ele>
        <time>2014-05-17T09:13:46Z</time>
      </trkpt>
      <trkpt lat="42.72183" lon="-0.0898">
        <ele>2608</ele>
        <time>2014-05-17T09:13:47Z</time>
      </trkpt>
      <trkpt lat="42.72186" lon="-0.08978">
        <ele>2605</ele>
        <time>2014-05-17T09:13:49Z</time>
      </trkpt>
      <trkpt lat="42.72189" lon="-0.0898">
        <ele>2610</ele>
        <time>2014-05-17T09:13:51Z</time>
      </trkpt>
      <trkpt lat="42.7219" lon="-0.08984">
        <ele>2608</ele>
        <time>2014-05-17T09:13:52Z</time>
      </trkpt>
      <trkpt lat="42.72195" lon="-0.08989">
        <ele>2597</ele>
        <time>2014-05-17T09:13:55Z</time>
      </trkpt>
      <trkpt lat="42.72197" lon="-0.08984">
        <ele>2595</ele>
        <time>2014-05-17T09:13:57Z</time>
      </trkpt>
      <trkpt lat="42.72201" lon="-0.08981">
        <ele>2599</ele>
        <time>2014-05-17T09:14:00Z</time>
      </trkpt>
      <trkpt lat="42.72203" lon="-0.08984">
        <ele>2597</ele>
        <time>2014-05-17T09:14:01Z</time>
      </trkpt>
      <trkpt lat="42.72204" lon="-0.0899">
        <ele>2596</ele>
        <time>2014-05-17T09:14:03Z</time>
      </trkpt>
      <trkpt lat="42.72208" lon="-0.08991">
        <ele>2587</ele>
        <time>2014-05-17T09:14:05Z</time>
      </trkpt>
      <trkpt lat="42.72213" lon="-0.08985">
        <ele>2585</ele>
        <time>2014-05-17T09:14:07Z</time>
      </trkpt>
      <trkpt lat="42.72214" lon="-0.08982">
        <ele>2585</ele>
        <time>2014-05-17T09:14:08Z</time>
      </trkpt>
      <trkpt lat="42.72218" lon="-0.08971">
        <ele>2581</ele>
        <time>2014-05-17T09:14:11Z</time>
      </trkpt>
      <trkpt lat="42.72221" lon="-0.08964">
        <ele>2580</ele>
        <time>2014-05-17T09:14:13Z</time>
      </trkpt>
      <trkpt lat="42.72225" lon="-0.08968">
        <ele>2581</ele>
        <time>2014-05-17T09:14:16Z</time>
      </trkpt>
      <trkpt lat="42.72229" lon="-0.08968">
        <ele>2572</ele>
        <time>2014-05-17T09:14:18Z</time>
      </trkpt>
      <trkpt lat="42.72234" lon="-0.08961">
        <ele>2570</ele>
        <time>2014-05-17T09:14:20Z</time>
      </trkpt>
      <trkpt lat="42.72241" lon="-0.08961">
        <ele>2572</ele>
        <time>2014-05-17T09:14:23Z</time>
      </trkpt>
      <trkpt lat="42.72247" lon="-0.08962">
        <ele>2566</ele>
        <time>2014-05-17T09:14:25Z</time>
      </trkpt>
      <trkpt lat="42.7225" lon="-0.08959">
        <ele>2563</ele>
        <time>2014-05-17T09:14:26Z</time>
      </trkpt>
      <trkpt lat="42.72261" lon="-0.08961">
        <ele>2557</ele>
        <time>2014-05-17T09:14:31Z</time>
      </trkpt>
      <trkpt lat="42.72267" lon="-0.08957">
        <ele>2553</ele>
        <time>2014-05-17T09:14:33Z</time>
      </trkpt>
      <trkpt lat="42.72273" lon="-0.08955">
        <ele>2555</ele>
        <time>2014-05-17T09:14:36Z</time>
      </trkpt>
      <trkpt lat="42.7228" lon="-0.08959">
        <ele>2547</ele>
        <time>2014-05-17T09:14:38Z</time>
      </trkpt>
      <trkpt lat="42.72291" lon="-0.08951">
        <ele>2543</ele>
        <time>2014-05-17T09:14:41Z</time>
      </trkpt>
      <trkpt lat="42.72294" lon="-0.08957">
        <ele>2544</ele>
        <time>2014-05-17T09:14:49Z</time>
      </trkpt>
      <trkpt lat="42.72292" lon="-0.0896">
        <ele>2543</ele>
        <time>2014-05-17T09:15:03Z</time>
      </trkpt>
      <trkpt lat="42.72296" lon="-0.0896">
        <ele>2538</ele>
        <time>2014-05-17T09:15:05Z</time>
      </trkpt>
      <trkpt lat="42.72299" lon="-0.08951">
        <ele>2534</ele>
        <time>2014-05-17T09:15:07Z</time>
      </trkpt>
      <trkpt lat="42.72299" lon="-0.08938">
        <ele>2532</ele>
        <time>2014-05-17T09:15:11Z</time>
      </trkpt>
      <trkpt lat="42.72304" lon="-0.08935">
        <ele>2527</ele>
        <time>2014-05-17T09:15:14Z</time>
      </trkpt>
      <trkpt lat="42.72307" lon="-0.08931">
        <ele>2523</ele>
        <time>2014-05-17T09:15:15Z</time>
      </trkpt>
      <trkpt lat="42.72314" lon="-0.08929">
        <ele>2525</ele>
        <time>2014-05-17T09:15:17Z</time>
      </trkpt>
      <trkpt lat="42.72317" lon="-0.08931">
        <ele>2525</ele>
        <time>2014-05-17T09:15:18Z</time>
      </trkpt>
      <trkpt lat="42.72331" lon="-0.08917">
        <ele>2511</ele>
        <time>2014-05-17T09:15:22Z</time>
      </trkpt>
      <trkpt lat="42.72337" lon="-0.08882">
        <ele>2503</ele>
        <time>2014-05-17T09:15:30Z</time>
      </trkpt>
      <trkpt lat="42.72339" lon="-0.08878">
        <ele>2500</ele>
        <time>2014-05-17T09:15:31Z</time>
      </trkpt>
      <trkpt lat="42.7234" lon="-0.08874">
        <ele>2500</ele>
        <time>2014-05-17T09:15:32Z</time>
      </trkpt>
      <trkpt lat="42.72358" lon="-0.08877">
        <ele>2493</ele>
        <time>2014-05-17T09:15:37Z</time>
      </trkpt>
      <trkpt lat="42.72363" lon="-0.08874">
        <ele>2487</ele>
        <time>2014-05-17T09:15:38Z</time>
      </trkpt>
      <trkpt lat="42.72372" lon="-0.08862">
        <ele>2487</ele>
        <time>2014-05-17T09:15:40Z</time>
      </trkpt>
      <trkpt lat="42.72374" lon="-0.08846">
        <ele>2487</ele>
        <time>2014-05-17T09:15:43Z</time>
      </trkpt>
      <trkpt lat="42.72374" lon="-0.0883">
        <ele>2484</ele>
        <time>2014-05-17T09:15:46Z</time>
      </trkpt>
      <trkpt lat="42.72379" lon="-0.08823">
        <ele>2481</ele>
        <time>2014-05-17T09:15:50Z</time>
      </trkpt>
      <trkpt lat="42.72382" lon="-0.08823">
        <ele>2476</ele>
        <time>2014-05-17T09:15:51Z</time>
      </trkpt>
      <trkpt lat="42.72389" lon="-0.08811">
        <ele>2472</ele>
        <time>2014-05-17T09:15:53Z</time>
      </trkpt>
      <trkpt lat="42.72395" lon="-0.08794">
        <ele>2470</ele>
        <time>2014-05-17T09:15:55Z</time>
      </trkpt>
      <trkpt lat="42.72398" lon="-0.08777">
        <ele>2469</ele>
        <time>2014-05-17T09:15:57Z</time>
      </trkpt>
      <trkpt lat="42.72403" lon="-0.0875">
        <ele>2465</ele>
        <time>2014-05-17T09:16:01Z</time>
      </trkpt>
      <trkpt lat="42.72407" lon="-0.08737">
        <ele>2464</ele>
        <time>2014-05-17T09:16:03Z</time>
      </trkpt>
      <trkpt lat="42.72421" lon="-0.08706">
        <ele>2460</ele>
        <time>2014-05-17T09:16:10Z</time>
      </trkpt>
      <trkpt lat="42.72422" lon="-0.08701">
        <ele>2460</ele>
        <time>2014-05-17T09:16:11Z</time>
      </trkpt>
      <trkpt lat="42.72425" lon="-0.08694">
        <ele>2461</ele>
        <time>2014-05-17T09:16:13Z</time>
      </trkpt>
      <trkpt lat="42.7243" lon="-0.08696">
        <ele>2458</ele>
        <time>2014-05-17T09:16:17Z</time>
      </trkpt>
      <trkpt lat="42.72433" lon="-0.08696">
        <ele>2454</ele>
        <time>2014-05-17T09:16:18Z</time>
      </trkpt>
      <trkpt lat="42.72435" lon="-0.08692">
        <ele>2451</ele>
        <time>2014-05-17T09:16:19Z</time>
      </trkpt>
      <trkpt lat="42.72445" lon="-0.08678">
        <ele>2445</ele>
        <time>2014-05-17T09:16:23Z</time>
      </trkpt>
      <trkpt lat="42.72451" lon="-0.08672">
        <ele>2444</ele>
        <time>2014-05-17T09:16:24Z</time>
      </trkpt>
      <trkpt lat="42.72458" lon="-0.08664">
        <ele>2440</ele>
        <time>2014-05-17T09:16:26Z</time>
      </trkpt>
      <trkpt lat="42.72471" lon="-0.08645">
        <ele>2438</ele>
        <time>2014-05-17T09:16:29Z</time>
      </trkpt>
      <trkpt lat="42.7248" lon="-0.0863">
        <ele>2432</ele>
        <time>2014-05-17T09:16:31Z</time>
      </trkpt>
      <trkpt lat="42.72498" lon="-0.0859">
        <ele>2429</ele>
        <time>2014-05-17T09:16:36Z</time>
      </trkpt>
      <trkpt lat="42.72507" lon="-0.08567">
        <ele>2427</ele>
        <time>2014-05-17T09:16:39Z</time>
      </trkpt>
      <trkpt lat="42.72509" lon="-0.0856">
        <ele>2426</ele>
        <time>2014-05-17T09:16:40Z</time>
      </trkpt>
      <trkpt lat="42.72491" lon="-0.08501">
        <ele>2424</ele>
        <time>2014-05-17T09:16:47Z</time>
      </trkpt>
      <trkpt lat="42.72487" lon="-0.08486">
        <ele>2423</ele>
        <time>2014-05-17T09:16:49Z</time>
      </trkpt>
      <trkpt lat="42.72478" lon="-0.08469">
        <ele>2425</ele>
        <time>2014-05-17T09:16:53Z</time>
      </trkpt>
      <trkpt lat="42.72475" lon="-0.08467">
        <ele>2426</ele>
        <time>2014-05-17T09:16:55Z</time>
      </trkpt>
      <trkpt lat="42.72461" lon="-0.08458">
        <ele>2423</ele>
        <time>2014-05-17T09:17:04Z</time>
      </trkpt>
      <trkpt lat="42.72446" lon="-0.08427">
        <ele>2421</ele>
        <time>2014-05-17T09:17:17Z</time>
      </trkpt>
      <trkpt lat="42.72442" lon="-0.08408">
        <ele>2418</ele>
        <time>2014-05-17T09:17:21Z</time>
      </trkpt>
      <trkpt lat="42.72437" lon="-0.0839">
        <ele>2416</ele>
        <time>2014-05-17T09:17:25Z</time>
      </trkpt>
      <trkpt lat="42.72426" lon="-0.08376">
        <ele>2419</ele>
        <time>2014-05-17T09:17:34Z</time>
      </trkpt>
      <trkpt lat="42.72426" lon="-0.08376">
        <ele>2418</ele>
        <time>2014-05-17T09:17:38Z</time>
      </trkpt>
      <trkpt lat="42.72435" lon="-0.08364">
        <ele>2412</ele>
        <time>2014-05-17T09:17:43Z</time>
      </trkpt>
      <trkpt lat="42.72439" lon="-0.08356">
        <ele>2410</ele>
        <time>2014-05-17T09:17:45Z</time>
      </trkpt>
      <trkpt lat="42.72444" lon="-0.08348">
        <ele>2404</ele>
        <time>2014-05-17T09:17:47Z</time>
      </trkpt>
      <trkpt lat="42.72451" lon="-0.08342">
        <ele>2398</ele>
        <time>2014-05-17T09:17:49Z</time>
      </trkpt>
      <trkpt lat="42.72454" lon="-0.08338">
        <ele>2396</ele>
        <time>2014-05-17T09:17:50Z</time>
      </trkpt>
      <trkpt lat="42.7246" lon="-0.0833">
        <ele>2389</ele>
        <time>2014-05-17T09:17:52Z</time>
      </trkpt>
      <trkpt lat="42.72472" lon="-0.08299">
        <ele>2387</ele>
        <time>2014-05-17T09:17:56Z</time>
      </trkpt>
      <trkpt lat="42.72473" lon="-0.08293">
        <ele>2386</ele>
        <time>2014-05-17T09:17:57Z</time>
      </trkpt>
      <trkpt lat="42.72473" lon="-0.08286">
        <ele>2386</ele>
        <time>2014-05-17T09:17:58Z</time>
      </trkpt>
      <trkpt lat="42.72426" lon="-0.08238">
        <ele>2384</ele>
        <time>2014-05-17T09:18:08Z</time>
      </trkpt>
      <trkpt lat="42.72423" lon="-0.08239">
        <ele>2384</ele>
        <time>2014-05-17T09:18:15Z</time>
      </trkpt>
      <trkpt lat="42.72414" lon="-0.08231">
        <ele>2380</ele>
        <time>2014-05-17T09:18:19Z</time>
      </trkpt>
      <trkpt lat="42.72413" lon="-0.08208">
        <ele>2374</ele>
        <time>2014-05-17T09:18:23Z</time>
      </trkpt>
      <trkpt lat="42.72415" lon="-0.08187">
        <ele>2371</ele>
        <time>2014-05-17T09:18:26Z</time>
      </trkpt>
      <trkpt lat="42.72411" lon="-0.08166">
        <ele>2367</ele>
        <time>2014-05-17T09:18:29Z</time>
      </trkpt>
      <trkpt lat="42.72415" lon="-0.08157">
        <ele>2367</ele>
        <time>2014-05-17T09:18:30Z</time>
      </trkpt>
      <trkpt lat="42.72415" lon="-0.08136">
        <ele>2364</ele>
        <time>2014-05-17T09:18:33Z</time>
      </trkpt>
      <trkpt lat="42.72407" lon="-0.08124">
        <ele>2364</ele>
        <time>2014-05-17T09:18:36Z</time>
      </trkpt>
      <trkpt lat="42.72398" lon="-0.08104">
        <ele>2360</ele>
        <time>2014-05-17T09:18:40Z</time>
      </trkpt>
      <trkpt lat="42.72398" lon="-0.08097">
        <ele>2359</ele>
        <time>2014-05-17T09:18:41Z</time>
      </trkpt>
      <trkpt lat="42.72397" lon="-0.08066">
        <ele>2355</ele>
        <time>2014-05-17T09:18:45Z</time>
      </trkpt>
      <trkpt lat="42.72387" lon="-0.08026">
        <ele>2356</ele>
        <time>2014-05-17T09:18:57Z</time>
      </trkpt>
      <trkpt lat="42.7238" lon="-0.08007">
        <ele>2352</ele>
        <time>2014-05-17T09:19:04Z</time>
      </trkpt>
      <trkpt lat="42.72379" lon="-0.08002">
        <ele>2352</ele>
        <time>2014-05-17T09:19:05Z</time>
      </trkpt>
      <trkpt lat="42.72372" lon="-0.07991">
        <ele>2353</ele>
        <time>2014-05-17T09:19:10Z</time>
      </trkpt>
      <trkpt lat="42.72371" lon="-0.07989">
        <ele>2354</ele>
        <time>2014-05-17T09:19:21Z</time>
      </trkpt>
      <trkpt lat="42.72367" lon="-0.07982">
        <ele>2351</ele>
        <time>2014-05-17T09:19:24Z</time>
      </trkpt>
      <trkpt lat="42.72363" lon="-0.07975">
        <ele>2350</ele>
        <time>2014-05-17T09:19:26Z</time>
      </trkpt>
      <trkpt lat="42.72358" lon="-0.07965">
        <ele>2352</ele>
        <time>2014-05-17T09:19:37Z</time>
      </trkpt>
      <trkpt lat="42.72353" lon="-0.0796">
        <ele>2351</ele>
        <time>2014-05-17T09:19:56Z</time>
      </trkpt>
      <trkpt lat="42.72348" lon="-0.07959">
        <ele>2352</ele>
        <time>2014-05-17T09:20:11Z</time>
      </trkpt>
      <trkpt lat="42.72341" lon="-0.0796">
        <ele>2353</ele>
        <time>2014-05-17T09:20:27Z</time>
      </trkpt>
      <trkpt lat="42.7234" lon="-0.07958">
        <ele>2353</ele>
        <time>2014-05-17T09:20:48Z</time>
      </trkpt>
      <trkpt lat="42.72333" lon="-0.07951">
        <ele>2351</ele>
        <time>2014-05-17T09:20:52Z</time>
      </trkpt>
      <trkpt lat="42.72321" lon="-0.07942">
        <ele>2348</ele>
        <time>2014-05-17T09:20:55Z</time>
      </trkpt>
      <trkpt lat="42.72298" lon="-0.07929">
        <ele>2347</ele>
        <time>2014-05-17T09:21:04Z</time>
      </trkpt>
      <trkpt lat="42.72301" lon="-0.07923">
        <ele>2345</ele>
        <time>2014-05-17T09:21:07Z</time>
      </trkpt>
      <trkpt lat="42.72305" lon="-0.07916">
        <ele>2340</ele>
        <time>2014-05-17T09:21:10Z</time>
      </trkpt>
      <trkpt lat="42.72304" lon="-0.07914">
        <ele>2339</ele>
        <time>2014-05-17T09:21:11Z</time>
      </trkpt>
      <trkpt lat="42.72295" lon="-0.07907">
        <ele>2337</ele>
        <time>2014-05-17T09:21:16Z</time>
      </trkpt>
      <trkpt lat="42.7229" lon="-0.07906">
        <ele>2334</ele>
        <time>2014-05-17T09:21:18Z</time>
      </trkpt>
      <trkpt lat="42.72279" lon="-0.07888">
        <ele>2330</ele>
        <time>2014-05-17T09:21:22Z</time>
      </trkpt>
      <trkpt lat="42.72276" lon="-0.07878">
        <ele>2332</ele>
        <time>2014-05-17T09:21:33Z</time>
      </trkpt>
      <trkpt lat="42.72273" lon="-0.07877">
        <ele>2332</ele>
        <time>2014-05-17T09:22:02Z</time>
      </trkpt>
      <trkpt lat="42.72272" lon="-0.07874">
        <ele>2328</ele>
        <time>2014-05-17T09:22:08Z</time>
      </trkpt>
      <trkpt lat="42.72269" lon="-0.07867">
        <ele>2327</ele>
        <time>2014-05-17T09:22:10Z</time>
      </trkpt>
      <trkpt lat="42.72262" lon="-0.07853">
        <ele>2325</ele>
        <time>2014-05-17T09:22:13Z</time>
      </trkpt>
      <trkpt lat="42.7226" lon="-0.07847">
        <ele>2323</ele>
        <time>2014-05-17T09:22:14Z</time>
      </trkpt>
      <trkpt lat="42.72263" lon="-0.07826">
        <ele>2319</ele>
        <time>2014-05-17T09:22:18Z</time>
      </trkpt>
      <trkpt lat="42.72267" lon="-0.07816">
        <ele>2315</ele>
        <time>2014-05-17T09:22:20Z</time>
      </trkpt>
      <trkpt lat="42.72272" lon="-0.07806">
        <ele>2310</ele>
        <time>2014-05-17T09:22:22Z</time>
      </trkpt>
      <trkpt lat="42.72272" lon="-0.07799">
        <ele>2308</ele>
        <time>2014-05-17T09:22:23Z</time>
      </trkpt>
      <trkpt lat="42.72266" lon="-0.07773">
        <ele>2304</ele>
        <time>2014-05-17T09:22:27Z</time>
      </trkpt>
      <trkpt lat="42.72263" lon="-0.07751">
        <ele>2300</ele>
        <time>2014-05-17T09:22:30Z</time>
      </trkpt>
      <trkpt lat="42.72262" lon="-0.07743">
        <ele>2299</ele>
        <time>2014-05-17T09:22:31Z</time>
      </trkpt>
      <trkpt lat="42.72265" lon="-0.07723">
        <ele>2296</ele>
        <time>2014-05-17T09:22:34Z</time>
      </trkpt>
      <trkpt lat="42.72273" lon="-0.07712">
        <ele>2292</ele>
        <time>2014-05-17T09:22:36Z</time>
      </trkpt>
      <trkpt lat="42.72278" lon="-0.07706">
        <ele>2289</ele>
        <time>2014-05-17T09:22:37Z</time>
      </trkpt>
      <trkpt lat="42.72285" lon="-0.07688">
        <ele>2286</ele>
        <time>2014-05-17T09:22:40Z</time>
      </trkpt>
      <trkpt lat="42.72284" lon="-0.07682">
        <ele>2286</ele>
        <time>2014-05-17T09:22:41Z</time>
      </trkpt>
      <trkpt lat="42.72281" lon="-0.07662">
        <ele>2284</ele>
        <time>2014-05-17T09:22:44Z</time>
      </trkpt>
      <trkpt lat="42.72294" lon="-0.0765">
        <ele>2279</ele>
        <time>2014-05-17T09:22:47Z</time>
      </trkpt>
      <trkpt lat="42.72308" lon="-0.07646">
        <ele>2277</ele>
        <time>2014-05-17T09:22:50Z</time>
      </trkpt>
      <trkpt lat="42.7232" lon="-0.07651">
        <ele>2273</ele>
        <time>2014-05-17T09:22:52Z</time>
      </trkpt>
      <trkpt lat="42.72336" lon="-0.07636">
        <ele>2272</ele>
        <time>2014-05-17T09:22:57Z</time>
      </trkpt>
      <trkpt lat="42.72329" lon="-0.07597">
        <ele>2268</ele>
        <time>2014-05-17T09:23:09Z</time>
      </trkpt>
      <trkpt lat="42.72323" lon="-0.07581">
        <ele>2266</ele>
        <time>2014-05-17T09:23:12Z</time>
      </trkpt>
      <trkpt lat="42.72312" lon="-0.07565">
        <ele>2268</ele>
        <time>2014-05-17T09:23:19Z</time>
      </trkpt>
      <trkpt lat="42.72304" lon="-0.07558">
        <ele>2266</ele>
        <time>2014-05-17T09:23:35Z</time>
      </trkpt>
      <trkpt lat="42.72296" lon="-0.07547">
        <ele>2263</ele>
        <time>2014-05-17T09:23:39Z</time>
      </trkpt>
      <trkpt lat="42.72291" lon="-0.07539">
        <ele>2262</ele>
        <time>2014-05-17T09:23:41Z</time>
      </trkpt>
      <trkpt lat="42.72275" lon="-0.07507">
        <ele>2261</ele>
        <time>2014-05-17T09:23:50Z</time>
      </trkpt>
      <trkpt lat="42.72271" lon="-0.07484">
        <ele>2254</ele>
        <time>2014-05-17T09:23:53Z</time>
      </trkpt>
      <trkpt lat="42.7227" lon="-0.07465">
        <ele>2251</ele>
        <time>2014-05-17T09:23:55Z</time>
      </trkpt>
      <trkpt lat="42.72263" lon="-0.07439">
        <ele>2253</ele>
        <time>2014-05-17T09:23:59Z</time>
      </trkpt>
      <trkpt lat="42.72272" lon="-0.07407">
        <ele>2245</ele>
        <time>2014-05-17T09:24:05Z</time>
      </trkpt>
      <trkpt lat="42.72275" lon="-0.07394">
        <ele>2242</ele>
        <time>2014-05-17T09:24:07Z</time>
      </trkpt>
      <trkpt lat="42.72281" lon="-0.07383">
        <ele>2239</ele>
        <time>2014-05-17T09:24:09Z</time>
      </trkpt>
      <trkpt lat="42.72288" lon="-0.0737">
        <ele>2237</ele>
        <time>2014-05-17T09:24:11Z</time>
      </trkpt>
      <trkpt lat="42.72293" lon="-0.07359">
        <ele>2237</ele>
        <time>2014-05-17T09:24:13Z</time>
      </trkpt>
      <trkpt lat="42.72309" lon="-0.07321">
        <ele>2226</ele>
        <time>2014-05-17T09:24:19Z</time>
      </trkpt>
      <trkpt lat="42.72319" lon="-0.07281">
        <ele>2215</ele>
        <time>2014-05-17T09:24:27Z</time>
      </trkpt>
      <trkpt lat="42.72319" lon="-0.07285">
        <ele>2216</ele>
        <time>2014-05-17T09:24:37Z</time>
      </trkpt>
      <trkpt lat="42.72321" lon="-0.07276">
        <ele>2213</ele>
        <time>2014-05-17T09:24:41Z</time>
      </trkpt>
      <trkpt lat="42.72322" lon="-0.07271">
        <ele>2213</ele>
        <time>2014-05-17T09:24:43Z</time>
      </trkpt>
      <trkpt lat="42.7233" lon="-0.07272">
        <ele>2206</ele>
        <time>2014-05-17T09:24:46Z</time>
      </trkpt>
      <trkpt lat="42.72335" lon="-0.07269">
        <ele>2203</ele>
        <time>2014-05-17T09:24:48Z</time>
      </trkpt>
      <trkpt lat="42.72341" lon="-0.07269">
        <ele>2200</ele>
        <time>2014-05-17T09:24:50Z</time>
      </trkpt>
      <trkpt lat="42.72344" lon="-0.07267">
        <ele>2196</ele>
        <time>2014-05-17T09:24:51Z</time>
      </trkpt>
      <trkpt lat="42.72344" lon="-0.07261">
        <ele>2192</ele>
        <time>2014-05-17T09:24:53Z</time>
      </trkpt>
      <trkpt lat="42.72345" lon="-0.0726">
        <ele>2192</ele>
        <time>2014-05-17T09:24:54Z</time>
      </trkpt>
      <trkpt lat="42.72347" lon="-0.07253">
        <ele>2186</ele>
        <time>2014-05-17T09:24:57Z</time>
      </trkpt>
      <trkpt lat="42.72346" lon="-0.07243">
        <ele>2184</ele>
        <time>2014-05-17T09:24:59Z</time>
      </trkpt>
      <trkpt lat="42.72346" lon="-0.07234">
        <ele>2182</ele>
        <time>2014-05-17T09:25:01Z</time>
      </trkpt>
      <trkpt lat="42.72349" lon="-0.07237">
        <ele>2179</ele>
        <time>2014-05-17T09:25:05Z</time>
      </trkpt>
      <trkpt lat="42.72349" lon="-0.0724">
        <ele>2179</ele>
        <time>2014-05-17T09:25:06Z</time>
      </trkpt>
      <trkpt lat="42.72346" lon="-0.07243">
        <ele>2179</ele>
        <time>2014-05-17T09:25:21Z</time>
      </trkpt>
      <trkpt lat="42.72345" lon="-0.07244">
        <ele>2180</ele>
        <time>2014-05-17T09:25:29Z</time>
      </trkpt>
      <trkpt lat="42.72352" lon="-0.07244">
        <ele>2175</ele>
        <time>2014-05-17T09:25:34Z</time>
      </trkpt>
      <trkpt lat="42.72354" lon="-0.07238">
        <ele>2172</ele>
        <time>2014-05-17T09:25:36Z</time>
      </trkpt>
      <trkpt lat="42.7236" lon="-0.07232">
        <ele>2166</ele>
        <time>2014-05-17T09:25:38Z</time>
      </trkpt>
      <trkpt lat="42.72365" lon="-0.07225">
        <ele>2164</ele>
        <time>2014-05-17T09:25:40Z</time>
      </trkpt>
      <trkpt lat="42.72369" lon="-0.07219">
        <ele>2158</ele>
        <time>2014-05-17T09:25:42Z</time>
      </trkpt>
      <trkpt lat="42.72375" lon="-0.0721">
        <ele>2154</ele>
        <time>2014-05-17T09:25:44Z</time>
      </trkpt>
      <trkpt lat="42.72378" lon="-0.07207">
        <ele>2149</ele>
        <time>2014-05-17T09:25:45Z</time>
      </trkpt>
      <trkpt lat="42.72382" lon="-0.07203">
        <ele>2146</ele>
        <time>2014-05-17T09:25:46Z</time>
      </trkpt>
      <trkpt lat="42.72388" lon="-0.07195">
        <ele>2142</ele>
        <time>2014-05-17T09:25:48Z</time>
      </trkpt>
      <trkpt lat="42.72398" lon="-0.07171">
        <ele>2133</ele>
        <time>2014-05-17T09:25:53Z</time>
      </trkpt>
      <trkpt lat="42.72399" lon="-0.07158">
        <ele>2134</ele>
        <time>2014-05-17T09:25:56Z</time>
      </trkpt>
      <trkpt lat="42.72403" lon="-0.07157">
        <ele>2128</ele>
        <time>2014-05-17T09:25:58Z</time>
      </trkpt>
      <trkpt lat="42.72407" lon="-0.07152">
        <ele>2126</ele>
        <time>2014-05-17T09:25:59Z</time>
      </trkpt>
      <trkpt lat="42.72413" lon="-0.07142">
        <ele>2122</ele>
        <time>2014-05-17T09:26:02Z</time>
      </trkpt>
      <trkpt lat="42.72424" lon="-0.07123">
        <ele>2111</ele>
        <time>2014-05-17T09:26:06Z</time>
      </trkpt>
      <trkpt lat="42.72438" lon="-0.07071">
        <ele>2107</ele>
        <time>2014-05-17T09:26:14Z</time>
      </trkpt>
      <trkpt lat="42.72444" lon="-0.07056">
        <ele>2106</ele>
        <time>2014-05-17T09:26:16Z</time>
      </trkpt>
      <trkpt lat="42.7246" lon="-0.07021">
        <ele>2103</ele>
        <time>2014-05-17T09:26:21Z</time>
      </trkpt>
      <trkpt lat="42.72471" lon="-0.07004">
        <ele>2105</ele>
        <time>2014-05-17T09:26:31Z</time>
      </trkpt>
      <trkpt lat="42.72469" lon="-0.07005">
        <ele>2106</ele>
        <time>2014-05-17T09:26:47Z</time>
      </trkpt>
      <trkpt lat="42.72471" lon="-0.07">
        <ele>2106</ele>
        <time>2014-05-17T09:27:06Z</time>
      </trkpt>
      <trkpt lat="42.72465" lon="-0.07011">
        <ele>2106</ele>
        <time>2014-05-17T09:27:26Z</time>
      </trkpt>
      <trkpt lat="42.72462" lon="-0.07008">
        <ele>2106</ele>
        <time>2014-05-17T09:27:50Z</time>
      </trkpt>
      <trkpt lat="42.72474" lon="-0.06989">
        <ele>2103</ele>
        <time>2014-05-17T09:27:56Z</time>
      </trkpt>
      <trkpt lat="42.72493" lon="-0.06962">
        <ele>2102</ele>
        <time>2014-05-17T09:28:07Z</time>
      </trkpt>
      <trkpt lat="42.72523" lon="-0.06933">
        <ele>2102</ele>
        <time>2014-05-17T09:28:21Z</time>
      </trkpt>
      <trkpt lat="42.7255" lon="-0.06915">
        <ele>2099</ele>
        <time>2014-05-17T09:28:32Z</time>
      </trkpt>
      <trkpt lat="42.72558" lon="-0.0691">
        <ele>2098</ele>
        <time>2014-05-17T09:28:34Z</time>
      </trkpt>
      <trkpt lat="42.72565" lon="-0.06907">
        <ele>2097</ele>
        <time>2014-05-17T09:28:36Z</time>
      </trkpt>
      <trkpt lat="42.72583" lon="-0.06903">
        <ele>2093</ele>
        <time>2014-05-17T09:28:43Z</time>
      </trkpt>
      <trkpt lat="42.72599" lon="-0.06893">
        <ele>2090</ele>
        <time>2014-05-17T09:28:48Z</time>
      </trkpt>
      <trkpt lat="42.72626" lon="-0.06873">
        <ele>2089</ele>
        <time>2014-05-17T09:29:00Z</time>
      </trkpt>
      <trkpt lat="42.72652" lon="-0.06855">
        <ele>2087</ele>
        <time>2014-05-17T09:29:13Z</time>
      </trkpt>
      <trkpt lat="42.72672" lon="-0.06835">
        <ele>2086</ele>
        <time>2014-05-17T09:29:37Z</time>
      </trkpt>
      <trkpt lat="42.72672" lon="-0.06836">
        <ele>2080</ele>
        <time>2014-05-17T09:30:06Z</time>
      </trkpt>
      <trkpt lat="42.72672" lon="-0.06836">
        <ele>2085</ele>
        <time>2014-05-17T09:30:07Z</time>
      </trkpt>
      <trkpt lat="42.72673" lon="-0.06837">
        <ele>2080</ele>
        <time>2014-05-17T09:30:08Z</time>
      </trkpt>
      <trkpt lat="42.72673" lon="-0.06837">
        <ele>2091</ele>
        <time>2014-05-17T09:30:09Z</time>
      </trkpt>
      <trkpt lat="42.72674" lon="-0.06836">
        <ele>2091</ele>
        <time>2014-05-17T09:30:10Z</time>
      </trkpt>
      <trkpt lat="42.72674" lon="-0.06837">
        <ele>2087</ele>
        <time>2014-05-17T09:30:11Z</time>
      </trkpt>
      <trkpt lat="42.72676" lon="-0.06836">
        <ele>2085</ele>
        <time>2014-05-17T09:30:26Z</time>
      </trkpt>
      <trkpt lat="42.72673" lon="-0.06825">
        <ele>2085</ele>
        <time>2014-05-17T09:30:53Z</time>
      </trkpt>
      <trkpt lat="42.72674" lon="-0.06834">
        <ele>2085</ele>
        <time>2014-05-17T09:31:16Z</time>
      </trkpt>
      <trkpt lat="42.72668" lon="-0.06829">
        <ele>2086</ele>
        <time>2014-05-17T09:32:40Z</time>
      </trkpt>
      <trkpt lat="42.72673" lon="-0.06831">
        <ele>2085</ele>
        <time>2014-05-17T09:32:54Z</time>
      </trkpt>
      <trkpt lat="42.72683" lon="-0.06831">
        <ele>2086</ele>
        <time>2014-05-17T09:38:07Z</time>
      </trkpt>
      <trkpt lat="42.72674" lon="-0.06831">
        <ele>2086</ele>
        <time>2014-05-17T09:38:27Z</time>
      </trkpt>
      <trkpt lat="42.72673" lon="-0.06832">
        <ele>2086</ele>
        <time>2014-05-17T09:38:53Z</time>
      </trkpt>
      <trkpt lat="42.72674" lon="-0.06835">
        <ele>2086</ele>
        <time>2014-05-17T09:39:11Z</time>
      </trkpt>
      <trkpt lat="42.72675" lon="-0.06833">
        <ele>2086</ele>
        <time>2014-05-17T09:39:29Z</time>
      </trkpt>
      <trkpt lat="42.72674" lon="-0.06833">
        <ele>2086</ele>
        <time>2014-05-17T09:39:47Z</time>
      </trkpt>
      <trkpt lat="42.72674" lon="-0.06833">
        <ele>2086</ele>
        <time>2014-05-17T09:40:06Z</time>
      </trkpt>
      <trkpt lat="42.72674" lon="-0.06835">
        <ele>2086</ele>
        <time>2014-05-17T09:40:26Z</time>
      </trkpt>
      <trkpt lat="42.72676" lon="-0.06833">
        <ele>2086</ele>
        <time>2014-05-17T09:40:49Z</time>
      </trkpt>
      <trkpt lat="42.72677" lon="-0.06833">
        <ele>2086</ele>
        <time>2014-05-17T09:41:11Z</time>
      </trkpt>
      <trkpt lat="42.72677" lon="-0.06837">
        <ele>2088</ele>
        <time>2014-05-17T09:41:27Z</time>
      </trkpt>
      <trkpt lat="42.72676" lon="-0.06832">
        <ele>2086</ele>
        <time>2014-05-17T09:41:47Z</time>
      </trkpt>
      <trkpt lat="42.72673" lon="-0.06836">
        <ele>2086</ele>
        <time>2014-05-17T09:42:06Z</time>
      </trkpt>
      <trkpt lat="42.72675" lon="-0.06835">
        <ele>2087</ele>
        <time>2014-05-17T09:42:41Z</time>
      </trkpt>
      <trkpt lat="42.72673" lon="-0.0683">
        <ele>2087</ele>
        <time>2014-05-17T09:43:02Z</time>
      </trkpt>
      <trkpt lat="42.72672" lon="-0.0683">
        <ele>2083</ele>
        <time>2014-05-17T09:43:07Z</time>
      </trkpt>
      <trkpt lat="42.72673" lon="-0.06831">
        <ele>2089</ele>
        <time>2014-05-17T09:43:08Z</time>
      </trkpt>
      <trkpt lat="42.72673" lon="-0.06831">
        <ele>2086</ele>
        <time>2014-05-17T09:43:09Z</time>
      </trkpt>
      <trkpt lat="42.72672" lon="-0.06833">
        <ele>2086</ele>
        <time>2014-05-17T09:43:27Z</time>
      </trkpt>
      <trkpt lat="42.72678" lon="-0.06833">
        <ele>2086</ele>
        <time>2014-05-17T09:43:47Z</time>
      </trkpt>
      <trkpt lat="42.72674" lon="-0.06833">
        <ele>2087</ele>
        <time>2014-05-17T09:44:07Z</time>
      </trkpt>
      <trkpt lat="42.72673" lon="-0.06829">
        <ele>2087</ele>
        <time>2014-05-17T09:44:27Z</time>
      </trkpt>
      <trkpt lat="42.72676" lon="-0.06829">
        <ele>2087</ele>
        <time>2014-05-17T09:44:46Z</time>
      </trkpt>
      <trkpt lat="42.72677" lon="-0.0683">
        <ele>2087</ele>
        <time>2014-05-17T09:45:02Z</time>
      </trkpt>
      <trkpt lat="42.72676" lon="-0.0683">
        <ele>2087</ele>
        <time>2014-05-17T09:45:18Z</time>
      </trkpt>
      <trkpt lat="42.72675" lon="-0.06827">
        <ele>2087</ele>
        <time>2014-05-17T09:45:35Z</time>
      </trkpt>
      <trkpt lat="42.72671" lon="-0.06831">
        <ele>2087</ele>
        <time>2014-05-17T09:45:54Z</time>
      </trkpt>
      <trkpt lat="42.72669" lon="-0.06829">
        <ele>2087</ele>
        <time>2014-05-17T09:46:17Z</time>
      </trkpt>
      <trkpt lat="42.72672" lon="-0.06831">
        <ele>2087</ele>
        <time>2014-05-17T09:46:34Z</time>
      </trkpt>
      <trkpt lat="42.72674" lon="-0.06832">
        <ele>2087</ele>
        <time>2014-05-17T09:46:53Z</time>
      </trkpt>
      <trkpt lat="42.72672" lon="-0.06829">
        <ele>2088</ele>
        <time>2014-05-17T09:47:10Z</time>
      </trkpt>
      <trkpt lat="42.72673" lon="-0.06829">
        <ele>2087</ele>
        <time>2014-05-17T09:47:28Z</time>
      </trkpt>
      <trkpt lat="42.72672" lon="-0.06832">
        <ele>2088</ele>
        <time>2014-05-17T09:47:44Z</time>
      </trkpt>
      <trkpt lat="42.72672" lon="-0.06833">
        <ele>2088</ele>
        <time>2014-05-17T09:48:01Z</time>
      </trkpt>
      <trkpt lat="42.72671" lon="-0.06828">
        <ele>2089</ele>
        <time>2014-05-17T09:48:18Z</time>
      </trkpt>
      <trkpt lat="42.72667" lon="-0.06819">
        <ele>2091</ele>
        <time>2014-05-17T09:48:32Z</time>
      </trkpt>
      <trkpt lat="42.72675" lon="-0.06813">
        <ele>2094</ele>
        <time>2014-05-17T09:48:45Z</time>
      </trkpt>
      <trkpt lat="42.72682" lon="-0.06806">
        <ele>2097</ele>
        <time>2014-05-17T09:49:01Z</time>
      </trkpt>
      <trkpt lat="42.72686" lon="-0.06796">
        <ele>2100</ele>
        <time>2014-05-17T09:49:14Z</time>
      </trkpt>
      <trkpt lat="42.72685" lon="-0.06789">
        <ele>2102</ele>
        <time>2014-05-17T09:49:30Z</time>
      </trkpt>
      <trkpt lat="42.72679" lon="-0.06785">
        <ele>2104</ele>
        <time>2014-05-17T09:49:44Z</time>
      </trkpt>
      <trkpt lat="42.72672" lon="-0.06776">
        <ele>2106</ele>
        <time>2014-05-17T09:50:00Z</time>
      </trkpt>
      <trkpt lat="42.72676" lon="-0.06779">
        <ele>2109</ele>
        <time>2014-05-17T09:50:15Z</time>
      </trkpt>
      <trkpt lat="42.72678" lon="-0.06774">
        <ele>2112</ele>
        <time>2014-05-17T09:50:29Z</time>
      </trkpt>
      <trkpt lat="42.72674" lon="-0.06772">
        <ele>2115</ele>
        <time>2014-05-17T09:50:45Z</time>
      </trkpt>
      <trkpt lat="42.72675" lon="-0.06767">
        <ele>2117</ele>
        <time>2014-05-17T09:50:57Z</time>
      </trkpt>
      <trkpt lat="42.72677" lon="-0.06763">
        <ele>2116</ele>
        <time>2014-05-17T09:51:13Z</time>
      </trkpt>
      <trkpt lat="42.72671" lon="-0.06755">
        <ele>2119</ele>
        <time>2014-05-17T09:51:27Z</time>
      </trkpt>
      <trkpt lat="42.72669" lon="-0.06758">
        <ele>2121</ele>
        <time>2014-05-17T09:51:42Z</time>
      </trkpt>
      <trkpt lat="42.72672" lon="-0.06752">
        <ele>2124</ele>
        <time>2014-05-17T09:51:57Z</time>
      </trkpt>
      <trkpt lat="42.72672" lon="-0.06747">
        <ele>2127</ele>
        <time>2014-05-17T09:52:11Z</time>
      </trkpt>
      <trkpt lat="42.72673" lon="-0.06741">
        <ele>2129</ele>
        <time>2014-05-17T09:52:23Z</time>
      </trkpt>
      <trkpt lat="42.72677" lon="-0.06734">
        <ele>2129</ele>
        <time>2014-05-17T09:52:38Z</time>
      </trkpt>
      <trkpt lat="42.72682" lon="-0.06723">
        <ele>2131</ele>
        <time>2014-05-17T09:52:52Z</time>
      </trkpt>
      <trkpt lat="42.72687" lon="-0.06719">
        <ele>2133</ele>
        <time>2014-05-17T09:53:05Z</time>
      </trkpt>
      <trkpt lat="42.72693" lon="-0.06719">
        <ele>2135</ele>
        <time>2014-05-17T09:53:25Z</time>
      </trkpt>
      <trkpt lat="42.72694" lon="-0.06713">
        <ele>2137</ele>
        <time>2014-05-17T09:53:41Z</time>
      </trkpt>
      <trkpt lat="42.7269" lon="-0.0671">
        <ele>2139</ele>
        <time>2014-05-17T09:53:56Z</time>
      </trkpt>
      <trkpt lat="42.72687" lon="-0.06709">
        <ele>2141</ele>
        <time>2014-05-17T09:54:11Z</time>
      </trkpt>
      <trkpt lat="42.72685" lon="-0.06702">
        <ele>2144</ele>
        <time>2014-05-17T09:54:25Z</time>
      </trkpt>
      <trkpt lat="42.72688" lon="-0.06698">
        <ele>2145</ele>
        <time>2014-05-17T09:54:37Z</time>
      </trkpt>
      <trkpt lat="42.72694" lon="-0.06696">
        <ele>2148</ele>
        <time>2014-05-17T09:54:49Z</time>
      </trkpt>
      <trkpt lat="42.72698" lon="-0.06694">
        <ele>2150</ele>
        <time>2014-05-17T09:55:02Z</time>
      </trkpt>
      <trkpt lat="42.72702" lon="-0.06683">
        <ele>2152</ele>
        <time>2014-05-17T09:55:17Z</time>
      </trkpt>
      <trkpt lat="42.72706" lon="-0.06677">
        <ele>2154</ele>
        <time>2014-05-17T09:55:30Z</time>
      </trkpt>
      <trkpt lat="42.72704" lon="-0.06675">
        <ele>2156</ele>
        <time>2014-05-17T09:55:45Z</time>
      </trkpt>
      <trkpt lat="42.72697" lon="-0.06676">
        <ele>2159</ele>
        <time>2014-05-17T09:56:00Z</time>
      </trkpt>
      <trkpt lat="42.7269" lon="-0.06675">
        <ele>2161</ele>
        <time>2014-05-17T09:56:14Z</time>
      </trkpt>
      <trkpt lat="42.72691" lon="-0.06671">
        <ele>2163</ele>
        <time>2014-05-17T09:56:27Z</time>
      </trkpt>
      <trkpt lat="42.72687" lon="-0.06668">
        <ele>2165</ele>
        <time>2014-05-17T09:56:42Z</time>
      </trkpt>
      <trkpt lat="42.72691" lon="-0.06663">
        <ele>2167</ele>
        <time>2014-05-17T09:56:57Z</time>
      </trkpt>
      <trkpt lat="42.72691" lon="-0.06657">
        <ele>2169</ele>
        <time>2014-05-17T09:57:21Z</time>
      </trkpt>
      <trkpt lat="42.7269" lon="-0.06654">
        <ele>2170</ele>
        <time>2014-05-17T09:57:43Z</time>
      </trkpt>
      <trkpt lat="42.72687" lon="-0.06661">
        <ele>2173</ele>
        <time>2014-05-17T09:57:57Z</time>
      </trkpt>
      <trkpt lat="42.72682" lon="-0.06651">
        <ele>2175</ele>
        <time>2014-05-17T09:58:12Z</time>
      </trkpt>
      <trkpt lat="42.72682" lon="-0.06644">
        <ele>2178</ele>
        <time>2014-05-17T09:58:23Z</time>
      </trkpt>
      <trkpt lat="42.72685" lon="-0.0664">
        <ele>2180</ele>
        <time>2014-05-17T09:58:37Z</time>
      </trkpt>
      <trkpt lat="42.72683" lon="-0.06638">
        <ele>2183</ele>
        <time>2014-05-17T09:58:54Z</time>
      </trkpt>
      <trkpt lat="42.72686" lon="-0.0663">
        <ele>2184</ele>
        <time>2014-05-17T09:59:09Z</time>
      </trkpt>
      <trkpt lat="42.72682" lon="-0.06629">
        <ele>2186</ele>
        <time>2014-05-17T09:59:24Z</time>
      </trkpt>
      <trkpt lat="42.7268" lon="-0.06624">
        <ele>2189</ele>
        <time>2014-05-17T09:59:39Z</time>
      </trkpt>
      <trkpt lat="42.72679" lon="-0.06619">
        <ele>2190</ele>
        <time>2014-05-17T09:59:53Z</time>
      </trkpt>
      <trkpt lat="42.72675" lon="-0.0662">
        <ele>2193</ele>
        <time>2014-05-17T10:00:08Z</time>
      </trkpt>
      <trkpt lat="42.72671" lon="-0.06615">
        <ele>2196</ele>
        <time>2014-05-17T10:00:22Z</time>
      </trkpt>
      <trkpt lat="42.72668" lon="-0.06608">
        <ele>2198</ele>
        <time>2014-05-17T10:00:36Z</time>
      </trkpt>
      <trkpt lat="42.72653" lon="-0.06605">
        <ele>2201</ele>
        <time>2014-05-17T10:31:09Z</time>
      </trkpt>
      <trkpt lat="42.72659" lon="-0.066">
        <ele>2202</ele>
        <time>2014-05-17T10:31:26Z</time>
      </trkpt>
      <trkpt lat="42.72659" lon="-0.06597">
        <ele>2203</ele>
        <time>2014-05-17T10:31:40Z</time>
      </trkpt>
      <trkpt lat="42.72656" lon="-0.06593">
        <ele>2204</ele>
        <time>2014-05-17T10:32:07Z</time>
      </trkpt>
      <trkpt lat="42.72659" lon="-0.06597">
        <ele>2204</ele>
        <time>2014-05-17T10:32:26Z</time>
      </trkpt>
      <trkpt lat="42.72658" lon="-0.06595">
        <ele>2204</ele>
        <time>2014-05-17T10:32:51Z</time>
      </trkpt>
      <trkpt lat="42.72659" lon="-0.06596">
        <ele>2204</ele>
        <time>2014-05-17T10:32:57Z</time>
      </trkpt>
      <trkpt lat="42.72658" lon="-0.06593">
        <ele>2203</ele>
        <time>2014-05-17T10:33:21Z</time>
      </trkpt>
      <trkpt lat="42.72659" lon="-0.06597">
        <ele>2204</ele>
        <time>2014-05-17T10:33:46Z</time>
      </trkpt>
      <trkpt lat="42.72659" lon="-0.06595">
        <ele>2204</ele>
        <time>2014-05-17T10:34:11Z</time>
      </trkpt>
      <trkpt lat="42.72659" lon="-0.06595">
        <ele>2203</ele>
        <time>2014-05-17T10:34:26Z</time>
      </trkpt>
      <trkpt lat="42.72659" lon="-0.06597">
        <ele>2204</ele>
        <time>2014-05-17T10:34:48Z</time>
      </trkpt>
      <trkpt lat="42.7266" lon="-0.06597">
        <ele>2204</ele>
        <time>2014-05-17T10:35:09Z</time>
      </trkpt>
      <trkpt lat="42.72657" lon="-0.06595">
        <ele>2204</ele>
        <time>2014-05-17T10:35:33Z</time>
      </trkpt>
      <trkpt lat="42.72659" lon="-0.06597">
        <ele>2203</ele>
        <time>2014-05-17T10:35:56Z</time>
      </trkpt>
      <trkpt lat="42.72658" lon="-0.06594">
        <ele>2204</ele>
        <time>2014-05-17T10:36:23Z</time>
      </trkpt>
      <trkpt lat="42.72659" lon="-0.06596">
        <ele>2203</ele>
        <time>2014-05-17T10:36:49Z</time>
      </trkpt>
      <trkpt lat="42.72658" lon="-0.06595">
        <ele>2203</ele>
        <time>2014-05-17T10:37:05Z</time>
      </trkpt>
      <trkpt lat="42.72658" lon="-0.06595">
        <ele>2203</ele>
        <time>2014-05-17T10:37:25Z</time>
      </trkpt>
      <trkpt lat="42.72659" lon="-0.06596">
        <ele>2203</ele>
        <time>2014-05-17T10:37:46Z</time>
      </trkpt>
      <trkpt lat="42.7266" lon="-0.06587">
        <ele>2204</ele>
        <time>2014-05-17T10:38:00Z</time>
      </trkpt>
      <trkpt lat="42.7266" lon="-0.06581">
        <ele>2205</ele>
        <time>2014-05-17T10:38:07Z</time>
      </trkpt>
      <trkpt lat="42.72664" lon="-0.06572">
        <ele>2206</ele>
        <time>2014-05-17T10:38:20Z</time>
      </trkpt>
      <trkpt lat="42.72664" lon="-0.06564">
        <ele>2208</ele>
        <time>2014-05-17T10:38:29Z</time>
      </trkpt>
      <trkpt lat="42.7266" lon="-0.06557">
        <ele>2211</ele>
        <time>2014-05-17T10:38:39Z</time>
      </trkpt>
      <trkpt lat="42.72658" lon="-0.06556">
        <ele>2212</ele>
        <time>2014-05-17T10:38:43Z</time>
      </trkpt>
      <trkpt lat="42.72654" lon="-0.06548">
        <ele>2215</ele>
        <time>2014-05-17T10:38:58Z</time>
      </trkpt>
      <trkpt lat="42.72654" lon="-0.06545">
        <ele>2218</ele>
        <time>2014-05-17T10:39:11Z</time>
      </trkpt>
      <trkpt lat="42.72654" lon="-0.06542">
        <ele>2220</ele>
        <time>2014-05-17T10:39:35Z</time>
      </trkpt>
      <trkpt lat="42.72655" lon="-0.06544">
        <ele>2222</ele>
        <time>2014-05-17T10:39:54Z</time>
      </trkpt>
      <trkpt lat="42.72653" lon="-0.06543">
        <ele>2225</ele>
        <time>2014-05-17T10:40:07Z</time>
      </trkpt>
      <trkpt lat="42.72651" lon="-0.06535">
        <ele>2228</ele>
        <time>2014-05-17T10:40:25Z</time>
      </trkpt>
      <trkpt lat="42.72652" lon="-0.06524">
        <ele>2230</ele>
        <time>2014-05-17T10:40:37Z</time>
      </trkpt>
      <trkpt lat="42.72654" lon="-0.06511">
        <ele>2232</ele>
        <time>2014-05-17T10:40:53Z</time>
      </trkpt>
      <trkpt lat="42.72654" lon="-0.06503">
        <ele>2232</ele>
        <time>2014-05-17T10:41:04Z</time>
      </trkpt>
      <trkpt lat="42.72656" lon="-0.06495">
        <ele>2235</ele>
        <time>2014-05-17T10:41:14Z</time>
      </trkpt>
      <trkpt lat="42.72656" lon="-0.06492">
        <ele>2235</ele>
        <time>2014-05-17T10:41:17Z</time>
      </trkpt>
      <trkpt lat="42.72654" lon="-0.06483">
        <ele>2237</ele>
        <time>2014-05-17T10:41:29Z</time>
      </trkpt>
      <trkpt lat="42.72657" lon="-0.06476">
        <ele>2238</ele>
        <time>2014-05-17T10:41:37Z</time>
      </trkpt>
      <trkpt lat="42.72657" lon="-0.06465">
        <ele>2240</ele>
        <time>2014-05-17T10:41:50Z</time>
      </trkpt>
      <trkpt lat="42.72656" lon="-0.06462">
        <ele>2241</ele>
        <time>2014-05-17T10:41:54Z</time>
      </trkpt>
      <trkpt lat="42.72657" lon="-0.06451">
        <ele>2242</ele>
        <time>2014-05-17T10:42:08Z</time>
      </trkpt>
      <trkpt lat="42.72654" lon="-0.0644">
        <ele>2245</ele>
        <time>2014-05-17T10:42:21Z</time>
      </trkpt>
      <trkpt lat="42.72654" lon="-0.0643">
        <ele>2247</ele>
        <time>2014-05-17T10:42:36Z</time>
      </trkpt>
      <trkpt lat="42.72652" lon="-0.06425">
        <ele>2251</ele>
        <time>2014-05-17T10:42:51Z</time>
      </trkpt>
      <trkpt lat="42.72644" lon="-0.06426">
        <ele>2254</ele>
        <time>2014-05-17T10:43:09Z</time>
      </trkpt>
      <trkpt lat="42.72641" lon="-0.06424">
        <ele>2255</ele>
        <time>2014-05-17T10:43:31Z</time>
      </trkpt>
      <trkpt lat="42.72643" lon="-0.06417">
        <ele>2258</ele>
        <time>2014-05-17T10:43:44Z</time>
      </trkpt>
      <trkpt lat="42.72646" lon="-0.06409">
        <ele>2261</ele>
        <time>2014-05-17T10:43:57Z</time>
      </trkpt>
      <trkpt lat="42.72646" lon="-0.06399">
        <ele>2263</ele>
        <time>2014-05-17T10:44:10Z</time>
      </trkpt>
      <trkpt lat="42.72642" lon="-0.06391">
        <ele>2266</ele>
        <time>2014-05-17T10:44:26Z</time>
      </trkpt>
      <trkpt lat="42.72647" lon="-0.06388">
        <ele>2266</ele>
        <time>2014-05-17T10:44:51Z</time>
      </trkpt>
      <trkpt lat="42.72638" lon="-0.0638">
        <ele>2270</ele>
        <time>2014-05-17T10:45:05Z</time>
      </trkpt>
      <trkpt lat="42.72636" lon="-0.06371">
        <ele>2273</ele>
        <time>2014-05-17T10:45:22Z</time>
      </trkpt>
      <trkpt lat="42.72635" lon="-0.06371">
        <ele>2274</ele>
        <time>2014-05-17T10:45:38Z</time>
      </trkpt>
      <trkpt lat="42.72632" lon="-0.06372">
        <ele>2276</ele>
        <time>2014-05-17T10:45:57Z</time>
      </trkpt>
      <trkpt lat="42.72627" lon="-0.06377">
        <ele>2279</ele>
        <time>2014-05-17T10:46:11Z</time>
      </trkpt>
      <trkpt lat="42.72626" lon="-0.06366">
        <ele>2282</ele>
        <time>2014-05-17T10:46:26Z</time>
      </trkpt>
      <trkpt lat="42.72628" lon="-0.06365">
        <ele>2282</ele>
        <time>2014-05-17T10:46:28Z</time>
      </trkpt>
      <trkpt lat="42.72626" lon="-0.06361">
        <ele>2283</ele>
        <time>2014-05-17T10:46:34Z</time>
      </trkpt>
      <trkpt lat="42.72623" lon="-0.06352">
        <ele>2284</ele>
        <time>2014-05-17T10:46:45Z</time>
      </trkpt>
      <trkpt lat="42.72624" lon="-0.06346">
        <ele>2286</ele>
        <time>2014-05-17T10:46:58Z</time>
      </trkpt>
      <trkpt lat="42.72618" lon="-0.06347">
        <ele>2289</ele>
        <time>2014-05-17T10:47:11Z</time>
      </trkpt>
      <trkpt lat="42.7261" lon="-0.06349">
        <ele>2291</ele>
        <time>2014-05-17T10:47:31Z</time>
      </trkpt>
      <trkpt lat="42.72604" lon="-0.06352">
        <ele>2294</ele>
        <time>2014-05-17T10:47:49Z</time>
      </trkpt>
      <trkpt lat="42.726" lon="-0.06358">
        <ele>2297</ele>
        <time>2014-05-17T10:48:09Z</time>
      </trkpt>
      <trkpt lat="42.72594" lon="-0.06356">
        <ele>2299</ele>
        <time>2014-05-17T10:48:28Z</time>
      </trkpt>
      <trkpt lat="42.72591" lon="-0.06351">
        <ele>2301</ele>
        <time>2014-05-17T10:48:41Z</time>
      </trkpt>
      <trkpt lat="42.72591" lon="-0.06345">
        <ele>2303</ele>
        <time>2014-05-17T10:48:57Z</time>
      </trkpt>
      <trkpt lat="42.72587" lon="-0.06338">
        <ele>2306</ele>
        <time>2014-05-17T10:49:11Z</time>
      </trkpt>
      <trkpt lat="42.72581" lon="-0.06333">
        <ele>2309</ele>
        <time>2014-05-17T10:49:26Z</time>
      </trkpt>
      <trkpt lat="42.72585" lon="-0.06333">
        <ele>2309</ele>
        <time>2014-05-17T10:49:54Z</time>
      </trkpt>
      <trkpt lat="42.7258" lon="-0.06338">
        <ele>2312</ele>
        <time>2014-05-17T10:50:11Z</time>
      </trkpt>
      <trkpt lat="42.72575" lon="-0.06341">
        <ele>2314</ele>
        <time>2014-05-17T10:50:28Z</time>
      </trkpt>
      <trkpt lat="42.72571" lon="-0.06341">
        <ele>2315</ele>
        <time>2014-05-17T10:50:43Z</time>
      </trkpt>
      <trkpt lat="42.7257" lon="-0.0634">
        <ele>2316</ele>
        <time>2014-05-17T10:51:09Z</time>
      </trkpt>
      <trkpt lat="42.72569" lon="-0.0633">
        <ele>2317</ele>
        <time>2014-05-17T10:51:25Z</time>
      </trkpt>
      <trkpt lat="42.7257" lon="-0.06326">
        <ele>2319</ele>
        <time>2014-05-17T10:51:41Z</time>
      </trkpt>
      <trkpt lat="42.72565" lon="-0.06321">
        <ele>2322</ele>
        <time>2014-05-17T10:51:55Z</time>
      </trkpt>
      <trkpt lat="42.72562" lon="-0.06316">
        <ele>2323</ele>
        <time>2014-05-17T10:52:06Z</time>
      </trkpt>
      <trkpt lat="42.72557" lon="-0.06316">
        <ele>2326</ele>
        <time>2014-05-17T10:52:20Z</time>
      </trkpt>
      <trkpt lat="42.72549" lon="-0.06316">
        <ele>2328</ele>
        <time>2014-05-17T10:52:36Z</time>
      </trkpt>
      <trkpt lat="42.72545" lon="-0.06306">
        <ele>2331</ele>
        <time>2014-05-17T10:52:52Z</time>
      </trkpt>
      <trkpt lat="42.7254" lon="-0.063">
        <ele>2333</ele>
        <time>2014-05-17T10:53:05Z</time>
      </trkpt>
      <trkpt lat="42.72535" lon="-0.06301">
        <ele>2334</ele>
        <time>2014-05-17T10:53:17Z</time>
      </trkpt>
      <trkpt lat="42.72531" lon="-0.06302">
        <ele>2337</ele>
        <time>2014-05-17T10:53:31Z</time>
      </trkpt>
      <trkpt lat="42.72525" lon="-0.06299">
        <ele>2339</ele>
        <time>2014-05-17T10:53:46Z</time>
      </trkpt>
      <trkpt lat="42.72518" lon="-0.06299">
        <ele>2341</ele>
        <time>2014-05-17T10:54:00Z</time>
      </trkpt>
      <trkpt lat="42.7251" lon="-0.06301">
        <ele>2343</ele>
        <time>2014-05-17T10:54:17Z</time>
      </trkpt>
      <trkpt lat="42.72503" lon="-0.06299">
        <ele>2345</ele>
        <time>2014-05-17T10:54:31Z</time>
      </trkpt>
      <trkpt lat="42.72496" lon="-0.06302">
        <ele>2347</ele>
        <time>2014-05-17T10:54:47Z</time>
      </trkpt>
      <trkpt lat="42.72486" lon="-0.06304">
        <ele>2350</ele>
        <time>2014-05-17T10:55:04Z</time>
      </trkpt>
      <trkpt lat="42.7248" lon="-0.06303">
        <ele>2352</ele>
        <time>2014-05-17T10:55:18Z</time>
      </trkpt>
      <trkpt lat="42.72476" lon="-0.06301">
        <ele>2354</ele>
        <time>2014-05-17T10:55:32Z</time>
      </trkpt>
      <trkpt lat="42.7247" lon="-0.06301">
        <ele>2356</ele>
        <time>2014-05-17T10:55:47Z</time>
      </trkpt>
      <trkpt lat="42.72463" lon="-0.06302">
        <ele>2359</ele>
        <time>2014-05-17T10:56:03Z</time>
      </trkpt>
      <trkpt lat="42.72457" lon="-0.06299">
        <ele>2361</ele>
        <time>2014-05-17T10:56:19Z</time>
      </trkpt>
      <trkpt lat="42.72449" lon="-0.06296">
        <ele>2364</ele>
        <time>2014-05-17T10:56:33Z</time>
      </trkpt>
      <trkpt lat="42.72445" lon="-0.06296">
        <ele>2365</ele>
        <time>2014-05-17T10:56:46Z</time>
      </trkpt>
      <trkpt lat="42.72439" lon="-0.06294">
        <ele>2367</ele>
        <time>2014-05-17T10:57:01Z</time>
      </trkpt>
      <trkpt lat="42.72433" lon="-0.06295">
        <ele>2370</ele>
        <time>2014-05-17T10:57:14Z</time>
      </trkpt>
      <trkpt lat="42.72429" lon="-0.06295">
        <ele>2371</ele>
        <time>2014-05-17T10:57:30Z</time>
      </trkpt>
      <trkpt lat="42.7243" lon="-0.06288">
        <ele>2375</ele>
        <time>2014-05-17T10:57:43Z</time>
      </trkpt>
      <trkpt lat="42.72432" lon="-0.06287">
        <ele>2375</ele>
        <time>2014-05-17T10:58:07Z</time>
      </trkpt>
      <trkpt lat="42.72426" lon="-0.06283">
        <ele>2377</ele>
        <time>2014-05-17T10:58:22Z</time>
      </trkpt>
      <trkpt lat="42.72422" lon="-0.06278">
        <ele>2380</ele>
        <time>2014-05-17T10:58:37Z</time>
      </trkpt>
      <trkpt lat="42.72423" lon="-0.06272">
        <ele>2383</ele>
        <time>2014-05-17T10:58:45Z</time>
      </trkpt>
      <trkpt lat="42.72422" lon="-0.06261">
        <ele>2385</ele>
        <time>2014-05-17T10:59:01Z</time>
      </trkpt>
      <trkpt lat="42.72422" lon="-0.06259">
        <ele>2385</ele>
        <time>2014-05-17T10:59:04Z</time>
      </trkpt>
      <trkpt lat="42.72414" lon="-0.06254">
        <ele>2387</ele>
        <time>2014-05-17T10:59:16Z</time>
      </trkpt>
      <trkpt lat="42.72408" lon="-0.06253">
        <ele>2388</ele>
        <time>2014-05-17T10:59:30Z</time>
      </trkpt>
      <trkpt lat="42.72402" lon="-0.06248">
        <ele>2390</ele>
        <time>2014-05-17T10:59:45Z</time>
      </trkpt>
      <trkpt lat="42.724" lon="-0.06247">
        <ele>2391</ele>
        <time>2014-05-17T11:00:05Z</time>
      </trkpt>
      <trkpt lat="42.72398" lon="-0.06248">
        <ele>2393</ele>
        <time>2014-05-17T11:00:22Z</time>
      </trkpt>
      <trkpt lat="42.72392" lon="-0.06252">
        <ele>2395</ele>
        <time>2014-05-17T11:00:39Z</time>
      </trkpt>
      <trkpt lat="42.72386" lon="-0.06254">
        <ele>2398</ele>
        <time>2014-05-17T11:00:54Z</time>
      </trkpt>
      <trkpt lat="42.72381" lon="-0.06257">
        <ele>2399</ele>
        <time>2014-05-17T11:01:12Z</time>
      </trkpt>
      <trkpt lat="42.72377" lon="-0.06253">
        <ele>2400</ele>
        <time>2014-05-17T11:01:36Z</time>
      </trkpt>
      <trkpt lat="42.72375" lon="-0.06251">
        <ele>2401</ele>
        <time>2014-05-17T11:01:50Z</time>
      </trkpt>
      <trkpt lat="42.72375" lon="-0.0624">
        <ele>2404</ele>
        <time>2014-05-17T11:02:06Z</time>
      </trkpt>
      <trkpt lat="42.72374" lon="-0.06229">
        <ele>2405</ele>
        <time>2014-05-17T11:02:21Z</time>
      </trkpt>
      <trkpt lat="42.72374" lon="-0.06224">
        <ele>2406</ele>
        <time>2014-05-17T11:02:43Z</time>
      </trkpt>
      <trkpt lat="42.72368" lon="-0.06222">
        <ele>2409</ele>
        <time>2014-05-17T11:02:57Z</time>
      </trkpt>
      <trkpt lat="42.7236" lon="-0.06222">
        <ele>2411</ele>
        <time>2014-05-17T11:03:13Z</time>
      </trkpt>
      <trkpt lat="42.72352" lon="-0.06222">
        <ele>2414</ele>
        <time>2014-05-17T11:03:31Z</time>
      </trkpt>
      <trkpt lat="42.72351" lon="-0.06227">
        <ele>2415</ele>
        <time>2014-05-17T11:03:58Z</time>
      </trkpt>
      <trkpt lat="42.72348" lon="-0.06225">
        <ele>2418</ele>
        <time>2014-05-17T11:04:15Z</time>
      </trkpt>
      <trkpt lat="42.72349" lon="-0.06219">
        <ele>2421</ele>
        <time>2014-05-17T11:04:32Z</time>
      </trkpt>
      <trkpt lat="42.72349" lon="-0.06212">
        <ele>2423</ele>
        <time>2014-05-17T11:04:48Z</time>
      </trkpt>
      <trkpt lat="42.72346" lon="-0.06212">
        <ele>2424</ele>
        <time>2014-05-17T11:05:06Z</time>
      </trkpt>
      <trkpt lat="42.72343" lon="-0.06215">
        <ele>2425</ele>
        <time>2014-05-17T11:05:32Z</time>
      </trkpt>
      <trkpt lat="42.72338" lon="-0.06214">
        <ele>2427</ele>
        <time>2014-05-17T11:05:50Z</time>
      </trkpt>
      <trkpt lat="42.72332" lon="-0.06214">
        <ele>2430</ele>
        <time>2014-05-17T11:06:05Z</time>
      </trkpt>
      <trkpt lat="42.72333" lon="-0.0621">
        <ele>2430</ele>
        <time>2014-05-17T11:06:25Z</time>
      </trkpt>
      <trkpt lat="42.72334" lon="-0.06207">
        <ele>2432</ele>
        <time>2014-05-17T11:06:42Z</time>
      </trkpt>
      <trkpt lat="42.72335" lon="-0.06201">
        <ele>2435</ele>
        <time>2014-05-17T11:06:56Z</time>
      </trkpt>
      <trkpt lat="42.72335" lon="-0.06193">
        <ele>2438</ele>
        <time>2014-05-17T11:07:15Z</time>
      </trkpt>
      <trkpt lat="42.72334" lon="-0.06187">
        <ele>2439</ele>
        <time>2014-05-17T11:07:34Z</time>
      </trkpt>
      <trkpt lat="42.72331" lon="-0.0619">
        <ele>2441</ele>
        <time>2014-05-17T11:07:48Z</time>
      </trkpt>
      <trkpt lat="42.72326" lon="-0.06188">
        <ele>2443</ele>
        <time>2014-05-17T11:08:05Z</time>
      </trkpt>
      <trkpt lat="42.7232" lon="-0.06182">
        <ele>2444</ele>
        <time>2014-05-17T11:08:20Z</time>
      </trkpt>
      <trkpt lat="42.72329" lon="-0.06177">
        <ele>2445</ele>
        <time>2014-05-17T11:08:46Z</time>
      </trkpt>
      <trkpt lat="42.7233" lon="-0.06174">
        <ele>2447</ele>
        <time>2014-05-17T11:09:00Z</time>
      </trkpt>
      <trkpt lat="42.72329" lon="-0.06174">
        <ele>2449</ele>
        <time>2014-05-17T11:09:17Z</time>
      </trkpt>
      <trkpt lat="42.72324" lon="-0.06177">
        <ele>2451</ele>
        <time>2014-05-17T11:09:32Z</time>
      </trkpt>
      <trkpt lat="42.72321" lon="-0.0618">
        <ele>2454</ele>
        <time>2014-05-17T11:09:48Z</time>
      </trkpt>
      <trkpt lat="42.72322" lon="-0.06178">
        <ele>2456</ele>
        <time>2014-05-17T11:10:17Z</time>
      </trkpt>
      <trkpt lat="42.72321" lon="-0.0618">
        <ele>2457</ele>
        <time>2014-05-17T11:10:36Z</time>
      </trkpt>
      <trkpt lat="42.72326" lon="-0.06177">
        <ele>2458</ele>
        <time>2014-05-17T11:10:54Z</time>
      </trkpt>
      <trkpt lat="42.72322" lon="-0.06172">
        <ele>2461</ele>
        <time>2014-05-17T11:11:07Z</time>
      </trkpt>
      <trkpt lat="42.72323" lon="-0.06165">
        <ele>2464</ele>
        <time>2014-05-17T11:11:24Z</time>
      </trkpt>
      <trkpt lat="42.72325" lon="-0.06161">
        <ele>2465</ele>
        <time>2014-05-17T11:11:46Z</time>
      </trkpt>
      <trkpt lat="42.72324" lon="-0.06155">
        <ele>2466</ele>
        <time>2014-05-17T11:12:02Z</time>
      </trkpt>
      <trkpt lat="42.72321" lon="-0.06154">
        <ele>2470</ele>
        <time>2014-05-17T11:12:21Z</time>
      </trkpt>
      <trkpt lat="42.72315" lon="-0.06159">
        <ele>2473</ele>
        <time>2014-05-17T11:12:39Z</time>
      </trkpt>
      <trkpt lat="42.7231" lon="-0.0616">
        <ele>2476</ele>
        <time>2014-05-17T11:12:55Z</time>
      </trkpt>
      <trkpt lat="42.72307" lon="-0.06161">
        <ele>2478</ele>
        <time>2014-05-17T11:13:23Z</time>
      </trkpt>
      <trkpt lat="42.72302" lon="-0.06163">
        <ele>2481</ele>
        <time>2014-05-17T11:13:38Z</time>
      </trkpt>
      <trkpt lat="42.72294" lon="-0.06164">
        <ele>2484</ele>
        <time>2014-05-17T11:13:56Z</time>
      </trkpt>
      <trkpt lat="42.72291" lon="-0.0617">
        <ele>2485</ele>
        <time>2014-05-17T11:14:11Z</time>
      </trkpt>
      <trkpt lat="42.72286" lon="-0.06183">
        <ele>2488</ele>
        <time>2014-05-17T11:14:29Z</time>
      </trkpt>
      <trkpt lat="42.72282" lon="-0.06188">
        <ele>2490</ele>
        <time>2014-05-17T11:14:46Z</time>
      </trkpt>
      <trkpt lat="42.72272" lon="-0.06202">
        <ele>2492</ele>
        <time>2014-05-17T11:15:02Z</time>
      </trkpt>
      <trkpt lat="42.72269" lon="-0.06212">
        <ele>2495</ele>
        <time>2014-05-17T11:15:21Z</time>
      </trkpt>
      <trkpt lat="42.72268" lon="-0.06219">
        <ele>2497</ele>
        <time>2014-05-17T11:15:45Z</time>
      </trkpt>
      <trkpt lat="42.72257" lon="-0.06231">
        <ele>2498</ele>
        <time>2014-05-17T11:16:03Z</time>
      </trkpt>
      <trkpt lat="42.72249" lon="-0.06244">
        <ele>2501</ele>
        <time>2014-05-17T11:16:21Z</time>
      </trkpt>
      <trkpt lat="42.72246" lon="-0.06246">
        <ele>2501</ele>
        <time>2014-05-17T11:16:24Z</time>
      </trkpt>
      <trkpt lat="42.72238" lon="-0.06259">
        <ele>2503</ele>
        <time>2014-05-17T11:16:39Z</time>
      </trkpt>
      <trkpt lat="42.72234" lon="-0.06271">
        <ele>2505</ele>
        <time>2014-05-17T11:16:56Z</time>
      </trkpt>
      <trkpt lat="42.72233" lon="-0.06274">
        <ele>2506</ele>
        <time>2014-05-17T11:17:22Z</time>
      </trkpt>
      <trkpt lat="42.7223" lon="-0.06285">
        <ele>2508</ele>
        <time>2014-05-17T11:17:40Z</time>
      </trkpt>
      <trkpt lat="42.72225" lon="-0.06294">
        <ele>2511</ele>
        <time>2014-05-17T11:17:56Z</time>
      </trkpt>
      <trkpt lat="42.72217" lon="-0.0631">
        <ele>2513</ele>
        <time>2014-05-17T11:18:16Z</time>
      </trkpt>
      <trkpt lat="42.72217" lon="-0.06312">
        <ele>2513</ele>
        <time>2014-05-17T11:18:35Z</time>
      </trkpt>
      <trkpt lat="42.72215" lon="-0.06322">
        <ele>2515</ele>
        <time>2014-05-17T11:18:51Z</time>
      </trkpt>
      <trkpt lat="42.72211" lon="-0.06334">
        <ele>2517</ele>
        <time>2014-05-17T11:19:07Z</time>
      </trkpt>
      <trkpt lat="42.72209" lon="-0.06345">
        <ele>2521</ele>
        <time>2014-05-17T11:19:22Z</time>
      </trkpt>
      <trkpt lat="42.72207" lon="-0.06355">
        <ele>2524</ele>
        <time>2014-05-17T11:19:38Z</time>
      </trkpt>
      <trkpt lat="42.72205" lon="-0.06363">
        <ele>2525</ele>
        <time>2014-05-17T11:19:54Z</time>
      </trkpt>
      <trkpt lat="42.72205" lon="-0.06367">
        <ele>2526</ele>
        <time>2014-05-17T11:20:19Z</time>
      </trkpt>
      <trkpt lat="42.72204" lon="-0.06374">
        <ele>2527</ele>
        <time>2014-05-17T11:20:33Z</time>
      </trkpt>
      <trkpt lat="42.72203" lon="-0.0638">
        <ele>2530</ele>
        <time>2014-05-17T11:20:46Z</time>
      </trkpt>
      <trkpt lat="42.72202" lon="-0.06384">
        <ele>2533</ele>
        <time>2014-05-17T11:21:00Z</time>
      </trkpt>
      <trkpt lat="42.72206" lon="-0.06381">
        <ele>2534</ele>
        <time>2014-05-17T11:21:23Z</time>
      </trkpt>
      <trkpt lat="42.72199" lon="-0.06378">
        <ele>2535</ele>
        <time>2014-05-17T11:21:40Z</time>
      </trkpt>
      <trkpt lat="42.72198" lon="-0.06377">
        <ele>2536</ele>
        <time>2014-05-17T11:21:57Z</time>
      </trkpt>
      <trkpt lat="42.72195" lon="-0.06386">
        <ele>2536</ele>
        <time>2014-05-17T11:22:20Z</time>
      </trkpt>
      <trkpt lat="42.72195" lon="-0.0639">
        <ele>2538</ele>
        <time>2014-05-17T11:22:34Z</time>
      </trkpt>
      <trkpt lat="42.72196" lon="-0.06395">
        <ele>2540</ele>
        <time>2014-05-17T11:22:48Z</time>
      </trkpt>
      <trkpt lat="42.72197" lon="-0.06399">
        <ele>2542</ele>
        <time>2014-05-17T11:23:02Z</time>
      </trkpt>
      <trkpt lat="42.72198" lon="-0.06402">
        <ele>2545</ele>
        <time>2014-05-17T11:23:16Z</time>
      </trkpt>
      <trkpt lat="42.72198" lon="-0.06404">
        <ele>2547</ele>
        <time>2014-05-17T11:23:31Z</time>
      </trkpt>
      <trkpt lat="42.72201" lon="-0.06407">
        <ele>2548</ele>
        <time>2014-05-17T11:23:50Z</time>
      </trkpt>
      <trkpt lat="42.722" lon="-0.06413">
        <ele>2549</ele>
        <time>2014-05-17T11:24:06Z</time>
      </trkpt>
      <trkpt lat="42.72195" lon="-0.06418">
        <ele>2552</ele>
        <time>2014-05-17T11:24:19Z</time>
      </trkpt>
      <trkpt lat="42.72187" lon="-0.06418">
        <ele>2553</ele>
        <time>2014-05-17T11:24:39Z</time>
      </trkpt>
      <trkpt lat="42.72185" lon="-0.06417">
        <ele>2555</ele>
        <time>2014-05-17T11:24:42Z</time>
      </trkpt>
      <trkpt lat="42.72177" lon="-0.0642">
        <ele>2558</ele>
        <time>2014-05-17T11:25:02Z</time>
      </trkpt>
      <trkpt lat="42.72173" lon="-0.06422">
        <ele>2560</ele>
        <time>2014-05-17T11:25:15Z</time>
      </trkpt>
      <trkpt lat="42.72166" lon="-0.06423">
        <ele>2562</ele>
        <time>2014-05-17T11:25:32Z</time>
      </trkpt>
      <trkpt lat="42.72161" lon="-0.06427">
        <ele>2563</ele>
        <time>2014-05-17T11:25:50Z</time>
      </trkpt>
      <trkpt lat="42.72154" lon="-0.06436">
        <ele>2565</ele>
        <time>2014-05-17T11:26:07Z</time>
      </trkpt>
      <trkpt lat="42.72145" lon="-0.06443">
        <ele>2567</ele>
        <time>2014-05-17T11:26:25Z</time>
      </trkpt>
      <trkpt lat="42.72136" lon="-0.06455">
        <ele>2568</ele>
        <time>2014-05-17T11:26:40Z</time>
      </trkpt>
      <trkpt lat="42.72125" lon="-0.06466">
        <ele>2569</ele>
        <time>2014-05-17T11:26:58Z</time>
      </trkpt>
      <trkpt lat="42.72116" lon="-0.06472">
        <ele>2570</ele>
        <time>2014-05-17T11:27:15Z</time>
      </trkpt>
      <trkpt lat="42.72109" lon="-0.0648">
        <ele>2573</ele>
        <time>2014-05-17T11:27:33Z</time>
      </trkpt>
      <trkpt lat="42.72107" lon="-0.0648">
        <ele>2573</ele>
        <time>2014-05-17T11:27:53Z</time>
      </trkpt>
      <trkpt lat="42.721" lon="-0.06492">
        <ele>2575</ele>
        <time>2014-05-17T11:28:12Z</time>
      </trkpt>
      <trkpt lat="42.72093" lon="-0.06501">
        <ele>2576</ele>
        <time>2014-05-17T11:28:30Z</time>
      </trkpt>
      <trkpt lat="42.72086" lon="-0.0651">
        <ele>2577</ele>
        <time>2014-05-17T11:28:45Z</time>
      </trkpt>
      <trkpt lat="42.72078" lon="-0.06524">
        <ele>2579</ele>
        <time>2014-05-17T11:29:03Z</time>
      </trkpt>
      <trkpt lat="42.72079" lon="-0.06523">
        <ele>2580</ele>
        <time>2014-05-17T11:29:25Z</time>
      </trkpt>
      <trkpt lat="42.72079" lon="-0.06524">
        <ele>2580</ele>
        <time>2014-05-17T11:29:53Z</time>
      </trkpt>
      <trkpt lat="42.72079" lon="-0.06523">
        <ele>2580</ele>
        <time>2014-05-17T11:30:21Z</time>
      </trkpt>
      <trkpt lat="42.72074" lon="-0.06535">
        <ele>2583</ele>
        <time>2014-05-17T11:30:41Z</time>
      </trkpt>
      <trkpt lat="42.72073" lon="-0.06536">
        <ele>2583</ele>
        <time>2014-05-17T11:30:59Z</time>
      </trkpt>
      <trkpt lat="42.72072" lon="-0.06537">
        <ele>2584</ele>
        <time>2014-05-17T11:31:25Z</time>
      </trkpt>
      <trkpt lat="42.7207" lon="-0.06548">
        <ele>2586</ele>
        <time>2014-05-17T11:31:45Z</time>
      </trkpt>
      <trkpt lat="42.72065" lon="-0.06556">
        <ele>2588</ele>
        <time>2014-05-17T11:32:04Z</time>
      </trkpt>
      <trkpt lat="42.7206" lon="-0.06563">
        <ele>2591</ele>
        <time>2014-05-17T11:32:20Z</time>
      </trkpt>
      <trkpt lat="42.72056" lon="-0.06564">
        <ele>2593</ele>
        <time>2014-05-17T11:32:36Z</time>
      </trkpt>
      <trkpt lat="42.72051" lon="-0.06567">
        <ele>2596</ele>
        <time>2014-05-17T11:32:53Z</time>
      </trkpt>
      <trkpt lat="42.72046" lon="-0.06572">
        <ele>2599</ele>
        <time>2014-05-17T11:33:10Z</time>
      </trkpt>
      <trkpt lat="42.72039" lon="-0.06579">
        <ele>2600</ele>
        <time>2014-05-17T11:33:27Z</time>
      </trkpt>
      <trkpt lat="42.72037" lon="-0.06581">
        <ele>2600</ele>
        <time>2014-05-17T11:33:41Z</time>
      </trkpt>
      <trkpt lat="42.72035" lon="-0.06591">
        <ele>2601</ele>
        <time>2014-05-17T11:34:02Z</time>
      </trkpt>
      <trkpt lat="42.72032" lon="-0.06594">
        <ele>2601</ele>
        <time>2014-05-17T11:34:15Z</time>
      </trkpt>
      <trkpt lat="42.72033" lon="-0.06593">
        <ele>2602</ele>
        <time>2014-05-17T11:34:34Z</time>
      </trkpt>
      <trkpt lat="42.72036" lon="-0.06594">
        <ele>2601</ele>
        <time>2014-05-17T11:34:47Z</time>
      </trkpt>
      <trkpt lat="42.72036" lon="-0.06593">
        <ele>2601</ele>
        <time>2014-05-17T11:35:05Z</time>
      </trkpt>
      <trkpt lat="42.72035" lon="-0.06591">
        <ele>2601</ele>
        <time>2014-05-17T11:35:25Z</time>
      </trkpt>
      <trkpt lat="42.72035" lon="-0.06591">
        <ele>2601</ele>
        <time>2014-05-17T11:35:53Z</time>
      </trkpt>
      <trkpt lat="42.72036" lon="-0.0659">
        <ele>2602</ele>
        <time>2014-05-17T11:36:18Z</time>
      </trkpt>
      <trkpt lat="42.72036" lon="-0.06591">
        <ele>2602</ele>
        <time>2014-05-17T11:36:36Z</time>
      </trkpt>
      <trkpt lat="42.72036" lon="-0.06591">
        <ele>2602</ele>
        <time>2014-05-17T11:36:50Z</time>
      </trkpt>
      <trkpt lat="42.72037" lon="-0.06591">
        <ele>2602</ele>
        <time>2014-05-17T11:37:11Z</time>
      </trkpt>
      <trkpt lat="42.72036" lon="-0.06593">
        <ele>2602</ele>
        <time>2014-05-17T11:37:36Z</time>
      </trkpt>
      <trkpt lat="42.72036" lon="-0.06592">
        <ele>2602</ele>
        <time>2014-05-17T11:37:57Z</time>
      </trkpt>
      <trkpt lat="42.72037" lon="-0.06592">
        <ele>2602</ele>
        <time>2014-05-17T11:38:13Z</time>
      </trkpt>
      <trkpt lat="42.72034" lon="-0.06594">
        <ele>2602</ele>
        <time>2014-05-17T11:38:40Z</time>
      </trkpt>
      <trkpt lat="42.72033" lon="-0.06596">
        <ele>2602</ele>
        <time>2014-05-17T11:39:00Z</time>
      </trkpt>
      <trkpt lat="42.72035" lon="-0.06594">
        <ele>2602</ele>
        <time>2014-05-17T11:39:21Z</time>
      </trkpt>
      <trkpt lat="42.72037" lon="-0.06593">
        <ele>2602</ele>
        <time>2014-05-17T11:39:39Z</time>
      </trkpt>
      <trkpt lat="42.72036" lon="-0.06594">
        <ele>2602</ele>
        <time>2014-05-17T11:39:56Z</time>
      </trkpt>
      <trkpt lat="42.72036" lon="-0.06594">
        <ele>2602</ele>
        <time>2014-05-17T11:40:14Z</time>
      </trkpt>
      <trkpt lat="42.72036" lon="-0.06593">
        <ele>2602</ele>
        <time>2014-05-17T11:40:29Z</time>
      </trkpt>
      <trkpt lat="42.72036" lon="-0.06594">
        <ele>2602</ele>
        <time>2014-05-17T11:40:45Z</time>
      </trkpt>
      <trkpt lat="42.72036" lon="-0.06594">
        <ele>2601</ele>
        <time>2014-05-17T11:41:11Z</time>
      </trkpt>
      <trkpt lat="42.72036" lon="-0.06594">
        <ele>2602</ele>
        <time>2014-05-17T11:41:29Z</time>
      </trkpt>
      <trkpt lat="42.72036" lon="-0.06593">
        <ele>2602</ele>
        <time>2014-05-17T11:41:52Z</time>
      </trkpt>
      <trkpt lat="42.72036" lon="-0.06595">
        <ele>2602</ele>
        <time>2014-05-17T11:42:17Z</time>
      </trkpt>
      <trkpt lat="42.72035" lon="-0.06594">
        <ele>2602</ele>
        <time>2014-05-17T11:42:36Z</time>
      </trkpt>
      <trkpt lat="42.72035" lon="-0.06595">
        <ele>2603</ele>
        <time>2014-05-17T11:42:57Z</time>
      </trkpt>
      <trkpt lat="42.72036" lon="-0.06594">
        <ele>2601</ele>
        <time>2014-05-17T11:43:19Z</time>
      </trkpt>
      <trkpt lat="42.72036" lon="-0.06593">
        <ele>2602</ele>
        <time>2014-05-17T11:43:55Z</time>
      </trkpt>
      <trkpt lat="42.72036" lon="-0.06594">
        <ele>2602</ele>
        <time>2014-05-17T11:44:39Z</time>
      </trkpt>
      <trkpt lat="42.72036" lon="-0.06593">
        <ele>2603</ele>
        <time>2014-05-17T11:45:15Z</time>
      </trkpt>
      <trkpt lat="42.72036" lon="-0.06593">
        <ele>2602</ele>
        <time>2014-05-17T11:45:56Z</time>
      </trkpt>
      <trkpt lat="42.72036" lon="-0.06594">
        <ele>2602</ele>
        <time>2014-05-17T11:46:37Z</time>
      </trkpt>
      <trkpt lat="42.72034" lon="-0.06594">
        <ele>2603</ele>
        <time>2014-05-17T11:47:09Z</time>
      </trkpt>
      <trkpt lat="42.72035" lon="-0.06595">
        <ele>2603</ele>
        <time>2014-05-17T11:47:54Z</time>
      </trkpt>
      <trkpt lat="42.72034" lon="-0.06595">
        <ele>2603</ele>
        <time>2014-05-17T11:48:29Z</time>
      </trkpt>
      <trkpt lat="42.72034" lon="-0.06594">
        <ele>2603</ele>
        <time>2014-05-17T11:49:10Z</time>
      </trkpt>
      <trkpt lat="42.72034" lon="-0.06595">
        <ele>2603</ele>
        <time>2014-05-17T11:49:45Z</time>
      </trkpt>
      <trkpt lat="42.72034" lon="-0.06594">
        <ele>2602</ele>
        <time>2014-05-17T11:50:23Z</time>
      </trkpt>
      <trkpt lat="42.72035" lon="-0.06594">
        <ele>2603</ele>
        <time>2014-05-17T11:51:03Z</time>
      </trkpt>
      <trkpt lat="42.72034" lon="-0.06594">
        <ele>2603</ele>
        <time>2014-05-17T11:51:40Z</time>
      </trkpt>
      <trkpt lat="42.72034" lon="-0.06594">
        <ele>2603</ele>
        <time>2014-05-17T11:52:25Z</time>
      </trkpt>
      <trkpt lat="42.72035" lon="-0.06594">
        <ele>2603</ele>
        <time>2014-05-17T11:53:03Z</time>
      </trkpt>
      <trkpt lat="42.72035" lon="-0.06594">
        <ele>2603</ele>
        <time>2014-05-17T11:53:44Z</time>
      </trkpt>
      <trkpt lat="42.72035" lon="-0.06595">
        <ele>2604</ele>
        <time>2014-05-17T11:54:21Z</time>
      </trkpt>
      <trkpt lat="42.72035" lon="-0.06594">
        <ele>2603</ele>
        <time>2014-05-17T11:54:46Z</time>
      </trkpt>
      <trkpt lat="42.72036" lon="-0.06594">
        <ele>2604</ele>
        <time>2014-05-17T11:55:11Z</time>
      </trkpt>
      <trkpt lat="42.72036" lon="-0.06593">
        <ele>2604</ele>
        <time>2014-05-17T11:55:38Z</time>
      </trkpt>
      <trkpt lat="42.72034" lon="-0.06594">
        <ele>2605</ele>
        <time>2014-05-17T11:56:16Z</time>
      </trkpt>
      <trkpt lat="42.72036" lon="-0.06593">
        <ele>2604</ele>
        <time>2014-05-17T11:56:47Z</time>
      </trkpt>
      <trkpt lat="42.72037" lon="-0.06593">
        <ele>2604</ele>
        <time>2014-05-17T11:57:31Z</time>
      </trkpt>
      <trkpt lat="42.72036" lon="-0.06593">
        <ele>2603</ele>
        <time>2014-05-17T11:57:44Z</time>
      </trkpt>
      <trkpt lat="42.72036" lon="-0.06594">
        <ele>2604</ele>
        <time>2014-05-17T11:58:19Z</time>
      </trkpt>
      <trkpt lat="42.72036" lon="-0.06594">
        <ele>2605</ele>
        <time>2014-05-17T11:58:41Z</time>
      </trkpt>
      <trkpt lat="42.72034" lon="-0.06593">
        <ele>2605</ele>
        <time>2014-05-17T11:59:02Z</time>
      </trkpt>
      <trkpt lat="42.72036" lon="-0.06593">
        <ele>2605</ele>
        <time>2014-05-17T11:59:17Z</time>
      </trkpt>
      <trkpt lat="42.72036" lon="-0.06593">
        <ele>2604</ele>
        <time>2014-05-17T11:59:33Z</time>
      </trkpt>
      <trkpt lat="42.72036" lon="-0.06594">
        <ele>2605</ele>
        <time>2014-05-17T11:59:50Z</time>
      </trkpt>
      <trkpt lat="42.72035" lon="-0.06594">
        <ele>2605</ele>
        <time>2014-05-17T12:00:13Z</time>
      </trkpt>
      <trkpt lat="42.72036" lon="-0.06594">
        <ele>2606</ele>
        <time>2014-05-17T12:00:43Z</time>
      </trkpt>
      <trkpt lat="42.72036" lon="-0.06594">
        <ele>2605</ele>
        <time>2014-05-17T12:01:07Z</time>
      </trkpt>
      <trkpt lat="42.72033" lon="-0.066">
        <ele>2605</ele>
        <time>2014-05-17T12:01:22Z</time>
      </trkpt>
      <trkpt lat="42.72031" lon="-0.06607">
        <ele>2603</ele>
        <time>2014-05-17T12:01:34Z</time>
      </trkpt>
      <trkpt lat="42.7203" lon="-0.06613">
        <ele>2602</ele>
        <time>2014-05-17T12:01:48Z</time>
      </trkpt>
      <trkpt lat="42.72029" lon="-0.06618">
        <ele>2600</ele>
        <time>2014-05-17T12:02:02Z</time>
      </trkpt>
      <trkpt lat="42.7203" lon="-0.06622">
        <ele>2600</ele>
        <time>2014-05-17T12:02:14Z</time>
      </trkpt>
      <trkpt lat="42.72026" lon="-0.06625">
        <ele>2599</ele>
        <time>2014-05-17T12:02:28Z</time>
      </trkpt>
      <trkpt lat="42.72026" lon="-0.0663">
        <ele>2596</ele>
        <time>2014-05-17T12:02:39Z</time>
      </trkpt>
      <trkpt lat="42.72022" lon="-0.06635">
        <ele>2594</ele>
        <time>2014-05-17T12:02:52Z</time>
      </trkpt>
      <trkpt lat="42.72018" lon="-0.06641">
        <ele>2593</ele>
        <time>2014-05-17T12:03:04Z</time>
      </trkpt>
      <trkpt lat="42.72014" lon="-0.06646">
        <ele>2590</ele>
        <time>2014-05-17T12:03:17Z</time>
      </trkpt>
      <trkpt lat="42.72009" lon="-0.06654">
        <ele>2588</ele>
        <time>2014-05-17T12:03:32Z</time>
      </trkpt>
      <trkpt lat="42.72003" lon="-0.06662">
        <ele>2586</ele>
        <time>2014-05-17T12:03:42Z</time>
      </trkpt>
      <trkpt lat="42.71997" lon="-0.06668">
        <ele>2582</ele>
        <time>2014-05-17T12:03:56Z</time>
      </trkpt>
      <trkpt lat="42.71995" lon="-0.06667">
        <ele>2583</ele>
        <time>2014-05-17T12:04:09Z</time>
      </trkpt>
      <trkpt lat="42.71997" lon="-0.06665">
        <ele>2583</ele>
        <time>2014-05-17T12:04:27Z</time>
      </trkpt>
      <trkpt lat="42.71995" lon="-0.06666">
        <ele>2583</ele>
        <time>2014-05-17T12:04:51Z</time>
      </trkpt>
      <trkpt lat="42.71997" lon="-0.06668">
        <ele>2583</ele>
        <time>2014-05-17T12:05:13Z</time>
      </trkpt>
      <trkpt lat="42.71998" lon="-0.06666">
        <ele>2583</ele>
        <time>2014-05-17T12:05:15Z</time>
      </trkpt>
      <trkpt lat="42.71997" lon="-0.06663">
        <ele>2582</ele>
        <time>2014-05-17T12:05:17Z</time>
      </trkpt>
      <trkpt lat="42.71993" lon="-0.06661">
        <ele>2580</ele>
        <time>2014-05-17T12:05:21Z</time>
      </trkpt>
      <trkpt lat="42.7199" lon="-0.06656">
        <ele>2577</ele>
        <time>2014-05-17T12:05:24Z</time>
      </trkpt>
      <trkpt lat="42.71991" lon="-0.06655">
        <ele>2576</ele>
        <time>2014-05-17T12:05:25Z</time>
      </trkpt>
      <trkpt lat="42.71987" lon="-0.06653">
        <ele>2572</ele>
        <time>2014-05-17T12:05:29Z</time>
      </trkpt>
      <trkpt lat="42.71987" lon="-0.06654">
        <ele>2572</ele>
        <time>2014-05-17T12:05:30Z</time>
      </trkpt>
      <trkpt lat="42.71985" lon="-0.06656">
        <ele>2571</ele>
        <time>2014-05-17T12:05:32Z</time>
      </trkpt>
      <trkpt lat="42.71981" lon="-0.06651">
        <ele>2568</ele>
        <time>2014-05-17T12:05:35Z</time>
      </trkpt>
      <trkpt lat="42.71977" lon="-0.06645">
        <ele>2563</ele>
        <time>2014-05-17T12:05:39Z</time>
      </trkpt>
      <trkpt lat="42.71975" lon="-0.06647">
        <ele>2563</ele>
        <time>2014-05-17T12:05:40Z</time>
      </trkpt>
      <trkpt lat="42.71972" lon="-0.06652">
        <ele>2562</ele>
        <time>2014-05-17T12:05:42Z</time>
      </trkpt>
      <trkpt lat="42.7197" lon="-0.06653">
        <ele>2560</ele>
        <time>2014-05-17T12:05:43Z</time>
      </trkpt>
      <trkpt lat="42.71964" lon="-0.06648">
        <ele>2557</ele>
        <time>2014-05-17T12:05:46Z</time>
      </trkpt>
      <trkpt lat="42.71959" lon="-0.0665">
        <ele>2552</ele>
        <time>2014-05-17T12:05:48Z</time>
      </trkpt>
      <trkpt lat="42.71956" lon="-0.06653">
        <ele>2551</ele>
        <time>2014-05-17T12:05:49Z</time>
      </trkpt>
      <trkpt lat="42.71943" lon="-0.06665">
        <ele>2547</ele>
        <time>2014-05-17T12:05:54Z</time>
      </trkpt>
      <trkpt lat="42.71938" lon="-0.06661">
        <ele>2545</ele>
        <time>2014-05-17T12:05:57Z</time>
      </trkpt>
      <trkpt lat="42.7193" lon="-0.06661">
        <ele>2538</ele>
        <time>2014-05-17T12:06:00Z</time>
      </trkpt>
      <trkpt lat="42.71921" lon="-0.06669">
        <ele>2536</ele>
        <time>2014-05-17T12:06:03Z</time>
      </trkpt>
      <trkpt lat="42.71915" lon="-0.06665">
        <ele>2533</ele>
        <time>2014-05-17T12:06:05Z</time>
      </trkpt>
      <trkpt lat="42.71914" lon="-0.06656">
        <ele>2528</ele>
        <time>2014-05-17T12:06:07Z</time>
      </trkpt>
      <trkpt lat="42.71911" lon="-0.06652">
        <ele>2526</ele>
        <time>2014-05-17T12:06:09Z</time>
      </trkpt>
      <trkpt lat="42.71907" lon="-0.06653">
        <ele>2523</ele>
        <time>2014-05-17T12:06:10Z</time>
      </trkpt>
      <trkpt lat="42.71895" lon="-0.06662">
        <ele>2519</ele>
        <time>2014-05-17T12:06:14Z</time>
      </trkpt>
      <trkpt lat="42.71889" lon="-0.06665">
        <ele>2517</ele>
        <time>2014-05-17T12:06:16Z</time>
      </trkpt>
      <trkpt lat="42.71886" lon="-0.06663">
        <ele>2516</ele>
        <time>2014-05-17T12:06:17Z</time>
      </trkpt>
      <trkpt lat="42.71883" lon="-0.06658">
        <ele>2514</ele>
        <time>2014-05-17T12:06:18Z</time>
      </trkpt>
      <trkpt lat="42.71881" lon="-0.06652">
        <ele>2513</ele>
        <time>2014-05-17T12:06:19Z</time>
      </trkpt>
      <trkpt lat="42.71879" lon="-0.06644">
        <ele>2510</ele>
        <time>2014-05-17T12:06:21Z</time>
      </trkpt>
      <trkpt lat="42.71881" lon="-0.06641">
        <ele>2509</ele>
        <time>2014-05-17T12:06:22Z</time>
      </trkpt>
      <trkpt lat="42.71884" lon="-0.06642">
        <ele>2510</ele>
        <time>2014-05-17T12:06:33Z</time>
      </trkpt>
      <trkpt lat="42.71884" lon="-0.06638">
        <ele>2509</ele>
        <time>2014-05-17T12:06:35Z</time>
      </trkpt>
      <trkpt lat="42.71881" lon="-0.06633">
        <ele>2505</ele>
        <time>2014-05-17T12:06:38Z</time>
      </trkpt>
      <trkpt lat="42.71869" lon="-0.0664">
        <ele>2501</ele>
        <time>2014-05-17T12:06:42Z</time>
      </trkpt>
      <trkpt lat="42.71863" lon="-0.06631">
        <ele>2498</ele>
        <time>2014-05-17T12:06:45Z</time>
      </trkpt>
      <trkpt lat="42.71861" lon="-0.06626">
        <ele>2495</ele>
        <time>2014-05-17T12:06:47Z</time>
      </trkpt>
      <trkpt lat="42.71855" lon="-0.06617">
        <ele>2492</ele>
        <time>2014-05-17T12:06:50Z</time>
      </trkpt>
      <trkpt lat="42.71857" lon="-0.06605">
        <ele>2487</ele>
        <time>2014-05-17T12:06:52Z</time>
      </trkpt>
      <trkpt lat="42.71852" lon="-0.06601">
        <ele>2484</ele>
        <time>2014-05-17T12:06:54Z</time>
      </trkpt>
      <trkpt lat="42.71845" lon="-0.06599">
        <ele>2483</ele>
        <time>2014-05-17T12:06:56Z</time>
      </trkpt>
      <trkpt lat="42.71843" lon="-0.06589">
        <ele>2480</ele>
        <time>2014-05-17T12:06:59Z</time>
      </trkpt>
      <trkpt lat="42.71838" lon="-0.06576">
        <ele>2476</ele>
        <time>2014-05-17T12:07:02Z</time>
      </trkpt>
      <trkpt lat="42.71841" lon="-0.06566">
        <ele>2471</ele>
        <time>2014-05-17T12:07:04Z</time>
      </trkpt>
      <trkpt lat="42.71837" lon="-0.06558">
        <ele>2467</ele>
        <time>2014-05-17T12:07:07Z</time>
      </trkpt>
      <trkpt lat="42.71834" lon="-0.06556">
        <ele>2467</ele>
        <time>2014-05-17T12:07:08Z</time>
      </trkpt>
      <trkpt lat="42.71836" lon="-0.0654">
        <ele>2463</ele>
        <time>2014-05-17T12:07:12Z</time>
      </trkpt>
      <trkpt lat="42.71829" lon="-0.06528">
        <ele>2460</ele>
        <time>2014-05-17T12:07:15Z</time>
      </trkpt>
      <trkpt lat="42.71835" lon="-0.06516">
        <ele>2456</ele>
        <time>2014-05-17T12:07:18Z</time>
      </trkpt>
      <trkpt lat="42.71834" lon="-0.06512">
        <ele>2455</ele>
        <time>2014-05-17T12:07:19Z</time>
      </trkpt>
      <trkpt lat="42.71829" lon="-0.06504">
        <ele>2454</ele>
        <time>2014-05-17T12:07:21Z</time>
      </trkpt>
      <trkpt lat="42.71831" lon="-0.06482">
        <ele>2449</ele>
        <time>2014-05-17T12:07:26Z</time>
      </trkpt>
      <trkpt lat="42.71837" lon="-0.06464">
        <ele>2442</ele>
        <time>2014-05-17T12:07:30Z</time>
      </trkpt>
      <trkpt lat="42.71845" lon="-0.06465">
        <ele>2440</ele>
        <time>2014-05-17T12:07:33Z</time>
      </trkpt>
      <trkpt lat="42.71846" lon="-0.06465">
        <ele>2440</ele>
        <time>2014-05-17T12:07:44Z</time>
      </trkpt>
      <trkpt lat="42.71848" lon="-0.06454">
        <ele>2438</ele>
        <time>2014-05-17T12:07:50Z</time>
      </trkpt>
      <trkpt lat="42.7185" lon="-0.06449">
        <ele>2436</ele>
        <time>2014-05-17T12:07:53Z</time>
      </trkpt>
      <trkpt lat="42.71852" lon="-0.06448">
        <ele>2436</ele>
        <time>2014-05-17T12:08:06Z</time>
      </trkpt>
      <trkpt lat="42.71852" lon="-0.06438">
        <ele>2432</ele>
        <time>2014-05-17T12:08:10Z</time>
      </trkpt>
      <trkpt lat="42.71855" lon="-0.06419">
        <ele>2427</ele>
        <time>2014-05-17T12:08:15Z</time>
      </trkpt>
      <trkpt lat="42.71864" lon="-0.06409">
        <ele>2423</ele>
        <time>2014-05-17T12:08:19Z</time>
      </trkpt>
      <trkpt lat="42.71871" lon="-0.06401">
        <ele>2422</ele>
        <time>2014-05-17T12:08:22Z</time>
      </trkpt>
      <trkpt lat="42.7187" lon="-0.06397">
        <ele>2419</ele>
        <time>2014-05-17T12:08:23Z</time>
      </trkpt>
      <trkpt lat="42.7187" lon="-0.06389">
        <ele>2417</ele>
        <time>2014-05-17T12:08:25Z</time>
      </trkpt>
      <trkpt lat="42.71876" lon="-0.06385">
        <ele>2414</ele>
        <time>2014-05-17T12:08:27Z</time>
      </trkpt>
      <trkpt lat="42.71877" lon="-0.06376">
        <ele>2410</ele>
        <time>2014-05-17T12:08:30Z</time>
      </trkpt>
      <trkpt lat="42.71881" lon="-0.0637">
        <ele>2407</ele>
        <time>2014-05-17T12:08:32Z</time>
      </trkpt>
      <trkpt lat="42.7188" lon="-0.06367">
        <ele>2404</ele>
        <time>2014-05-17T12:08:33Z</time>
      </trkpt>
      <trkpt lat="42.71878" lon="-0.06364">
        <ele>2403</ele>
        <time>2014-05-17T12:08:34Z</time>
      </trkpt>
      <trkpt lat="42.71873" lon="-0.06357">
        <ele>2401</ele>
        <time>2014-05-17T12:08:36Z</time>
      </trkpt>
      <trkpt lat="42.71875" lon="-0.0635">
        <ele>2400</ele>
        <time>2014-05-17T12:08:38Z</time>
      </trkpt>
      <trkpt lat="42.71878" lon="-0.06347">
        <ele>2396</ele>
        <time>2014-05-17T12:08:39Z</time>
      </trkpt>
      <trkpt lat="42.71879" lon="-0.06337">
        <ele>2391</ele>
        <time>2014-05-17T12:08:41Z</time>
      </trkpt>
      <trkpt lat="42.71882" lon="-0.06334">
        <ele>2389</ele>
        <time>2014-05-17T12:08:42Z</time>
      </trkpt>
      <trkpt lat="42.71884" lon="-0.06327">
        <ele>2384</ele>
        <time>2014-05-17T12:08:44Z</time>
      </trkpt>
      <trkpt lat="42.71883" lon="-0.06313">
        <ele>2379</ele>
        <time>2014-05-17T12:08:47Z</time>
      </trkpt>
      <trkpt lat="42.71884" lon="-0.06305">
        <ele>2376</ele>
        <time>2014-05-17T12:08:49Z</time>
      </trkpt>
      <trkpt lat="42.71879" lon="-0.06296">
        <ele>2372</ele>
        <time>2014-05-17T12:08:51Z</time>
      </trkpt>
      <trkpt lat="42.71877" lon="-0.06292">
        <ele>2372</ele>
        <time>2014-05-17T12:08:52Z</time>
      </trkpt>
      <trkpt lat="42.71873" lon="-0.06285">
        <ele>2370</ele>
        <time>2014-05-17T12:08:54Z</time>
      </trkpt>
      <trkpt lat="42.71875" lon="-0.06277">
        <ele>2366</ele>
        <time>2014-05-17T12:08:57Z</time>
      </trkpt>
      <trkpt lat="42.71875" lon="-0.06279">
        <ele>2367</ele>
        <time>2014-05-17T12:09:11Z</time>
      </trkpt>
      <trkpt lat="42.71876" lon="-0.06279">
        <ele>2367</ele>
        <time>2014-05-17T12:09:17Z</time>
      </trkpt>
      <trkpt lat="42.7188" lon="-0.06269">
        <ele>2364</ele>
        <time>2014-05-17T12:09:22Z</time>
      </trkpt>
      <trkpt lat="42.71875" lon="-0.06259">
        <ele>2361</ele>
        <time>2014-05-17T12:09:25Z</time>
      </trkpt>
      <trkpt lat="42.71878" lon="-0.0625">
        <ele>2356</ele>
        <time>2014-05-17T12:09:28Z</time>
      </trkpt>
      <trkpt lat="42.71884" lon="-0.06245">
        <ele>2352</ele>
        <time>2014-05-17T12:09:31Z</time>
      </trkpt>
      <trkpt lat="42.7188" lon="-0.06238">
        <ele>2349</ele>
        <time>2014-05-17T12:09:33Z</time>
      </trkpt>
      <trkpt lat="42.71876" lon="-0.0623">
        <ele>2347</ele>
        <time>2014-05-17T12:09:35Z</time>
      </trkpt>
      <trkpt lat="42.71872" lon="-0.06222">
        <ele>2346</ele>
        <time>2014-05-17T12:09:37Z</time>
      </trkpt>
      <trkpt lat="42.7188" lon="-0.06208">
        <ele>2339</ele>
        <time>2014-05-17T12:09:41Z</time>
      </trkpt>
      <trkpt lat="42.71887" lon="-0.06202">
        <ele>2336</ele>
        <time>2014-05-17T12:09:43Z</time>
      </trkpt>
      <trkpt lat="42.71894" lon="-0.06195">
        <ele>2333</ele>
        <time>2014-05-17T12:09:45Z</time>
      </trkpt>
      <trkpt lat="42.71898" lon="-0.06193">
        <ele>2330</ele>
        <time>2014-05-17T12:09:46Z</time>
      </trkpt>
      <trkpt lat="42.71917" lon="-0.06193">
        <ele>2327</ele>
        <time>2014-05-17T12:09:50Z</time>
      </trkpt>
      <trkpt lat="42.71923" lon="-0.06194">
        <ele>2327</ele>
        <time>2014-05-17T12:09:52Z</time>
      </trkpt>
      <trkpt lat="42.71927" lon="-0.06196">
        <ele>2325</ele>
        <time>2014-05-17T12:10:01Z</time>
      </trkpt>
      <trkpt lat="42.71928" lon="-0.06197">
        <ele>2325</ele>
        <time>2014-05-17T12:10:10Z</time>
      </trkpt>
      <trkpt lat="42.71939" lon="-0.06193">
        <ele>2322</ele>
        <time>2014-05-17T12:10:15Z</time>
      </trkpt>
      <trkpt lat="42.71939" lon="-0.06186">
        <ele>2320</ele>
        <time>2014-05-17T12:10:17Z</time>
      </trkpt>
      <trkpt lat="42.71944" lon="-0.0618">
        <ele>2316</ele>
        <time>2014-05-17T12:10:19Z</time>
      </trkpt>
      <trkpt lat="42.71945" lon="-0.06174">
        <ele>2313</ele>
        <time>2014-05-17T12:10:21Z</time>
      </trkpt>
      <trkpt lat="42.71946" lon="-0.06168">
        <ele>2309</ele>
        <time>2014-05-17T12:10:23Z</time>
      </trkpt>
      <trkpt lat="42.71951" lon="-0.06161">
        <ele>2304</ele>
        <time>2014-05-17T12:10:26Z</time>
      </trkpt>
      <trkpt lat="42.71956" lon="-0.06153">
        <ele>2300</ele>
        <time>2014-05-17T12:10:30Z</time>
      </trkpt>
      <trkpt lat="42.71954" lon="-0.06143">
        <ele>2296</ele>
        <time>2014-05-17T12:10:34Z</time>
      </trkpt>
      <trkpt lat="42.71956" lon="-0.06138">
        <ele>2295</ele>
        <time>2014-05-17T12:10:36Z</time>
      </trkpt>
      <trkpt lat="42.71953" lon="-0.06131">
        <ele>2291</ele>
        <time>2014-05-17T12:10:38Z</time>
      </trkpt>
      <trkpt lat="42.71952" lon="-0.06129">
        <ele>2290</ele>
        <time>2014-05-17T12:10:39Z</time>
      </trkpt>
      <trkpt lat="42.71951" lon="-0.06127">
        <ele>2290</ele>
        <time>2014-05-17T12:10:41Z</time>
      </trkpt>
      <trkpt lat="42.71956" lon="-0.06119">
        <ele>2286</ele>
        <time>2014-05-17T12:10:47Z</time>
      </trkpt>
      <trkpt lat="42.71957" lon="-0.06115">
        <ele>2286</ele>
        <time>2014-05-17T12:10:48Z</time>
      </trkpt>
      <trkpt lat="42.71962" lon="-0.06114">
        <ele>2282</ele>
        <time>2014-05-17T12:11:03Z</time>
      </trkpt>
      <trkpt lat="42.71962" lon="-0.06113">
        <ele>2282</ele>
        <time>2014-05-17T12:11:17Z</time>
      </trkpt>
      <trkpt lat="42.71964" lon="-0.06105">
        <ele>2278</ele>
        <time>2014-05-17T12:11:21Z</time>
      </trkpt>
      <trkpt lat="42.71965" lon="-0.06103">
        <ele>2279</ele>
        <time>2014-05-17T12:11:22Z</time>
      </trkpt>
      <trkpt lat="42.71967" lon="-0.06094">
        <ele>2275</ele>
        <time>2014-05-17T12:11:25Z</time>
      </trkpt>
      <trkpt lat="42.71969" lon="-0.06084">
        <ele>2269</ele>
        <time>2014-05-17T12:11:29Z</time>
      </trkpt>
      <trkpt lat="42.71967" lon="-0.06083">
        <ele>2268</ele>
        <time>2014-05-17T12:11:31Z</time>
      </trkpt>
      <trkpt lat="42.71967" lon="-0.06079">
        <ele>2267</ele>
        <time>2014-05-17T12:11:34Z</time>
      </trkpt>
      <trkpt lat="42.71967" lon="-0.06076">
        <ele>2265</ele>
        <time>2014-05-17T12:11:35Z</time>
      </trkpt>
      <trkpt lat="42.71968" lon="-0.06068">
        <ele>2262</ele>
        <time>2014-05-17T12:11:38Z</time>
      </trkpt>
      <trkpt lat="42.71966" lon="-0.06064">
        <ele>2261</ele>
        <time>2014-05-17T12:11:39Z</time>
      </trkpt>
      <trkpt lat="42.71958" lon="-0.06062">
        <ele>2257</ele>
        <time>2014-05-17T12:11:44Z</time>
      </trkpt>
      <trkpt lat="42.71953" lon="-0.06066">
        <ele>2256</ele>
        <time>2014-05-17T12:11:52Z</time>
      </trkpt>
      <trkpt lat="42.71955" lon="-0.06066">
        <ele>2256</ele>
        <time>2014-05-17T12:12:02Z</time>
      </trkpt>
      <trkpt lat="42.71946" lon="-0.06059">
        <ele>2252</ele>
        <time>2014-05-17T12:12:07Z</time>
      </trkpt>
      <trkpt lat="42.71945" lon="-0.06051">
        <ele>2249</ele>
        <time>2014-05-17T12:12:10Z</time>
      </trkpt>
      <trkpt lat="42.71936" lon="-0.06048">
        <ele>2246</ele>
        <time>2014-05-17T12:12:13Z</time>
      </trkpt>
      <trkpt lat="42.71936" lon="-0.06046">
        <ele>2244</ele>
        <time>2014-05-17T12:12:14Z</time>
      </trkpt>
      <trkpt lat="42.71936" lon="-0.06034">
        <ele>2239</ele>
        <time>2014-05-17T12:12:17Z</time>
      </trkpt>
      <trkpt lat="42.71927" lon="-0.06024">
        <ele>2235</ele>
        <time>2014-05-17T12:12:22Z</time>
      </trkpt>
      <trkpt lat="42.71926" lon="-0.06019">
        <ele>2234</ele>
        <time>2014-05-17T12:12:23Z</time>
      </trkpt>
      <trkpt lat="42.71925" lon="-0.06016">
        <ele>2231</ele>
        <time>2014-05-17T12:12:24Z</time>
      </trkpt>
      <trkpt lat="42.7192" lon="-0.06017">
        <ele>2230</ele>
        <time>2014-05-17T12:12:26Z</time>
      </trkpt>
      <trkpt lat="42.71921" lon="-0.06014">
        <ele>2230</ele>
        <time>2014-05-17T12:12:38Z</time>
      </trkpt>
      <trkpt lat="42.7192" lon="-0.06013">
        <ele>2230</ele>
        <time>2014-05-17T12:12:42Z</time>
      </trkpt>
      <trkpt lat="42.71921" lon="-0.05998">
        <ele>2227</ele>
        <time>2014-05-17T12:12:46Z</time>
      </trkpt>
      <trkpt lat="42.71928" lon="-0.05993">
        <ele>2225</ele>
        <time>2014-05-17T12:12:49Z</time>
      </trkpt>
      <trkpt lat="42.71932" lon="-0.05987">
        <ele>2224</ele>
        <time>2014-05-17T12:12:51Z</time>
      </trkpt>
      <trkpt lat="42.71942" lon="-0.05981">
        <ele>2223</ele>
        <time>2014-05-17T12:13:03Z</time>
      </trkpt>
      <trkpt lat="42.71943" lon="-0.05982">
        <ele>2223</ele>
        <time>2014-05-17T12:13:09Z</time>
      </trkpt>
      <trkpt lat="42.71944" lon="-0.05969">
        <ele>2220</ele>
        <time>2014-05-17T12:13:14Z</time>
      </trkpt>
      <trkpt lat="42.71946" lon="-0.05964">
        <ele>2218</ele>
        <time>2014-05-17T12:13:16Z</time>
      </trkpt>
      <trkpt lat="42.71943" lon="-0.05956">
        <ele>2215</ele>
        <time>2014-05-17T12:13:19Z</time>
      </trkpt>
      <trkpt lat="42.71956" lon="-0.05942">
        <ele>2211</ele>
        <time>2014-05-17T12:13:25Z</time>
      </trkpt>
      <trkpt lat="42.71953" lon="-0.05935">
        <ele>2208</ele>
        <time>2014-05-17T12:13:28Z</time>
      </trkpt>
      <trkpt lat="42.71947" lon="-0.05939">
        <ele>2207</ele>
        <time>2014-05-17T12:13:31Z</time>
      </trkpt>
      <trkpt lat="42.71943" lon="-0.05939">
        <ele>2206</ele>
        <time>2014-05-17T12:13:33Z</time>
      </trkpt>
      <trkpt lat="42.71944" lon="-0.05923">
        <ele>2202</ele>
        <time>2014-05-17T12:13:37Z</time>
      </trkpt>
      <trkpt lat="42.71946" lon="-0.05911">
        <ele>2197</ele>
        <time>2014-05-17T12:13:42Z</time>
      </trkpt>
      <trkpt lat="42.71943" lon="-0.05911">
        <ele>2198</ele>
        <time>2014-05-17T12:13:43Z</time>
      </trkpt>
      <trkpt lat="42.71938" lon="-0.05906">
        <ele>2194</ele>
        <time>2014-05-17T12:13:48Z</time>
      </trkpt>
      <trkpt lat="42.71937" lon="-0.05898">
        <ele>2192</ele>
        <time>2014-05-17T12:13:50Z</time>
      </trkpt>
      <trkpt lat="42.71933" lon="-0.05897">
        <ele>2191</ele>
        <time>2014-05-17T12:13:53Z</time>
      </trkpt>
      <trkpt lat="42.71931" lon="-0.05894">
        <ele>2190</ele>
        <time>2014-05-17T12:13:54Z</time>
      </trkpt>
      <trkpt lat="42.71931" lon="-0.05879">
        <ele>2187</ele>
        <time>2014-05-17T12:13:58Z</time>
      </trkpt>
      <trkpt lat="42.71928" lon="-0.05877">
        <ele>2186</ele>
        <time>2014-05-17T12:13:59Z</time>
      </trkpt>
      <trkpt lat="42.71923" lon="-0.05865">
        <ele>2183</ele>
        <time>2014-05-17T12:14:02Z</time>
      </trkpt>
      <trkpt lat="42.71926" lon="-0.05856">
        <ele>2182</ele>
        <time>2014-05-17T12:14:05Z</time>
      </trkpt>
      <trkpt lat="42.71922" lon="-0.0585">
        <ele>2177</ele>
        <time>2014-05-17T12:14:08Z</time>
      </trkpt>
      <trkpt lat="42.71917" lon="-0.0585">
        <ele>2176</ele>
        <time>2014-05-17T12:14:10Z</time>
      </trkpt>
      <trkpt lat="42.71923" lon="-0.05839">
        <ele>2174</ele>
        <time>2014-05-17T12:14:14Z</time>
      </trkpt>
      <trkpt lat="42.71926" lon="-0.05835">
        <ele>2174</ele>
        <time>2014-05-17T12:14:25Z</time>
      </trkpt>
      <trkpt lat="42.71926" lon="-0.05836">
        <ele>2174</ele>
        <time>2014-05-17T12:14:29Z</time>
      </trkpt>
      <trkpt lat="42.71924" lon="-0.0583">
        <ele>2171</ele>
        <time>2014-05-17T12:14:34Z</time>
      </trkpt>
      <trkpt lat="42.71927" lon="-0.0583">
        <ele>2171</ele>
        <time>2014-05-17T12:14:35Z</time>
      </trkpt>
      <trkpt lat="42.7192" lon="-0.05822">
        <ele>2169</ele>
        <time>2014-05-17T12:14:38Z</time>
      </trkpt>
      <trkpt lat="42.71928" lon="-0.05809">
        <ele>2166</ele>
        <time>2014-05-17T12:14:42Z</time>
      </trkpt>
      <trkpt lat="42.71935" lon="-0.05794">
        <ele>2164</ele>
        <time>2014-05-17T12:14:46Z</time>
      </trkpt>
      <trkpt lat="42.71937" lon="-0.05791">
        <ele>2164</ele>
        <time>2014-05-17T12:14:47Z</time>
      </trkpt>
      <trkpt lat="42.71934" lon="-0.05786">
        <ele>2163</ele>
        <time>2014-05-17T12:14:48Z</time>
      </trkpt>
      <trkpt lat="42.71932" lon="-0.05786">
        <ele>2163</ele>
        <time>2014-05-17T12:14:49Z</time>
      </trkpt>
      <trkpt lat="42.71928" lon="-0.05779">
        <ele>2161</ele>
        <time>2014-05-17T12:14:51Z</time>
      </trkpt>
      <trkpt lat="42.71926" lon="-0.05774">
        <ele>2158</ele>
        <time>2014-05-17T12:14:53Z</time>
      </trkpt>
      <trkpt lat="42.71926" lon="-0.05772">
        <ele>2157</ele>
        <time>2014-05-17T12:14:54Z</time>
      </trkpt>
      <trkpt lat="42.71925" lon="-0.05753">
        <ele>2153</ele>
        <time>2014-05-17T12:14:58Z</time>
      </trkpt>
      <trkpt lat="42.71931" lon="-0.05742">
        <ele>2149</ele>
        <time>2014-05-17T12:15:01Z</time>
      </trkpt>
      <trkpt lat="42.71929" lon="-0.05737">
        <ele>2149</ele>
        <time>2014-05-17T12:15:02Z</time>
      </trkpt>
      <trkpt lat="42.71933" lon="-0.05721">
        <ele>2144</ele>
        <time>2014-05-17T12:15:05Z</time>
      </trkpt>
      <trkpt lat="42.71942" lon="-0.05723">
        <ele>2143</ele>
        <time>2014-05-17T12:15:14Z</time>
      </trkpt>
      <trkpt lat="42.71942" lon="-0.0572">
        <ele>2143</ele>
        <time>2014-05-17T12:15:19Z</time>
      </trkpt>
      <trkpt lat="42.71942" lon="-0.05708">
        <ele>2140</ele>
        <time>2014-05-17T12:15:23Z</time>
      </trkpt>
      <trkpt lat="42.7195" lon="-0.05696">
        <ele>2137</ele>
        <time>2014-05-17T12:15:28Z</time>
      </trkpt>
      <trkpt lat="42.71958" lon="-0.0569">
        <ele>2134</ele>
        <time>2014-05-17T12:15:33Z</time>
      </trkpt>
      <trkpt lat="42.71958" lon="-0.0569">
        <ele>2134</ele>
        <time>2014-05-17T12:15:59Z</time>
      </trkpt>
      <trkpt lat="42.71956" lon="-0.05689">
        <ele>2134</ele>
        <time>2014-05-17T12:16:21Z</time>
      </trkpt>
      <trkpt lat="42.71962" lon="-0.0568">
        <ele>2132</ele>
        <time>2014-05-17T12:16:25Z</time>
      </trkpt>
      <trkpt lat="42.71964" lon="-0.05661">
        <ele>2127</ele>
        <time>2014-05-17T12:16:30Z</time>
      </trkpt>
      <trkpt lat="42.71972" lon="-0.05659">
        <ele>2125</ele>
        <time>2014-05-17T12:16:32Z</time>
      </trkpt>
      <trkpt lat="42.71974" lon="-0.05657">
        <ele>2124</ele>
        <time>2014-05-17T12:16:33Z</time>
      </trkpt>
      <trkpt lat="42.7197" lon="-0.05637">
        <ele>2122</ele>
        <time>2014-05-17T12:16:37Z</time>
      </trkpt>
      <trkpt lat="42.7197" lon="-0.05627">
        <ele>2121</ele>
        <time>2014-05-17T12:16:39Z</time>
      </trkpt>
      <trkpt lat="42.71976" lon="-0.0561">
        <ele>2120</ele>
        <time>2014-05-17T12:16:43Z</time>
      </trkpt>
      <trkpt lat="42.71988" lon="-0.05603">
        <ele>2117</ele>
        <time>2014-05-17T12:16:46Z</time>
      </trkpt>
      <trkpt lat="42.7201" lon="-0.05581">
        <ele>2113</ele>
        <time>2014-05-17T12:16:53Z</time>
      </trkpt>
      <trkpt lat="42.72012" lon="-0.05578">
        <ele>2113</ele>
        <time>2014-05-17T12:16:54Z</time>
      </trkpt>
      <trkpt lat="42.72034" lon="-0.05551">
        <ele>2109</ele>
        <time>2014-05-17T12:17:04Z</time>
      </trkpt>
      <trkpt lat="42.72056" lon="-0.05514">
        <ele>2106</ele>
        <time>2014-05-17T12:17:13Z</time>
      </trkpt>
      <trkpt lat="42.72075" lon="-0.05475">
        <ele>2101</ele>
        <time>2014-05-17T12:17:24Z</time>
      </trkpt>
      <trkpt lat="42.72083" lon="-0.05464">
        <ele>2101</ele>
        <time>2014-05-17T12:17:27Z</time>
      </trkpt>
      <trkpt lat="42.72089" lon="-0.05453">
        <ele>2100</ele>
        <time>2014-05-17T12:17:30Z</time>
      </trkpt>
      <trkpt lat="42.7212" lon="-0.05421">
        <ele>2096</ele>
        <time>2014-05-17T12:17:43Z</time>
      </trkpt>
      <trkpt lat="42.7215" lon="-0.05391">
        <ele>2095</ele>
        <time>2014-05-17T12:17:58Z</time>
      </trkpt>
      <trkpt lat="42.72177" lon="-0.05357">
        <ele>2093</ele>
        <time>2014-05-17T12:18:12Z</time>
      </trkpt>
      <trkpt lat="42.72203" lon="-0.05323">
        <ele>2091</ele>
        <time>2014-05-17T12:18:23Z</time>
      </trkpt>
      <trkpt lat="42.72225" lon="-0.05299">
        <ele>2090</ele>
        <time>2014-05-17T12:18:32Z</time>
      </trkpt>
      <trkpt lat="42.72227" lon="-0.05295">
        <ele>2089</ele>
        <time>2014-05-17T12:18:38Z</time>
      </trkpt>
      <trkpt lat="42.72237" lon="-0.05279">
        <ele>2089</ele>
        <time>2014-05-17T12:18:47Z</time>
      </trkpt>
      <trkpt lat="42.72256" lon="-0.05247">
        <ele>2088</ele>
        <time>2014-05-17T12:19:02Z</time>
      </trkpt>
      <trkpt lat="42.72279" lon="-0.05223">
        <ele>2087</ele>
        <time>2014-05-17T12:19:15Z</time>
      </trkpt>
      <trkpt lat="42.72305" lon="-0.05188">
        <ele>2086</ele>
        <time>2014-05-17T12:19:32Z</time>
      </trkpt>
      <trkpt lat="42.72332" lon="-0.05152">
        <ele>2083</ele>
        <time>2014-05-17T12:19:48Z</time>
      </trkpt>
      <trkpt lat="42.72358" lon="-0.05116">
        <ele>2081</ele>
        <time>2014-05-17T12:20:03Z</time>
      </trkpt>
      <trkpt lat="42.72377" lon="-0.05072">
        <ele>2078</ele>
        <time>2014-05-17T12:20:17Z</time>
      </trkpt>
      <trkpt lat="42.72376" lon="-0.05067">
        <ele>2077</ele>
        <time>2014-05-17T12:20:18Z</time>
      </trkpt>
      <trkpt lat="42.72365" lon="-0.05061">
        <ele>2075</ele>
        <time>2014-05-17T12:20:22Z</time>
      </trkpt>
      <trkpt lat="42.72357" lon="-0.05063">
        <ele>2074</ele>
        <time>2014-05-17T12:20:24Z</time>
      </trkpt>
      <trkpt lat="42.72327" lon="-0.05082">
        <ele>2070</ele>
        <time>2014-05-17T12:20:34Z</time>
      </trkpt>
      <trkpt lat="42.72287" lon="-0.0511">
        <ele>2067</ele>
        <time>2014-05-17T12:20:48Z</time>
      </trkpt>
      <trkpt lat="42.72256" lon="-0.05134">
        <ele>2064</ele>
        <time>2014-05-17T12:20:58Z</time>
      </trkpt>
      <trkpt lat="42.7223" lon="-0.0515">
        <ele>2063</ele>
        <time>2014-05-17T12:21:08Z</time>
      </trkpt>
      <trkpt lat="42.72225" lon="-0.05125">
        <ele>2060</ele>
        <time>2014-05-17T12:21:14Z</time>
      </trkpt>
      <trkpt lat="42.72231" lon="-0.05091">
        <ele>2057</ele>
        <time>2014-05-17T12:21:22Z</time>
      </trkpt>
      <trkpt lat="42.72236" lon="-0.05041">
        <ele>2054</ele>
        <time>2014-05-17T12:21:32Z</time>
      </trkpt>
      <trkpt lat="42.72232" lon="-0.04981">
        <ele>2050</ele>
        <time>2014-05-17T12:21:44Z</time>
      </trkpt>
      <trkpt lat="42.72231" lon="-0.0497">
        <ele>2048</ele>
        <time>2014-05-17T12:21:46Z</time>
      </trkpt>
      <trkpt lat="42.72228" lon="-0.04951">
        <ele>2047</ele>
        <time>2014-05-17T12:21:49Z</time>
      </trkpt>
      <trkpt lat="42.72221" lon="-0.04922">
        <ele>2043</ele>
        <time>2014-05-17T12:21:55Z</time>
      </trkpt>
      <trkpt lat="42.72222" lon="-0.04907">
        <ele>2042</ele>
        <time>2014-05-17T12:21:58Z</time>
      </trkpt>
      <trkpt lat="42.72222" lon="-0.04901">
        <ele>2041</ele>
        <time>2014-05-17T12:22:00Z</time>
      </trkpt>
      <trkpt lat="42.72221" lon="-0.0489">
        <ele>2041</ele>
        <time>2014-05-17T12:22:04Z</time>
      </trkpt>
      <trkpt lat="42.72215" lon="-0.04872">
        <ele>2037</ele>
        <time>2014-05-17T12:22:09Z</time>
      </trkpt>
      <trkpt lat="42.72213" lon="-0.04849">
        <ele>2033</ele>
        <time>2014-05-17T12:22:15Z</time>
      </trkpt>
      <trkpt lat="42.72206" lon="-0.04837">
        <ele>2030</ele>
        <time>2014-05-17T12:22:19Z</time>
      </trkpt>
      <trkpt lat="42.722" lon="-0.04825">
        <ele>2029</ele>
        <time>2014-05-17T12:22:22Z</time>
      </trkpt>
      <trkpt lat="42.72198" lon="-0.04813">
        <ele>2028</ele>
        <time>2014-05-17T12:22:24Z</time>
      </trkpt>
      <trkpt lat="42.72197" lon="-0.04777">
        <ele>2025</ele>
        <time>2014-05-17T12:22:30Z</time>
      </trkpt>
      <trkpt lat="42.72198" lon="-0.0477">
        <ele>2024</ele>
        <time>2014-05-17T12:22:31Z</time>
      </trkpt>
      <trkpt lat="42.72199" lon="-0.04756">
        <ele>2023</ele>
        <time>2014-05-17T12:22:34Z</time>
      </trkpt>
      <trkpt lat="42.72208" lon="-0.04724">
        <ele>2020</ele>
        <time>2014-05-17T12:22:39Z</time>
      </trkpt>
      <trkpt lat="42.72219" lon="-0.047">
        <ele>2018</ele>
        <time>2014-05-17T12:22:44Z</time>
      </trkpt>
      <trkpt lat="42.72231" lon="-0.04679">
        <ele>2016</ele>
        <time>2014-05-17T12:22:49Z</time>
      </trkpt>
      <trkpt lat="42.72237" lon="-0.04672">
        <ele>2016</ele>
        <time>2014-05-17T12:22:51Z</time>
      </trkpt>
      <trkpt lat="42.72244" lon="-0.04665">
        <ele>2014</ele>
        <time>2014-05-17T12:22:53Z</time>
      </trkpt>
      <trkpt lat="42.72257" lon="-0.04662">
        <ele>2012</ele>
        <time>2014-05-17T12:22:56Z</time>
      </trkpt>
      <trkpt lat="42.72276" lon="-0.04665">
        <ele>2009</ele>
        <time>2014-05-17T12:23:01Z</time>
      </trkpt>
      <trkpt lat="42.7228" lon="-0.04646">
        <ele>2005</ele>
        <time>2014-05-17T12:23:07Z</time>
      </trkpt>
      <trkpt lat="42.72277" lon="-0.04637">
        <ele>2004</ele>
        <time>2014-05-17T12:23:09Z</time>
      </trkpt>
      <trkpt lat="42.72276" lon="-0.04617">
        <ele>2002</ele>
        <time>2014-05-17T12:23:15Z</time>
      </trkpt>
      <trkpt lat="42.72285" lon="-0.04605">
        <ele>2001</ele>
        <time>2014-05-17T12:23:25Z</time>
      </trkpt>
      <trkpt lat="42.72285" lon="-0.04606">
        <ele>2000</ele>
        <time>2014-05-17T12:23:43Z</time>
      </trkpt>
      <trkpt lat="42.72286" lon="-0.04605">
        <ele>2000</ele>
        <time>2014-05-17T12:23:50Z</time>
      </trkpt>
      <trkpt lat="42.72292" lon="-0.04591">
        <ele>1999</ele>
        <time>2014-05-17T12:24:00Z</time>
      </trkpt>
      <trkpt lat="42.72301" lon="-0.04572">
        <ele>1996</ele>
        <time>2014-05-17T12:24:12Z</time>
      </trkpt>
      <trkpt lat="42.72299" lon="-0.04567">
        <ele>1996</ele>
        <time>2014-05-17T12:24:16Z</time>
      </trkpt>
      <trkpt lat="42.72296" lon="-0.04554">
        <ele>1996</ele>
        <time>2014-05-17T12:24:28Z</time>
      </trkpt>
      <trkpt lat="42.72296" lon="-0.04553">
        <ele>1996</ele>
        <time>2014-05-17T12:24:48Z</time>
      </trkpt>
      <trkpt lat="42.72296" lon="-0.04551">
        <ele>1996</ele>
        <time>2014-05-17T12:25:08Z</time>
      </trkpt>
      <trkpt lat="42.72297" lon="-0.04549">
        <ele>1996</ele>
        <time>2014-05-17T12:25:15Z</time>
      </trkpt>
      <trkpt lat="42.72306" lon="-0.04535">
        <ele>1996</ele>
        <time>2014-05-17T12:25:23Z</time>
      </trkpt>
      <trkpt lat="42.72323" lon="-0.04501">
        <ele>1991</ele>
        <time>2014-05-17T12:25:33Z</time>
      </trkpt>
      <trkpt lat="42.72342" lon="-0.04448">
        <ele>1988</ele>
        <time>2014-05-17T12:25:46Z</time>
      </trkpt>
      <trkpt lat="42.72346" lon="-0.04438">
        <ele>1987</ele>
        <time>2014-05-17T12:25:48Z</time>
      </trkpt>
      <trkpt lat="42.72351" lon="-0.04422">
        <ele>1986</ele>
        <time>2014-05-17T12:25:51Z</time>
      </trkpt>
      <trkpt lat="42.72373" lon="-0.04388">
        <ele>1982</ele>
        <time>2014-05-17T12:26:00Z</time>
      </trkpt>
      <trkpt lat="42.72396" lon="-0.0436">
        <ele>1979</ele>
        <time>2014-05-17T12:26:07Z</time>
      </trkpt>
      <trkpt lat="42.72422" lon="-0.04329">
        <ele>1977</ele>
        <time>2014-05-17T12:26:15Z</time>
      </trkpt>
      <trkpt lat="42.72433" lon="-0.04316">
        <ele>1976</ele>
        <time>2014-05-17T12:26:19Z</time>
      </trkpt>
      <trkpt lat="42.72458" lon="-0.04288">
        <ele>1972</ele>
        <time>2014-05-17T12:26:27Z</time>
      </trkpt>
      <trkpt lat="42.72473" lon="-0.04272">
        <ele>1969</ele>
        <time>2014-05-17T12:26:32Z</time>
      </trkpt>
      <trkpt lat="42.72475" lon="-0.0427">
        <ele>1969</ele>
        <time>2014-05-17T12:26:33Z</time>
      </trkpt>
      <trkpt lat="42.72481" lon="-0.04267">
        <ele>1968</ele>
        <time>2014-05-17T12:26:41Z</time>
      </trkpt>
      <trkpt lat="42.72486" lon="-0.04258">
        <ele>1968</ele>
        <time>2014-05-17T12:26:46Z</time>
      </trkpt>
      <trkpt lat="42.7249" lon="-0.04254">
        <ele>1967</ele>
        <time>2014-05-17T12:26:48Z</time>
      </trkpt>
      <trkpt lat="42.72527" lon="-0.04219">
        <ele>1965</ele>
        <time>2014-05-17T12:27:02Z</time>
      </trkpt>
      <trkpt lat="42.7255" lon="-0.04193">
        <ele>1962</ele>
        <time>2014-05-17T12:27:10Z</time>
      </trkpt>
      <trkpt lat="42.72569" lon="-0.0417">
        <ele>1959</ele>
        <time>2014-05-17T12:27:16Z</time>
      </trkpt>
      <trkpt lat="42.72596" lon="-0.04141">
        <ele>1955</ele>
        <time>2014-05-17T12:27:23Z</time>
      </trkpt>
      <trkpt lat="42.726" lon="-0.04137">
        <ele>1955</ele>
        <time>2014-05-17T12:27:24Z</time>
      </trkpt>
      <trkpt lat="42.72625" lon="-0.04104">
        <ele>1952</ele>
        <time>2014-05-17T12:27:32Z</time>
      </trkpt>
      <trkpt lat="42.72633" lon="-0.04091">
        <ele>1950</ele>
        <time>2014-05-17T12:27:35Z</time>
      </trkpt>
      <trkpt lat="42.72652" lon="-0.0405">
        <ele>1946</ele>
        <time>2014-05-17T12:27:44Z</time>
      </trkpt>
      <trkpt lat="42.72655" lon="-0.04045">
        <ele>1946</ele>
        <time>2014-05-17T12:27:45Z</time>
      </trkpt>
      <trkpt lat="42.72668" lon="-0.04023">
        <ele>1943</ele>
        <time>2014-05-17T12:27:51Z</time>
      </trkpt>
      <trkpt lat="42.72687" lon="-0.04036">
        <ele>1939</ele>
        <time>2014-05-17T12:27:56Z</time>
      </trkpt>
      <trkpt lat="42.72693" lon="-0.04051">
        <ele>1937</ele>
        <time>2014-05-17T12:27:59Z</time>
      </trkpt>
      <trkpt lat="42.7271" lon="-0.04104">
        <ele>1935</ele>
        <time>2014-05-17T12:28:13Z</time>
      </trkpt>
      <trkpt lat="42.72712" lon="-0.04109">
        <ele>1934</ele>
        <time>2014-05-17T12:28:15Z</time>
      </trkpt>
      <trkpt lat="42.72718" lon="-0.04121">
        <ele>1934</ele>
        <time>2014-05-17T12:28:28Z</time>
      </trkpt>
      <trkpt lat="42.72718" lon="-0.0412">
        <ele>1933</ele>
        <time>2014-05-17T12:28:47Z</time>
      </trkpt>
      <trkpt lat="42.72719" lon="-0.04117">
        <ele>1933</ele>
        <time>2014-05-17T12:29:02Z</time>
      </trkpt>
      <trkpt lat="42.72719" lon="-0.04118">
        <ele>1934</ele>
        <time>2014-05-17T12:29:10Z</time>
      </trkpt>
      <trkpt lat="42.72723" lon="-0.04116">
        <ele>1933</ele>
        <time>2014-05-17T12:29:15Z</time>
      </trkpt>
      <trkpt lat="42.72734" lon="-0.04119">
        <ele>1933</ele>
        <time>2014-05-17T12:29:28Z</time>
      </trkpt>
      <trkpt lat="42.72736" lon="-0.04123">
        <ele>1932</ele>
        <time>2014-05-17T12:29:43Z</time>
      </trkpt>
      <trkpt lat="42.72737" lon="-0.04123">
        <ele>1933</ele>
        <time>2014-05-17T12:29:55Z</time>
      </trkpt>
      <trkpt lat="42.7274" lon="-0.04126">
        <ele>1933</ele>
        <time>2014-05-17T12:30:12Z</time>
      </trkpt>
      <trkpt lat="42.72739" lon="-0.04127">
        <ele>1932</ele>
        <time>2014-05-17T12:30:24Z</time>
      </trkpt>
      <trkpt lat="42.72738" lon="-0.04127">
        <ele>1932</ele>
        <time>2014-05-17T12:30:56Z</time>
      </trkpt>
      <trkpt lat="42.72739" lon="-0.04126">
        <ele>1931</ele>
        <time>2014-05-17T12:31:28Z</time>
      </trkpt>
      <trkpt lat="42.72737" lon="-0.04124">
        <ele>1931</ele>
        <time>2014-05-17T12:32:03Z</time>
      </trkpt>
      <trkpt lat="42.7274" lon="-0.04123">
        <ele>1931</ele>
        <time>2014-05-17T12:32:40Z</time>
      </trkpt>
      <trkpt lat="42.72738" lon="-0.04122">
        <ele>1931</ele>
        <time>2014-05-17T12:33:04Z</time>
      </trkpt>
      <trkpt lat="42.72737" lon="-0.04123">
        <ele>1931</ele>
        <time>2014-05-17T12:33:40Z</time>
      </trkpt>
      <trkpt lat="42.72734" lon="-0.04121">
        <ele>1931</ele>
        <time>2014-05-17T12:34:17Z</time>
      </trkpt>
      <trkpt lat="42.72736" lon="-0.04124">
        <ele>1930</ele>
        <time>2014-05-17T12:34:49Z</time>
      </trkpt>
      <trkpt lat="42.7274" lon="-0.04126">
        <ele>1930</ele>
        <time>2014-05-17T12:35:26Z</time>
      </trkpt>
      <trkpt lat="42.72741" lon="-0.04128">
        <ele>1931</ele>
        <time>2014-05-17T12:35:37Z</time>
      </trkpt>
      <trkpt lat="42.72743" lon="-0.04127">
        <ele>1931</ele>
        <time>2014-05-17T12:35:58Z</time>
      </trkpt>
    </trkseg>
  </trk>
</gpx>